[[{"header":{"parameterUnit":"m.s-1","parameterCategory":1,"la1":30.6,"la2":28.766,"lo1":-90.7593,"lo2":-88.6598,"dy":0.0162,"dx":0.0183,"nx":116,"ny":114,"refTime":"2024-05-02T12:00:00:Z","depth":0,"parameterNumber":2,"parameterNumberName":"U-component_of_WINDS"},"data":[0.0,0.0,0.0,0.0,0.0,0.0,0.0,0.0,0.0,0.0,0.0,0.0,0.0,0.0,0.0,0.0,0.0,0.0,0.0,0.0,0.0,0.0,0.0,0.0,0.0,0.0,0.0,0.0,0.0,0.0,0.0,0.0,0.0,0.0,0.0,0.0,0.0,0.0,0.0,0.0,0.0,0.0,0.0,0.0,0.0,0.0,0.0,0.0,0.0,0.0,0.0,0.0,0.0,0.0,0.0,0.0,0.0,0.0,0.0,0.0,0.0,0.0,0.0,0.0,0.0,0.0,0.0,0.0,0.0,0.0,0.0,0.0,0.0,0.0,0.0,0.0,0.0,0.0,0.0,0.0,0.0,0.0,0.0,0.0,0.0,0.0,0.0,0.0,0.0,0.0,0.0,0.0,0.0,0.0,0.0,0.0,0.0,0.0,0.0,0.0,0.0,0.0,0.0,0.0,0.0,0.0,0.0,0.0,0.0,0.0,0.0,0.0,0.0,0.0,0.0,0.0,0.0,0.0,0.0,0.0,0.0,0.0,0.0,0.0,0.0,0.0,0.0,0.0,0.0,0.0,0.0,0.0,0.0,0.0,0.0,0.0,0.0,0.0,0.0,0.0,0.0,0.0,0.0,0.0,0.0,0.0,0.0,0.0,0.0,0.0,0.0,0.0,0.0,0.0,0.0,0.0,0.0,0.0,0.0,0.0,0.0,0.0,0.0,0.0,0.0,0.0,0.0,0.0,0.0,0.0,0.0,0.0,0.0,0.0,0.0,0.0,0.0,0.0,0.0,0.0,0.0,0.0,0.0,0.0,0.0,0.0,0.0,0.0,0.0,0.0,0.0,0.0,0.0,0.0,0.0,0.0,0.0,0.0,0.0,0.0,0.0,0.0,0.0,0.0,0.0,0.0,0.0,0.0,0.0,0.0,0.0,0.0,0.0,0.0,0.0,0.0,0.0,0.0,0.0,0.0,0.0,0.0,0.0,0.0,0.0,0.0,0.0,0.0,0.0,0.0,0.0,0.0,0.0,0.0,0.0,0.0,0.0,0.0,0.0,0.0,0.0,0.0,0.0,0.0,0.0,0.0,0.0,0.0,0.0,0.0,0.0,0.0,0.0,0.0,0.0,0.0,0.0,0.0,0.0,0.0,0.0,0.0,0.0,0.0,0.0,0.0,0.0,0.0,0.0,0.0,0.0,0.0,0.0,0.0,0.0,0.0,0.0,0.0,0.0,0.0,0.0,0.0,0.0,0.0,0.0,0.0,0.0,0.0,0.0,0.0,0.0,0.0,0.0,0.0,0.0,0.0,0.0,0.0,0.0,0.0,0.0,0.0,0.0,0.0,0.0,0.0,0.0,0.0,0.0,0.0,0.0,0.0,0.0,0.0,0.0,0.0,0.0,0.0,0.0,0.0,0.0,0.0,0.0,0.0,0.0,0.0,0.0,0.0,0.0,0.0,0.0,0.0,0.0,0.0,0.0,0.0,0.0,0.0,0.0,0.0,0.0,0.0,0.0,0.0,0.0,0.0,0.0,0.0,0.0,0.0,0.0,0.0,0.0,0.0,0.0,0.0,0.0,0.0,0.0,0.0,0.0,0.0,0.0,0.0,0.0,0.0,0.0,0.0,0.0,0.0,0.0,0.0,0.0,0.0,0.0,0.0,0.0,0.0,0.0,0.0,0.0,0.0,0.0,0.0,0.0,0.0,0.0,0.0,0.0,0.0,0.0,0.0,0.0,0.0,0.0,0.0,0.0,0.0,0.0,0.0,0.0,0.0,0.0,0.0,0.0,0.0,0.0,0.0,0.0,0.0,0.0,0.0,0.0,0.0,0.0,0.0,0.0,0.0,0.0,0.0,0.0,0.0,0.0,0.0,0.0,0.0,0.0,0.0,0.0,0.0,0.0,0.0,0.0,0.0,0.0,0.0,0.0,0.0,0.0,0.0,0.0,0.0,0.0,0.0,0.0,0.0,0.0,0.0,0.0,0.0,0.0,0.0,0.0,0.0,0.0,0.0,0.0,0.0,0.0,0.0,0.0,0.0,0.0,0.0,0.0,0.0,0.0,0.0,0.0,0.0,0.0,0.0,0.0,0.0,0.0,0.0,0.0,0.0,0.0,0.0,0.0,0.0,0.0,0.0,0.0,0.0,0.0,0.0,0.0,0.0,0.0,0.0,0.0,0.0,0.0,0.0,0.0,0.0,0.0,0.0,0.0,0.0,0.0,0.0,0.0,0.0,0.0,0.0,0.0,0.0,0.0,0.0,0.0,0.0,0.0,0.0,0.0,0.0,0.0,0.0,0.0,0.0,0.0,0.0,0.0,0.0,0.0,0.0,0.0,0.0,0.0,0.0,0.0,0.0,0.0,0.0,0.0,0.0,0.0,0.0,0.0,0.0,0.0,0.0,0.0,0.0,0.0,0.0,0.0,0.0,0.0,0.0,0.0,0.0,0.0,0.0,0.0,0.0,0.0,0.0,0.0,0.0,0.0,0.0,0.0,0.0,0.0,0.0,0.0,0.0,0.0,0.0,0.0,0.0,0.0,0.0,0.0,0.0,0.0,0.0,0.0,0.0,0.0,0.0,0.0,0.0,0.0,0.0,0.0,0.0,0.0,0.0,0.0,0.0,0.0,0.0,0.0,0.0,0.0,0.0,0.0,0.0,0.0,0.0,0.0,0.0,0.0,0.0,0.0,0.0,0.0,0.0,0.0,0.0,0.0,0.0,0.0,0.0,0.0,0.0,0.0,0.0,0.0,0.0,0.0,0.0,0.0,0.0,0.0,0.0,0.0,0.0,0.0,0.0,0.0,0.0,0.0,0.0,0.0,0.0,0.0,0.0,0.0,0.0,0.0,0.0,0.0,0.0,0.0,0.0,0.0,0.0,0.0,0.0,0.0,0.0,0.0,0.0,0.0,0.0,0.0,0.0,0.0,0.0,0.0,0.0,0.0,0.0,0.0,0.0,0.0,0.0,0.0,0.0,0.0,0.0,0.0,0.0,0.0,0.0,0.0,0.0,0.0,0.0,0.0,0.0,0.0,0.0,0.0,0.0,0.0,0.0,0.0,0.0,0.0,0.0,0.0,0.0,0.0,0.0,0.0,0.0,0.0,0.0,0.0,0.0,0.0,0.0,0.0,0.0,0.0,0.0,0.0,0.0,0.0,0.0,0.0,0.0,0.0,0.0,0.0,0.0,0.0,0.0,0.0,0.0,0.0,0.0,0.0,0.0,0.0,0.0,0.0,0.0,0.0,0.0,0.0,0.0,0.0,0.0,0.0,0.0,0.0,0.0,0.0,0.0,0.0,0.0,0.0,0.0,0.0,0.0,0.0,0.0,0.0,0.0,0.0,0.0,0.0,0.0,0.0,0.0,0.0,0.0,0.0,0.0,0.0,0.0,0.0,0.0,0.0,0.0,0.0,0.0,0.0,0.0,0.0,0.0,0.0,0.0,0.0,0.0,0.0,0.0,0.0,0.0,0.0,0.0,0.0,0.0,0.0,0.0,0.0,0.0,0.0,0.0,0.0,0.0,0.0,0.0,0.0,0.0,0.0,0.0,0.0,0.0,0.0,0.0,0.0,0.0,0.0,0.0,0.0,0.0,0.0,0.0,0.0,0.0,0.0,0.0,0.0,0.0,0.0,0.0,0.0,0.0,0.0,0.0,0.0,0.0,0.0,0.0,0.0,0.0,0.0,0.0,0.0,0.0,0.0,0.0,0.0,0.0,0.0,0.0,0.0,0.0,0.0,0.0,0.0,0.0,0.0,0.0,0.0,0.0,0.0,0.0,0.0,0.0,0.0,0.0,0.0,0.0,0.0,0.0,0.0,0.0,0.0,0.0,0.0,0.0,0.0,0.0,0.0,0.0,0.0,0.0,0.0,0.0,0.0,0.0,0.0,0.0,0.0,0.0,0.0,0.0,0.0,0.0,0.0,0.0,0.0,0.0,0.0,0.0,0.0,0.0,0.0,0.0,0.0,0.0,0.0,0.0,0.0,0.0,0.0,0.0,0.0,0.0,0.0,0.0,0.0,0.0,0.0,0.0,0.0,0.0,0.0,0.0,0.0,0.0,0.0,0.0,0.0,0.0,0.0,0.0,0.0,0.0,0.0,0.0,0.0,0.0,0.0,0.0,0.0,0.0,0.0,0.0,0.0,0.0,0.0,0.0,0.0,0.0,0.0,0.0,0.0,0.0,0.0,0.0,0.0,0.0,0.0,0.0,0.0,0.0,0.0,0.0,0.0,0.0,0.0,0.0,0.0,0.0,0.0,0.0,0.0,0.0,0.0,0.0,0.0,0.0,0.0,0.0,0.0,0.0,0.0,0.0,0.0,0.0,0.0,0.0,0.0,0.0,0.0,0.0,0.0,0.0,0.0,0.0,0.0,0.0,0.0,0.0,0.0,0.0,0.0,0.0,0.0,0.0,0.0,0.0,0.0,0.0,0.0,0.0,0.0,0.0,0.0,0.0,0.0,0.0,0.0,0.0,0.0,0.0,0.0,0.0,0.0,0.0,0.0,0.0,0.0,0.0,0.0,0.0,0.0,0.0,0.0,0.0,0.0,0.0,0.0,0.0,0.0,0.0,0.0,0.0,0.0,0.0,0.0,0.0,0.0,0.0,0.0,0.0,0.0,0.0,0.0,0.0,0.0,0.0,0.0,0.0,0.0,0.0,0.0,0.0,0.0,0.0,0.0,0.0,0.0,0.0,0.0,0.0,0.0,0.0,0.0,0.0,0.0,0.0,0.0,0.0,0.0,0.0,0.0,0.0,0.0,0.0,0.0,0.0,0.0,0.0,0.0,0.0,0.0,0.0,0.0,0.0,0.0,0.0,0.0,0.0,0.0,0.0,0.0,0.0,0.0,0.0,0.0,0.0,0.0,0.0,0.0,0.0,0.0,0.0,0.0,0.0,0.0,0.0,0.0,0.0,0.0,0.0,0.0,0.0,0.0,0.0,0.0,0.0,0.0,0.0,0.0,0.0,0.0,0.0,0.0,0.0,0.0,0.0,0.0,0.0,0.0,0.0,0.0,0.0,0.0,0.0,0.0,0.0,0.0,0.0,0.0,0.0,0.0,0.0,0.0,0.0,0.0,0.0,0.0,0.0,0.0,0.0,0.0,0.0,0.0,0.0,0.0,0.0,0.0,0.0,0.0,0.0,0.0,0.0,0.0,0.0,0.0,0.0,0.0,0.0,0.0,0.0,0.0,0.0,0.0,0.0,0.0,0.0,0.0,0.0,0.0,0.0,0.0,0.0,0.0,0.0,0.0,0.0,0.0,0.0,0.0,0.0,0.0,0.0,0.0,0.0,0.0,0.0,0.0,0.0,0.0,0.0,0.0,0.0,0.0,0.0,0.0,0.0,0.0,0.0,0.0,0.0,0.0,0.0,0.0,0.0,0.0,0.0,0.0,0.0,0.0,0.0,0.0,0.0,0.0,0.0,0.0,0.0,0.0,0.0,0.0,0.0,0.0,0.0,0.0,0.0,0.0,0.0,0.0,0.0,0.0,0.0,0.0,0.0,0.0,0.0,0.0,0.0,0.0,0.0,0.0,0.0,0.0,0.0,0.0,0.0,0.0,0.0,0.0,0.0,0.0,0.0,0.0,0.0,0.0,0.0,0.0,0.0,0.0,0.0,0.0,0.0,0.0,0.0,0.0,0.0,0.0,0.0,0.0,0.0,0.0,0.0,0.0,0.0,0.0,0.0,0.0,0.0,0.0,0.0,0.0,0.0,0.0,0.0,0.0,0.0,0.0,0.0,0.0,0.0,0.0,0.0,0.0,0.0,0.0,0.0,0.0,0.0,0.0,0.0,0.0,0.0,0.0,0.0,0.0,0.0,0.0,0.0,0.0,0.0,0.0,0.0,0.0,0.0,0.0,0.0,0.0,0.0,0.0,0.0,0.0,0.0,0.0,0.0,0.0,0.0,0.0,0.0,0.0,0.0,0.0,0.0,0.0,0.0,0.0,0.0,0.0,0.0,0.0,0.0,0.0,0.0,0.0,0.0,0.0,0.0,0.0,0.0,0.0,0.0,0.0,0.0,0.0,0.0,0.0,0.0,0.0,0.0,0.0,0.0,0.0,0.0,0.0,0.0,0.0,0.0,-2.7664,0.0,0.0,0.0,0.0,0.0,0.0,0.0,0.0,0.0,0.0,0.0,0.0,0.0,0.0,0.0,0.0,0.0,0.0,0.0,0.0,0.0,0.0,0.0,0.0,-1.9513,-1.9389,-1.8899,-1.8936,-1.8877,-1.8631,0.0,0.0,0.0,0.0,0.0,-2.0725,-2.1437,-2.2199,-2.304,-2.3475,-2.354,-2.331,-2.3915,-2.3832,-2.3151,0.0,0.0,0.0,0.0,0.0,0.0,0.0,0.0,0.0,0.0,0.0,0.0,0.0,0.0,0.0,0.0,0.0,0.0,0.0,0.0,0.0,0.0,0.0,0.0,0.0,0.0,0.0,0.0,0.0,0.0,0.0,0.0,0.0,0.0,0.0,0.0,0.0,0.0,0.0,0.0,0.0,0.0,0.0,0.0,0.0,0.0,0.0,0.0,0.0,0.0,0.0,0.0,0.0,0.0,0.0,0.0,0.0,0.0,0.0,0.0,0.0,0.0,0.0,0.0,0.0,0.0,0.0,0.0,0.0,0.0,0.0,-2.9565,0.0,0.0,0.0,0.0,0.0,0.0,0.0,0.0,0.0,0.0,0.0,0.0,0.0,0.0,0.0,0.0,0.0,0.0,0.0,0.0,0.0,-2.0006,-1.9861,-1.9994,-2.0099,-2.0065,-1.9561,-1.9104,-1.8747,-1.8,0.0,0.0,-1.8884,-1.9735,-2.1142,-2.256,-2.318,-2.299,-2.4077,-2.5018,-2.5803,-2.7076,-2.6702,-2.4959,-2.5743,0.0,0.0,0.0,0.0,0.0,0.0,0.0,0.0,0.0,0.0,0.0,0.0,0.0,0.0,0.0,0.0,0.0,0.0,0.0,0.0,0.0,0.0,0.0,0.0,0.0,0.0,0.0,0.0,0.0,0.0,0.0,0.0,0.0,0.0,0.0,0.0,0.0,0.0,0.0,0.0,0.0,0.0,0.0,0.0,0.0,0.0,0.0,0.0,0.0,0.0,0.0,0.0,0.0,0.0,0.0,0.0,0.0,0.0,0.0,0.0,0.0,0.0,0.0,-3.7264,-3.7386,-3.7275,-3.7779,-3.7025,-3.5299,-3.4476,-3.2381,-2.961,-3.1013,0.0,0.0,0.0,0.0,0.0,0.0,0.0,0.0,0.0,0.0,0.0,0.0,0.0,0.0,0.0,0.0,0.0,0.0,0.0,-1.9117,-1.9223,-1.9224,-1.9532,-2.0191,-1.9963,-1.9655,-1.9331,-1.8443,-1.8324,-1.9129,-1.9298,-2.001,-2.1434,-2.2808,-2.339,-2.299,-2.4927,-2.7149,-2.9603,-3.0416,-3.0579,-3.0097,-2.7279,-2.6755,-2.7924,0.0,0.0,0.0,0.0,0.0,0.0,0.0,0.0,0.0,0.0,0.0,0.0,0.0,0.0,0.0,0.0,0.0,0.0,0.0,0.0,0.0,0.0,0.0,0.0,0.0,0.0,0.0,0.0,0.0,0.0,0.0,0.0,0.0,0.0,0.0,0.0,0.0,0.0,0.0,0.0,0.0,-2.9125,-2.8209,0.0,0.0,0.0,0.0,0.0,0.0,0.0,0.0,0.0,0.0,0.0,0.0,0.0,-3.6084,-3.6538,-3.9148,-4.0073,-3.9264,-4.0394,-4.0562,-3.9891,-3.9643,-3.9396,-3.9194,-3.9674,0.0,-3.2613,-3.253,0.0,0.0,0.0,0.0,0.0,0.0,0.0,0.0,0.0,0.0,0.0,0.0,0.0,0.0,0.0,0.0,0.0,0.0,0.0,0.0,0.0,-2.1331,-2.2337,-2.2276,-2.3598,-2.3408,-2.0926,-2.0687,-2.0337,-1.9672,-1.9794,-2.0619,-2.2157,-2.2705,-2.3777,-2.5348,-2.8253,-3.0488,-3.2069,-3.3236,-3.3736,-3.3592,-3.1633,-3.0466,-2.9837,-2.8373,0.0,0.0,0.0,0.0,0.0,0.0,0.0,0.0,0.0,0.0,0.0,0.0,0.0,0.0,0.0,0.0,0.0,0.0,0.0,0.0,0.0,0.0,0.0,0.0,0.0,0.0,0.0,0.0,0.0,0.0,0.0,0.0,0.0,0.0,0.0,0.0,0.0,0.0,0.0,-2.9303,-3.1303,-2.9316,-3.1231,-3.2148,0.0,0.0,0.0,0.0,0.0,0.0,0.0,0.0,0.0,-3.7201,-3.8628,-3.9618,-4.0157,-4.3071,-4.3845,-4.2531,-4.3999,-4.4323,-4.3612,-4.3416,-4.2987,-4.241,-4.2722,-4.0871,-3.7615,-3.6336,-3.5001,-3.3654,0.0,0.0,0.0,0.0,-3.2127,-3.2476,0.0,0.0,0.0,0.0,0.0,0.0,0.0,0.0,0.0,0.0,0.0,0.0,-2.1343,-2.3652,-2.5205,-2.543,-2.6679,-2.6167,-2.3074,-2.2248,-2.1373,-2.0226,-2.0185,-2.0962,-2.2652,-2.3422,-2.5483,-2.887,-3.1832,-3.3812,-3.4878,-3.6163,-3.6772,-3.6738,-3.6366,-3.4878,-3.2496,-3.0431,-2.944,-2.9074,0.0,0.0,0.0,0.0,0.0,0.0,0.0,0.0,0.0,0.0,0.0,0.0,0.0,0.0,0.0,0.0,0.0,0.0,0.0,0.0,0.0,0.0,0.0,0.0,0.0,0.0,0.0,0.0,0.0,0.0,0.0,0.0,0.0,0.0,0.0,0.0,0.0,-3.1612,-3.3349,-3.1008,-3.3452,-3.4469,0.0,0.0,0.0,0.0,0.0,0.0,-3.6717,-3.7828,-3.9193,-4.0835,-4.2319,-4.3414,-4.4158,-4.6577,-4.7049,-4.5716,-4.6729,-4.6861,-4.6161,-4.6161,-4.5599,-4.4621,-4.4621,-4.3537,-4.1576,-3.9326,-3.7168,-3.5198,-3.4822,-3.4939,-3.5222,-3.4749,-3.4666,-3.4916,0.0,0.0,0.0,0.0,0.0,0.0,0.0,0.0,0.0,0.0,0.0,-2.0499,-2.4091,-2.5251,-2.6891,-2.9751,-2.7551,-2.5943,-2.5808,-2.1932,-2.0034,-2.083,-2.0241,-2.0765,-2.2556,-2.5713,-2.9311,-3.3373,-3.4762,-3.6569,-3.8734,-3.9503,-3.9876,-3.991,-4.0561,-3.9242,-3.6288,-3.2611,-3.1594,-3.211,-2.9351,0.0,0.0,0.0,0.0,0.0,0.0,0.0,0.0,0.0,0.0,0.0,0.0,0.0,0.0,0.0,0.0,0.0,0.0,0.0,0.0,0.0,0.0,0.0,0.0,0.0,0.0,0.0,0.0,0.0,0.0,0.0,0.0,0.0,0.0,0.0,0.0,0.0,0.0,-3.3972,-3.7736,0.0,0.0,0.0,0.0,-3.5954,-3.9008,-4.0856,-4.0799,-4.258,-4.4285,-4.5693,-4.6747,-4.7927,-4.9243,-4.9458,-4.9175,-4.8403,-4.7831,-4.7169,-4.6401,-4.6401,-4.6042,-4.5459,-4.5459,-4.4593,-4.3037,-4.018,-3.8454,-3.7564,-3.6107,-3.5805,-3.6084,-3.4934,-3.5211,-3.6042,0.0,0.0,0.0,-2.1119,-2.1103,-2.1119,-2.1151,-2.0734,-2.0511,-2.068,-2.2031,-2.3633,-2.5358,-2.8715,-3.0896,-3.112,-3.1305,-3.0379,-2.7943,-2.5208,-2.3536,-2.3158,-2.1833,-2.2274,-2.4808,-2.818,-3.1379,-3.4346,-3.6672,-3.843,-3.9706,-3.9977,-4.0113,-4.0146,-4.0865,-4.0629,-3.9445,-3.6671,-3.4561,-3.2849,-3.0047,-2.8561,0.0,0.0,0.0,0.0,0.0,0.0,0.0,0.0,0.0,0.0,0.0,0.0,0.0,0.0,0.0,0.0,0.0,0.0,0.0,0.0,0.0,0.0,0.0,0.0,0.0,0.0,0.0,0.0,0.0,0.0,0.0,0.0,0.0,0.0,0.0,0.0,0.0,-3.872,-4.1806,0.0,-4.0059,-4.0162,-4.0783,-4.1683,-4.3299,-4.4766,-4.5894,-4.657,-4.768,-4.9211,-4.9603,-5.0213,-5.1132,-5.1658,-5.1049,-4.9311,-4.9611,-4.9099,-4.7936,-4.7936,-4.738,-4.634,-4.634,-4.5518,-4.4045,-4.2489,-4.1136,-3.9918,-3.8879,-3.8594,-3.8625,-3.7723,-3.7973,-3.8704,0.0,-2.1006,0.0,-2.1006,-2.099,-2.1006,-2.1038,-2.0886,-2.0808,-2.0796,-2.3439,-2.5815,-2.7029,-3.1409,-3.4134,-3.3773,-3.3835,-3.255,-2.9338,-2.6638,-2.4759,-2.3855,-2.3647,-2.4749,-2.7253,-3.0766,-3.3617,-3.5768,-3.8207,-3.9639,-4.0113,-4.0113,-4.0113,-4.0146,-4.1136,-4.1441,-4.1136,-4.0189,-3.7865,-3.4675,-3.2114,-3.0735,-2.9954,0.0,0.0,0.0,0.0,0.0,0.0,0.0,0.0,0.0,0.0,0.0,0.0,0.0,0.0,0.0,0.0,0.0,0.0,0.0,0.0,0.0,0.0,0.0,0.0,0.0,0.0,0.0,0.0,0.0,0.0,0.0,0.0,0.0,0.0,0.0,-4.1758,-4.3192,-4.5755,-4.6616,-4.4559,-4.4783,-4.548,-4.6543,-4.7451,-4.8508,-4.9756,-5.0068,-5.0438,-5.1052,-5.1527,-5.1815,-5.201,-5.2322,-5.1592,-4.9781,-4.9845,-4.9258,-4.8123,-4.8123,-4.7626,-4.6786,-4.6549,-4.5872,-4.4891,-4.4147,-4.3234,-4.2252,-4.1238,-4.0696,-4.0417,-3.9918,-3.9884,-4.0087,-2.0443,-2.0647,-2.0845,-2.0794,-2.0778,-2.0811,-2.0877,-2.0737,-2.0719,-2.0926,-2.3847,-2.6793,-2.9111,-3.3134,-3.6242,-3.7706,-3.4745,-3.1895,-2.9847,-2.5796,-2.3308,-2.2833,-2.5512,-2.7921,-2.9828,-3.3384,-3.6132,-3.799,-3.9377,-4.0113,-4.0113,-4.0113,-4.0146,-4.0214,-4.1704,-4.1948,-4.1373,-4.2801,-4.1407,-3.7922,-3.5766,-3.4569,-3.3869,0.0,0.0,0.0,0.0,0.0,0.0,0.0,0.0,0.0,0.0,0.0,0.0,0.0,0.0,0.0,0.0,0.0,0.0,0.0,0.0,0.0,0.0,0.0,0.0,0.0,0.0,0.0,0.0,0.0,0.0,0.0,0.0,0.0,-3.7808,-4.1276,-4.4606,-4.7224,-4.9578,-5.0126,-4.8037,-4.9715,-5.0748,-5.0214,-5.1365,-5.2171,-5.2343,-5.2998,-5.2705,-5.1327,-5.2533,-5.2846,-5.2136,-5.1494,-5.0809,-5.0014,-4.8627,-4.7594,-4.6853,-4.6853,-4.6853,-4.6786,-4.6041,-4.5737,-4.5635,-4.4919,-4.4615,-4.4445,-4.2929,-4.1914,-4.1305,-4.1271,-4.0764,-4.0146,-2.022,-2.022,-2.0272,-2.0344,-2.0361,-2.0462,-2.0794,-2.1021,-2.0962,-2.041,-2.478,-2.8208,-2.8771,-3.3395,-3.6417,-3.6257,-3.3896,-3.1746,-3.0114,-2.6182,-2.4249,-2.5001,-2.6624,-2.9445,-3.3584,-3.5038,-3.7008,-3.9503,-3.991,-4.0113,-4.0113,-4.0629,-4.0899,-4.0967,-4.2455,-4.297,-4.2834,-4.3842,-4.3673,-4.2448,-3.858,-3.6684,-3.5882,0.0,0.0,0.0,0.0,0.0,0.0,0.0,0.0,0.0,0.0,0.0,0.0,0.0,0.0,0.0,0.0,0.0,0.0,0.0,0.0,0.0,0.0,0.0,0.0,0.0,0.0,0.0,0.0,0.0,0.0,0.0,-3.952,-4.1486,-4.2413,-4.4869,-4.7621,-5.0395,-5.2826,-5.3806,-5.2636,-5.3601,-5.4209,-5.4063,-5.4399,-5.4894,-5.5509,-5.4613,-5.3925,-5.3543,-5.3299,-5.3113,-5.2893,-5.2702,-5.2017,-5.0793,-5.0435,-4.9595,-4.8409,-4.8409,-4.8105,-4.7564,-4.6819,-4.6177,-4.5635,-4.4919,-4.4615,-4.4513,-4.3504,-4.3335,-4.3532,-4.2388,-4.1542,-4.0832,-1.9839,-1.9904,-2.0028,-2.0189,-2.0206,-2.0344,-2.0745,-2.1103,-2.0972,-1.997,-2.5041,-2.8438,-2.7591,-3.2554,-3.5316,-3.3737,-3.2873,-3.1126,-2.8181,-2.6202,-2.5782,-2.7145,-2.9324,-3.2219,-3.5776,-3.6779,-3.8185,-4.0113,-4.0113,-4.0282,-4.0561,-4.1001,-4.1373,-4.1711,-4.2868,-4.3375,-4.3477,-4.4587,-4.506,-4.4823,-4.2219,-4.0654,-3.9559,-3.6899,-3.6041,-3.6075,-3.4458,-3.4644,-3.5276,-3.2857,0.0,0.0,0.0,0.0,0.0,0.0,0.0,0.0,0.0,0.0,0.0,0.0,0.0,0.0,0.0,0.0,0.0,0.0,0.0,0.0,0.0,0.0,0.0,0.0,-4.335,-4.6097,-4.8214,-4.9205,-5.0777,-5.3653,-5.5244,-5.6051,-5.5904,-5.6308,-5.6602,-5.6602,-5.6337,-5.62,-5.6305,-5.5163,-5.4174,-5.3566,-5.3074,-5.2687,-5.2388,-5.2029,-5.1444,-5.0635,-5.0369,-4.978,-4.9018,-4.9018,-4.8781,0.0,-4.7597,-4.7022,-4.6549,-4.55,-4.506,0.0,0.0,0.0,0.0,0.0,-4.2016,-4.1542,-1.9406,-1.9654,-1.9922,-2.0067,-2.0089,-2.0292,-2.0678,-2.0894,-2.0671,-1.964,-2.4569,-2.7547,-2.5839,-3.0727,-3.3158,-3.0753,-3.1285,-2.9877,-2.5475,-2.6118,-2.7519,-2.9416,-3.278,-3.5385,-3.7032,-3.8396,-3.9436,-4.0113,-4.018,-4.0561,-4.1204,-4.1373,-4.1813,-4.2455,-4.32,-4.3578,-4.3747,-4.5128,-4.5805,-4.5974,-4.5974,-4.5134,-4.3659,-4.152,-4.0417,-3.9924,-3.9009,-3.7682,-3.6255,-3.5633,0.0,0.0,0.0,0.0,0.0,0.0,0.0,0.0,0.0,0.0,0.0,0.0,0.0,0.0,0.0,0.0,0.0,0.0,0.0,0.0,0.0,0.0,0.0,0.0,-4.7151,-4.9991,-5.4107,-5.3658,-5.3908,-5.6497,-5.6895,-5.7226,-5.7923,-5.7997,-5.7997,-5.7997,-5.7401,-5.6695,-5.5893,0.0,0.0,0.0,0.0,-5.2138,-5.1581,-5.078,-5.0369,-5.0389,-4.9706,-4.928,-4.912,-4.912,-4.9086,-4.8951,-4.824,-4.7906,-4.777,-4.6413,-4.5771,-4.5635,-4.4886,-4.4147,-4.3409,-4.2591,-4.2354,-4.2286,-1.9288,-1.9232,-1.9288,-1.9325,-1.957,-1.9909,-2.0275,-2.0174,-1.9925,-1.9561,-2.2752,-2.4684,-2.359,-2.7327,-2.9643,-2.9006,-2.7867,-2.6891,-2.625,-2.6403,-2.8324,-3.2374,-3.4349,-3.64,-3.8531,-3.9436,-3.9977,-4.0113,-4.0696,-4.1068,-4.1238,-4.2422,-4.3037,-4.3234,-4.4012,-4.4688,-4.5263,-4.5568,-4.6413,-4.7466,-4.7466,-4.6273,-4.4332,-4.322,-4.2773,-4.2392,-4.0493,-4.1816,-4.381,-3.915,-3.848,-3.9037,-3.581,-3.2647,0.0,0.0,0.0,0.0,0.0,0.0,0.0,0.0,0.0,0.0,0.0,0.0,0.0,0.0,0.0,0.0,0.0,0.0,0.0,-4.8173,-5.1208,-5.3888,-5.6029,-5.6658,-5.6855,-5.6799,-5.7373,-5.7813,-5.796,-5.7997,-5.7997,-5.7997,-5.7881,-5.7449,-5.6695,-5.5927,-5.5035,-5.4109,-5.3389,-5.3289,-5.3852,-5.3028,-5.264,-5.2745,0.0,0.0,-4.9864,-4.9864,-4.956,-4.8951,-4.824,-4.7906,-4.7804,-4.6955,-4.6244,-4.5635,-4.4886,-4.4513,-4.4181,-4.2794,-4.2692,-4.2929,-1.9617,-1.9398,-1.9232,-1.912,-1.9269,-1.9515,-1.9892,-1.998,-1.9854,-1.9415,-2.199,-2.3498,-2.2644,-2.5197,-2.6604,-2.576,-2.4748,-2.5251,-2.794,-2.859,-3.0707,-3.4912,-3.6502,-3.8024,-3.9537,-3.991,-4.0113,-4.0113,-4.0485,-4.0832,-4.1238,-4.1948,-4.2665,-4.3409,-4.3809,-4.4418,-4.5196,-4.594,-4.6684,-4.7428,-4.8173,-4.7361,-4.5635,-4.5263,-4.5094,-4.4857,-4.2997,-4.3775,-4.519,-4.191,-4.1053,-4.0917,-3.8387,-3.5839,-3.3494,0.0,0.0,0.0,0.0,0.0,0.0,0.0,0.0,0.0,0.0,0.0,0.0,0.0,0.0,-3.9965,-4.2179,0.0,-4.8033,-5.1092,-5.3851,-5.6014,-5.7226,-5.774,-5.785,-5.7446,-5.7776,-5.7997,-5.7997,-5.7997,-5.7997,-5.7997,-5.7997,-5.7679,-5.6938,-5.6142,-5.5352,-5.4554,-5.3369,-5.2984,-5.3369,-5.2599,-5.2253,-5.229,-5.1932,-5.1361,-5.0642,-5.0642,-5.0236,-4.9526,-4.9154,-4.8815,-4.8409,-4.7665,-4.6921,-4.6177,-4.5432,-4.4925,-4.4513,-4.3735,-4.3673,-4.3741,-2.0237,-1.9892,-1.9551,-1.9269,-1.9288,-1.9406,-1.9762,-1.998,-1.9986,-1.9534,-2.1383,-2.2449,-2.1738,-2.306,-2.357,-2.2361,-2.2443,-2.4593,-2.9368,-3.065,-3.3014,-3.7066,-3.8522,-3.9503,-4.0079,-3.9952,-3.9876,-3.9876,-4.0179,-4.0617,-4.1197,-4.1659,-4.2489,-4.3639,-4.3639,-4.4079,-4.4919,-4.621,-4.6786,-4.6921,-4.824,-4.8003,-4.6786,-4.6616,-4.6583,-4.6413,-4.5089,-4.4513,-4.4248,-4.347,-4.232,-4.1035,-3.9952,-3.8618,-3.6911,-3.4397,-3.3771,0.0,0.0,0.0,0.0,0.0,0.0,0.0,0.0,0.0,-3.8067,-3.9721,-4.1281,-4.3123,-4.5736,-4.8389,-5.1108,-5.3927,-5.5875,-5.7299,-5.8107,-5.8107,-5.7997,-5.7997,-5.7997,-5.7997,-5.7997,-5.7997,-5.7997,-5.7997,-5.7997,-5.7594,-5.6721,-5.6031,-5.5291,-5.4388,-5.316,-5.2563,-5.2765,-5.1985,-5.1713,-5.1881,-5.1722,-5.1589,-5.1388,-5.1388,-5.0947,-5.0067,-4.9932,-4.956,-4.8951,-4.8376,-4.7699,-4.6955,-4.638,-4.5669,-4.4987,-4.4547,-4.4479,-4.4378,-2.0991,-2.0665,-2.0296,-1.9714,-1.9874,-2.0102,-2.0154,-2.003,-2.0099,-2.0488,-2.0219,-1.9918,-1.966,-1.9776,-1.9888,-1.9951,-2.1952,-2.4989,-2.9238,-3.0613,-3.3517,-3.8541,-3.9537,-4.0011,-4.0113,-3.9394,-3.9016,-3.9016,-4.0426,-4.112,-4.1248,-4.3261,-4.431,-4.4479,-4.4479,-4.4857,-4.5635,-4.6447,-4.6786,-4.6853,-4.7699,-4.753,-4.6718,-4.6075,-4.5838,-4.5737,-4.4886,-4.4147,-4.3436,-4.2658,-4.188,-4.1305,-4.1779,-4.0485,-3.8516,-3.7202,-3.5476,-3.3874,-3.3298,-3.3628,-3.4549,-3.6241,-3.6315,-3.7065,0.0,0.0,-4.25,-4.4489,-4.6094,-4.7814,-5.0091,-5.1899,-5.4041,-5.7008,-5.7717,-5.8143,-5.8927,-5.8437,-5.7997,-5.7997,-5.7997,-5.7997,-5.7997,-5.7997,-5.7997,-5.7997,-5.7997,-5.7364,-5.592,-5.5752,-5.5059,-5.3685,-5.3418,-5.3625,-5.4344,-5.3556,-5.3521,-5.4205,-5.3544,-5.2875,-5.2198,-5.2198,-5.142,-5.0067,-4.939,-4.9086,-4.8984,-4.8917,-4.8443,-4.777,-4.7669,-4.7192,-4.6312,-4.4282,-4.3978,-4.4378,-2.0387,-2.05,-2.0596,-2.0162,-2.0031,-1.998,-1.998,-2.013,-2.0333,-2.0549,-2.046,-2.0445,-2.0621,-2.0581,-2.0477,-2.0319,-2.1774,-2.4454,-2.854,-3.0185,-3.3003,-3.7525,-3.8384,-3.8778,-3.8778,-3.8414,-3.8246,-3.8246,-3.9795,-4.0545,-4.0606,-4.2427,-4.347,-4.391,-4.391,-4.4316,-4.5094,-4.5838,-4.6413,-4.6819,-4.7124,-4.709,-4.665,-4.55,-4.4248,-4.2997,-4.2279,-4.1858,0.0,-4.068,-4.0502,-4.0858,-4.1941,-4.1172,-3.9486,-3.7808,-3.6681,-3.5931,-3.5649,-3.5808,-3.64,-3.79,-3.935,-4.1036,-4.3532,-4.4603,-4.5546,-4.7259,-4.8815,-5.0526,-5.2772,-5.4461,-5.6206,0.0,-5.9098,-5.9355,-5.9221,-5.851,-5.7629,-5.6712,-5.6602,-5.6969,-5.7923,-5.7997,-5.7997,-5.7997,-5.7997,-5.7726,-5.708,-5.6196,-5.5408,-5.4787,-5.3925,-5.3639,-5.3979,-5.3639,-5.3639,-5.3979,-5.3651,-5.3315,-5.301,-5.301,-5.2164,-5.0676,-4.9526,-4.9018,-4.9018,-4.9018,-4.8815,-4.8511,-4.8041,-4.7733,-4.7225,-4.5432,-4.4959,-4.5026,-2.0329,-2.0592,-2.0833,-2.0643,-2.0273,-2.0028,-2.0141,-2.0276,-2.0382,-2.0382,-2.0384,-2.0432,-2.0638,-2.0784,-2.0726,-2.0377,-2.1506,-2.3774,-2.7508,-2.9538,-3.2312,-3.6075,-3.7078,-3.7598,-3.7793,-3.7557,-3.7469,-3.7469,-3.8987,-3.9874,-4.0127,-4.1814,-4.2997,-4.3741,-4.3741,-4.4045,-4.4649,-4.5399,-4.5771,-4.5872,-4.6109,-4.594,-4.5399,-4.391,-4.2083,-4.0223,-3.9681,-3.9069,-3.8384,-3.7793,-3.7817,-3.8465,-4.0118,-4.0124,-3.9234,-3.7597,-3.6995,-3.6857,-3.6685,-3.7396,-3.8459,-3.9685,-4.2178,-4.4621,-4.5568,-4.6955,-4.8376,-4.9661,-5.0947,-5.2375,-5.4232,-5.5681,-5.7152,-5.892,-5.9685,-5.9942,-5.9588,-5.8474,-5.7152,-5.578,-5.5207,-5.5464,-5.6859,-5.7409,-5.7776,-5.796,-5.7997,-5.7821,-5.7389,-5.6304,-5.5524,-5.5119,-5.4076,-5.3518,-5.3518,-5.3518,-5.3518,-5.3518,-5.3518,-5.3518,-5.3484,-5.3078,-5.2266,-5.115,-4.9661,-4.9018,-4.9018,-4.9018,-4.9018,-4.8951,-4.8409,-4.8176,-4.8041,-4.6786,-4.6075,-4.55,-2.1509,-2.1306,-2.1196,-2.1183,-2.0802,-2.0619,-2.0991,-2.0526,-2.0105,-2.0105,-1.9499,-1.888,-1.8346,-1.8868,-1.9267,-1.9236,-2.0941,-2.3243,-2.6174,-2.8704,-3.1547,-3.4716,-3.614,-3.7142,-3.779,-3.7024,-3.663,-3.663,-3.8197,-3.9285,-4.0049,-4.2327,-4.3809,-4.4581,-4.4581,-4.4581,-4.4649,-4.5399,-4.4857,-4.3544,-4.435,-4.3768,-4.2286,-4.0798,-3.9285,-3.8024,-3.799,-3.6096,-3.3634,-3.3884,-3.3447,-3.3256,-3.5696,-3.6887,-3.7278,-3.6762,-3.6122,-3.5531,-3.5471,-3.7828,-4.0675,-4.2099,-4.4591,-4.709,-4.8545,-5.0033,-5.1285,-5.2063,-5.2875,-5.3673,-5.4387,-5.5164,-5.6509,-5.8811,-5.9221,-5.9478,-6.0272,-5.8327,-5.6528,-5.5684,-5.4216,-5.3592,0.0,-5.5941,-5.7152,-5.7923,-5.7997,-5.734,-5.5865,-5.5752,-5.5059,-5.3618,-5.3517,-5.3518,-5.3518,-5.3518,-5.3518,-5.3518,-5.3518,-5.3518,-5.345,-5.1961,-5.1219,-5.115,-4.9661,-4.9018,-4.9018,-4.9018,-4.9018,-4.9018,-4.8984,-4.8984,-4.8883,-4.8139,-4.6925,-4.5602,-2.0417,-2.1092,-2.1594,-2.1196,-2.1406,-2.1539,-2.1261,-2.1052,-2.0891,-2.0828,-2.0416,0.0,0.0,0.0,0.0,0.0,-2.0531,-2.1996,-2.4284,-2.5954,-2.8054,-3.0691,-3.2413,-3.3805,-3.494,-3.5125,-3.5425,-3.5878,-3.7375,-3.849,-3.9317,-4.1087,-4.2356,-4.3064,-4.3064,-4.3335,-4.3809,-4.3538,-4.3741,-4.4079,-4.2828,-4.232,-4.2008,-3.9151,-3.7126,-3.5574,0.0,-3.2196,-3.1244,-3.0768,-3.1339,-3.2551,-3.4293,-3.5194,-3.5595,-3.5829,-3.6032,-3.6624,-3.8849,-4.1339,-4.3776,-4.5648,-4.7932,-4.9999,-5.098,-5.1995,-5.2672,-5.2367,-5.1481,-5.0792,-5.1115,-5.2174,-5.358,-5.5514,-5.7721,-5.9294,-5.9551,-5.8437,-5.6712,-5.4289,-5.3995,0.0,0.0,0.0,0.0,-5.7116,-5.7189,-5.6999,-5.6527,-5.5976,-5.5232,-5.4264,-5.375,-5.3518,-5.3518,-5.3518,-5.3518,-5.3518,-5.3518,-5.3518,-5.345,-5.1928,-5.1185,-5.115,-4.9661,-4.9018,-4.9018,-4.9018,-4.9018,-4.9018,-4.9018,-4.9018,-4.8917,-4.8142,-4.7293,-4.6312,0.0,-2.0635,-2.1464,-2.1068,-2.1306,0.0,0.0,0.0,0.0,0.0,0.0,0.0,0.0,0.0,0.0,0.0,0.0,-2.116,-2.2501,-2.404,-2.5757,-2.7678,-2.9203,-3.0687,-3.2282,-3.2405,-3.2796,-3.3517,-3.4631,-3.5823,-3.707,-3.8363,-3.9721,-4.1102,-4.1102,-4.1542,-4.2192,-4.1711,-4.1636,-4.1704,-4.029,-3.9534,-3.8924,-3.6193,-3.4343,0.0,-3.0422,-2.9382,-2.9127,-2.8596,-2.9437,-3.0959,-3.2685,-3.43,-3.5565,-3.5799,-3.7032,-3.8963,-4.2236,-4.4667,-4.6796,-4.8948,-5.0777,-5.2164,-5.2638,-5.2909,-5.2773,-5.1725,-5.0119,-4.8763,-4.8303,-4.8891,-5.0282,-5.2775,-5.5111,-5.7152,-5.8584,-5.7813,-5.6381,-5.4289,-5.3995,-5.3665,0.0,0.0,0.0,-5.6675,-5.7336,-5.7413,-5.6931,-5.6403,-5.5683,-5.4645,-5.3886,-5.3518,-5.3518,-5.3518,-5.3518,-5.3518,-5.3518,-5.3518,-5.345,-5.1928,-5.1185,-5.115,-4.9661,-4.9018,-4.9018,-4.9018,-4.9018,-4.9018,-4.9018,-4.9018,-4.8951,-4.8477,-4.7834,-4.7056,0.0,0.0,-2.0879,0.0,0.0,0.0,0.0,0.0,0.0,0.0,0.0,0.0,0.0,0.0,0.0,0.0,0.0,0.0,-2.1063,-2.3018,-2.4652,-2.5743,-2.6618,-2.8003,-2.9955,-2.9234,-2.9161,-2.9853,-3.0418,-3.171,-3.3623,-3.4397,-3.6191,-3.8725,-3.8725,-3.9165,-3.9817,-3.9799,-3.858,-3.6706,-3.6853,-3.5587,-3.3516,-3.2211,-3.1232,-3.0333,-2.8665,-2.7687,-2.7263,-2.7411,-2.7888,-2.8818,-3.119,-3.434,-3.7075,-3.6887,-3.9181,-4.2432,-4.5437,-4.7747,-4.9796,-5.1894,-5.2976,-5.3518,-5.3416,-5.2773,-5.1725,-5.0135,-4.8757,-4.7358,0.0,0.0,-4.6713,-5.0591,-5.1736,-5.3518,-5.7483,-5.6748,-5.5757,0.0,0.0,0.0,0.0,0.0,0.0,-5.6822,0.0,-5.8514,-5.7021,-5.6921,-5.6208,-5.4635,-5.389,-5.3518,-5.3518,-5.3518,-5.3518,-5.3518,-5.3518,-5.3518,-5.345,-5.1928,-5.1185,-5.115,-4.9661,-4.9018,-4.9018,-4.9018,-4.9018,-4.9018,-4.9018,-4.9018,-4.9018,-4.8951,-4.8477,-4.7635,0.0,0.0,0.0,0.0,0.0,0.0,0.0,0.0,0.0,0.0,0.0,0.0,0.0,0.0,0.0,0.0,0.0,0.0,-2.1802,-2.2218,-2.3017,-2.4262,-2.5115,-2.6085,-2.7264,-2.8318,-2.9026,-2.9363,-3.0258,-3.1243,-3.2297,-3.2863,-3.3807,-3.5061,-3.5156,-3.5608,-3.6271,-3.5775,-3.5543,-3.5462,-3.445,-3.3716,-3.2976,-3.1029,-3.0194,-2.9795,-2.822,-2.7561,-2.7546,-2.8323,-3.0361,-3.291,-3.4765,-3.6741,-3.8716,-4.0508,-4.3234,-4.6266,-4.9107,-5.1486,-5.3315,-5.3856,-5.416,-5.3856,-5.2198,-5.1217,-4.9763,-4.6646,-4.4177,-4.1984,0.0,0.0,0.0,-4.7108,-5.1061,0.0,-5.8437,-5.8547,0.0,-5.7446,0.0,-5.7276,-5.6271,-5.6748,0.0,0.0,-5.84,-5.8151,-5.78,-5.724,-5.6208,-5.4635,-5.389,-5.3518,-5.3518,-5.3518,-5.3518,-5.3518,-5.3518,-5.3518,-5.345,-5.1928,-5.1185,-5.115,-4.9661,-4.9018,-4.9018,-4.9018,-4.9018,-4.9018,-4.9018,-4.9018,-4.8951,-4.8376,-4.7733,-4.7022,0.0,0.0,0.0,0.0,0.0,0.0,0.0,0.0,0.0,0.0,0.0,0.0,0.0,0.0,0.0,0.0,0.0,0.0,0.0,-2.2384,-2.2954,-2.3941,-2.4217,-2.4759,-2.561,-2.6189,-2.6681,-2.7157,-2.7682,-2.8491,-2.9599,-2.9995,-3.0836,-3.2128,-3.2271,-3.2725,-3.3391,-3.3117,-3.2884,0.0,0.0,-3.1255,-3.0558,-2.9444,-2.8985,-2.8833,-2.7855,-2.8463,-2.9988,-3.1587,-3.3942,-3.6437,-3.7845,-4.0043,-4.26,-4.4858,-4.7359,-5.0088,-5.328,-5.4837,-5.5547,-5.5547,-5.4837,-5.3382,-5.05,-4.907,-4.7165,-4.3231,-4.0528,-3.8331,-3.6625,-3.7908,-4.0399,0.0,0.0,0.0,-5.6988,-5.7996,-5.8422,0.0,-5.9465,0.0,-5.8474,-5.8804,-5.9391,0.0,-5.9501,-5.8914,-5.858,-5.7877,-5.6733,-5.5143,-5.4059,-5.3518,-5.3518,-5.3518,-5.3518,-5.3518,-5.3518,-5.3518,-5.345,-5.2232,-5.1522,-5.115,0.0,-4.9289,-4.9018,-4.9018,-4.9018,-4.9018,-4.9018,-4.9018,-4.8951,-4.8545,-4.7936,-4.7259,0.0,0.0,0.0,0.0,0.0,0.0,0.0,0.0,0.0,0.0,-2.2082,-2.1907,0.0,0.0,0.0,0.0,0.0,0.0,0.0,0.0,-2.3715,-2.4238,-2.3872,-2.4005,-2.4657,-2.4006,-2.39,-2.446,-2.4552,-2.5286,-2.667,-2.686,-2.7911,-2.9634,-2.9748,-3.0162,-3.0832,-3.1052,-3.0403,-2.9229,-2.9494,-2.8782,-2.7686,0.0,-2.7882,-2.7859,-2.7757,-2.9713,-3.2804,-3.5551,-3.7776,-3.957,-4.0852,-4.3844,-4.7271,-4.9415,-5.1378,-5.3653,-5.7103,-5.7577,-5.7036,-5.6867,-5.5074,-5.2399,-4.8749,-4.6595,-4.4156,-3.9753,-3.7361,-3.5758,-3.4731,-3.4723,-3.6552,-4.1713,0.0,-4.7951,-5.5083,-5.6649,-5.8,-6.0604,-6.0786,-6.075,-6.0896,-6.0579,-6.0713,-6.1544,-6.0749,-5.9977,-5.9365,-5.8602,-5.7342,-5.5616,-5.4228,-5.3518,-5.3518,-5.3518,-5.3518,-5.3518,-5.3518,-5.3518,-5.3484,-5.2672,-5.1894,-5.1183,-5.0405,0.0,-4.9018,-4.9018,-4.9018,-4.9018,-4.9018,-4.9018,-4.8984,-4.8883,-4.8409,-4.7665,0.0,0.0,0.0,0.0,0.0,0.0,0.0,0.0,0.0,-2.2835,-2.1973,-2.144,0.0,0.0,0.0,0.0,0.0,0.0,0.0,0.0,0.0,-2.4402,-2.458,-2.4475,-2.4062,-2.4604,-2.4697,-2.427,-2.5059,-2.5602,-2.5882,-2.6034,-2.6527,-2.73,-2.7198,-2.7369,-2.7775,-2.8169,-2.7916,-2.7315,-2.7669,-2.7685,-2.7457,-2.7426,0.0,0.0,-2.8473,-2.9738,-3.1892,-3.6474,-3.9655,-4.2166,-4.484,-4.7446,-5.002,-5.2873,-5.4804,-5.6427,-5.8321,-5.8727,-5.8355,-5.7103,-5.4634,-5.1451,-4.7321,-4.4238,0.0,-3.5998,-3.4273,-3.319,-3.1439,-3.3677,-3.7228,-4.1648,-4.5141,-4.9792,-5.6794,-5.7882,-5.9346,0.0,-6.2842,-6.2658,-6.3392,-6.16,0.0,0.0,0.0,-5.9639,-6.0149,-5.8825,-5.7045,-5.4838,-5.3957,-5.3518,-5.3518,-5.3518,-5.3518,-5.3518,-5.3518,-5.3518,-5.3484,-5.2672,-5.1894,-5.1183,-5.0405,0.0,-4.9018,-4.9018,-4.9018,-4.9018,-4.9018,-4.9018,-4.8951,-4.8342,-4.7631,-4.6955,0.0,0.0,0.0,0.0,0.0,0.0,-2.0736,-2.1463,-2.199,-2.1908,-2.2389,-2.2729,-2.2581,-2.2876,-2.2945,0.0,0.0,0.0,0.0,0.0,0.0,-2.5225,-2.5417,-2.5379,-2.5163,-2.5458,-2.5399,-2.4945,0.0,-2.5738,-2.5826,-2.5994,-2.6175,-2.6435,-2.6539,-2.6624,-2.6657,-2.7085,-2.7069,-2.6724,-2.6987,-2.7115,-2.7144,-2.7272,0.0,0.0,-2.8629,-3.0013,-3.2035,-3.5641,-3.9099,-4.2649,-4.7086,-5.0067,-5.2367,-5.4972,-5.6528,-5.778,-5.9674,-6.0216,-5.9742,-5.7848,-5.4803,-5.0839,-4.5111,0.0,0.0,-3.3074,-3.1725,-3.1237,-3.0248,-3.216,0.0,-3.8551,-4.1511,-4.6055,-5.3728,-5.5071,-5.7289,-6.2778,-6.3062,-6.3135,0.0,-6.261,0.0,0.0,0.0,-5.9792,-5.9701,-5.7872,-5.5928,-5.4059,-5.3687,-5.3518,-5.3518,-5.3518,-5.3518,-5.3518,-5.3518,-5.3518,-5.3484,-5.3112,-5.23,-5.1151,-5.0845,0.0,-4.9018,-4.9018,-4.9018,-4.9018,-4.9018,-4.9018,-4.8951,-4.8612,-4.8003,-4.7361,0.0,0.0,0.0,0.0,0.0,0.0,-2.0589,-2.1429,-2.1955,-2.1814,-2.3285,-2.4051,-2.3133,-2.324,-2.3019,0.0,0.0,0.0,0.0,0.0,0.0,0.0,0.0,0.0,-2.6269,0.0,0.0,0.0,-2.5852,0.0,0.0,0.0,0.0,0.0,-2.6279,-2.6279,-2.619,-2.659,-2.659,0.0,0.0,-2.6708,0.0,0.0,0.0,0.0,0.0,-3.0325,-3.2177,-3.4588,-3.7701,-4.146,-4.6253,-4.9994,-5.3043,-5.5175,-5.6733,-5.8225,-6.0419,-6.1028,-6.0486,-5.822,-5.4499,-4.9619,-4.3065,-3.9478,-3.6077,-3.092,-2.9843,-2.9779,-2.9582,-3.0751,-3.2708,0.0,-3.774,-4.2029,-5.0316,-5.2151,-5.5256,0.0,-6.3099,0.0,-6.4494,0.0,0.0,0.0,0.0,0.0,-5.8909,-5.6814,-5.5175,-5.4025,-5.3653,-5.3518,-5.3518,-5.3518,-5.3518,-5.3518,-5.3518,-5.3518,-5.3484,-5.3315,-5.2503,-5.1217,-5.1048,0.0,0.0,-4.9018,-4.9018,-4.9018,-4.9018,-4.9018,-4.9018,-4.9018,-4.8545,-4.7872,0.0,0.0,0.0,0.0,0.0,0.0,-2.0258,-2.1325,-2.2728,-2.4717,-2.4809,-2.4176,-2.2972,-2.3632,-2.389,0.0,0.0,0.0,0.0,0.0,0.0,0.0,0.0,0.0,0.0,0.0,0.0,-2.6674,0.0,0.0,0.0,0.0,0.0,0.0,0.0,0.0,-2.5775,-2.5855,0.0,0.0,0.0,0.0,0.0,0.0,0.0,0.0,0.0,-3.0529,-3.1706,-3.4472,-3.6416,-3.7979,-3.9661,-4.4586,-5.0172,-5.2128,-5.4873,-5.7698,-5.9682,-6.0216,-5.9674,-5.7442,-5.257,-4.6975,-4.1928,0.0,-3.3371,-2.9747,-2.9,-2.8938,-2.873,-2.9968,-3.1912,-3.474,-3.7106,-4.1418,-4.9579,-5.1954,-5.5624,-6.3108,0.0,0.0,-6.6109,0.0,0.0,0.0,0.0,0.0,-5.8029,-5.653,-5.5649,-5.5513,-5.4194,-5.3518,-5.3518,-5.3518,-5.3518,-5.3518,-5.3518,-5.3518,-5.3484,-5.2739,-5.1961,-5.1151,-5.0473,0.0,0.0,-4.9018,-4.9018,-4.9018,-4.9018,-4.9018,-4.9018,-4.9018,-4.8545,-4.7804,0.0,0.0,0.0,0.0,0.0,0.0,-2.0856,-2.1951,-2.3063,-2.4226,-2.504,-2.503,-2.3891,-2.386,-2.3119,-2.1138,-2.1108,0.0,0.0,0.0,0.0,0.0,0.0,0.0,0.0,0.0,-2.6412,-2.6492,-2.6735,0.0,0.0,0.0,0.0,0.0,0.0,0.0,0.0,-2.5253,0.0,0.0,0.0,0.0,0.0,0.0,0.0,0.0,0.0,0.0,-3.0758,-3.2212,-3.3863,-3.5318,-3.5245,-3.8344,-4.3056,-4.8162,-5.1921,-5.5077,-5.7988,-5.9776,-6.008,-5.6934,-5.2334,-4.7014,-4.1128,-3.6703,-3.272,-2.8834,-2.839,-2.8565,-2.8157,-2.933,-3.0939,-3.2491,-3.3805,-3.698,-4.3756,-4.5823,-4.978,-5.8227,-6.0384,0.0,0.0,0.0,0.0,0.0,0.0,0.0,-5.7345,-5.6258,-5.531,-5.4397,-5.3822,-5.3518,-5.3518,-5.3518,-5.3518,-5.3518,-5.3518,-5.3518,-5.3484,-5.2672,-5.1894,-5.1183,-5.0405,0.0,0.0,-4.9018,-4.9018,-4.9018,-4.9018,-4.9018,-4.9018,-4.9018,-4.8815,-4.8477,0.0,0.0,0.0,0.0,0.0,-1.9935,-2.149,-2.2465,-2.3237,-2.3991,-2.4967,-2.5195,-2.4068,-2.3391,-2.2142,-2.0095,-2.0274,0.0,0.0,0.0,0.0,0.0,0.0,0.0,0.0,0.0,-2.619,-2.6478,-2.6779,-2.6877,0.0,0.0,0.0,0.0,0.0,0.0,0.0,0.0,0.0,0.0,0.0,0.0,0.0,0.0,0.0,0.0,0.0,0.0,0.0,0.0,0.0,-3.3156,-3.2025,-3.3322,-3.6556,-4.3552,-4.8324,-5.2049,-5.538,-5.8084,-5.9133,-5.5581,-5.1182,-4.6123,-3.9963,-3.5544,-3.1754,-2.8153,-2.7882,-2.8154,-2.7717,-2.8794,-2.9983,-3.0756,-3.176,-3.4315,-3.9767,-4.1873,-4.5745,0.0,0.0,0.0,0.0,0.0,0.0,0.0,0.0,0.0,-5.6633,-5.5987,-5.5141,-5.3856,-5.3619,-5.3518,-5.3518,-5.3518,-5.3518,-5.3518,-5.3518,-5.3518,-5.3484,-5.2672,-5.1894,-5.1183,-5.0405,0.0,0.0,-4.9018,-4.9018,-4.9018,-4.9018,-4.9018,-4.9018,-4.9018,-4.9018,-4.8883,0.0,0.0,0.0,0.0,0.0,-1.9596,-2.1956,-2.2535,-2.3246,-2.4793,-2.4834,-2.426,-2.3066,-2.1953,-2.1262,-2.1116,-2.1765,0.0,0.0,0.0,0.0,0.0,0.0,0.0,-2.4694,-2.4669,-2.5367,-2.6881,-2.6627,-2.6813,-2.7396,-2.7197,-2.6891,-2.6471,0.0,0.0,0.0,0.0,0.0,0.0,0.0,0.0,-2.6487,0.0,0.0,0.0,0.0,0.0,0.0,0.0,0.0,0.0,0.0,-2.9952,-3.1735,-3.8265,-4.4062,-4.8941,-5.172,-5.46,-5.6122,-5.3078,-4.8561,-4.3469,-3.8206,-3.3719,-2.9989,-2.7679,-2.7373,-2.7496,-2.7496,-2.8262,-2.9176,-2.9983,-3.183,-3.4754,-3.9268,-4.2139,0.0,0.0,0.0,0.0,0.0,0.0,0.0,0.0,0.0,0.0,-5.5854,-5.5681,-5.5378,-5.46,-5.389,-5.3518,-5.3518,-5.3518,-5.3518,-5.3518,-5.3518,-5.3518,-5.3484,-5.2672,-5.1894,0.0,0.0,0.0,0.0,-4.9018,-4.9018,-4.9018,-4.9018,-4.9018,-4.9018,-4.9018,-4.9018,-4.8883,0.0,0.0,0.0,0.0,0.0,0.0,-2.0974,-2.172,-2.2367,-2.2767,-2.3332,-2.3489,-2.3012,-2.2305,-2.2029,-2.2569,-2.1346,0.0,0.0,0.0,0.0,0.0,0.0,0.0,-2.3862,-2.4884,-2.5941,-2.6987,-2.7932,-2.8441,-2.8489,-2.767,-2.7083,-2.664,-2.5436,0.0,0.0,0.0,0.0,0.0,0.0,-2.6009,-2.6522,0.0,0.0,0.0,0.0,0.0,0.0,0.0,0.0,0.0,0.0,0.0,0.0,-3.3106,-3.7511,-4.2048,-4.4946,-4.7097,-4.7937,-4.5022,-4.1988,-3.8687,-3.4874,-3.1758,-2.9162,-2.7398,-2.7104,-2.7215,-2.7465,-2.8169,-2.9301,-3.1115,-3.2367,-3.414,0.0,0.0,0.0,0.0,0.0,0.0,0.0,0.0,0.0,0.0,0.0,0.0,-5.667,-5.5519,-5.46,-5.3856,-5.3619,-5.3518,-5.3518,-5.3518,-5.3518,-5.3518,-5.3518,-5.3518,-5.3484,-5.2672,-5.1894,0.0,0.0,0.0,0.0,-4.9018,-4.9018,-4.9018,-4.9018,-4.9018,-4.9018,-4.9018,-4.868,-4.8142,0.0,0.0,0.0,0.0,0.0,0.0,-2.0785,-2.1191,-2.1477,-2.1639,-2.2367,-2.2872,-2.2869,-2.2372,-2.2392,-2.3371,-2.1682,0.0,0.0,0.0,0.0,0.0,0.0,0.0,-2.3505,-2.4433,-2.5752,-2.7442,-2.84,-2.9254,-3.0016,-2.8914,-2.7921,-2.7019,-2.5882,-2.5243,0.0,0.0,0.0,0.0,-2.5385,-2.5852,-2.6419,0.0,0.0,0.0,0.0,0.0,0.0,0.0,0.0,0.0,0.0,0.0,0.0,0.0,-3.2238,-3.5176,-3.9278,-4.169,-4.2464,-4.0148,-3.798,-3.5608,-3.2713,-3.0367,-2.8408,-2.7147,-2.6941,-2.7071,-2.7341,-2.8041,-2.9097,-3.0593,-3.2035,-3.369,0.0,0.0,0.0,0.0,0.0,0.0,0.0,0.0,0.0,0.0,0.0,0.0,-5.6604,-5.5281,-5.4262,-5.3518,-5.3518,-5.3518,-5.3518,-5.3518,-5.3518,-5.3518,-5.3518,-5.3348,-5.3044,-5.2536,-5.1758,0.0,0.0,0.0,0.0,-4.9018,-4.9018,-4.9018,-4.9018,-4.9018,-4.9018,-4.9018,-4.8545,-4.7804,0.0,0.0,0.0,0.0,0.0,0.0,-2.0951,-2.0809,-2.0708,-2.1234,-2.1855,-2.2329,-2.2548,-2.2112,-2.2301,-2.3495,-2.2534,0.0,0.0,0.0,0.0,0.0,0.0,-2.3494,-2.3505,-2.3612,-2.5146,-2.8213,-2.8356,-2.9569,-3.176,-3.0718,-2.93,-2.7646,-2.6938,-2.5915,-2.4608,-2.4259,-2.4506,-2.5105,-2.4948,-2.5433,0.0,0.0,0.0,0.0,0.0,0.0,0.0,0.0,0.0,0.0,0.0,0.0,0.0,0.0,0.0,0.0,0.0,-3.7642,-3.8918,-3.7472,-3.5698,-3.3693,-3.1419,-2.9393,0.0,-2.6877,-2.6859,-2.7057,-2.7303,-2.8031,-2.8746,-2.9288,-3.1393,-3.3593,0.0,-3.919,0.0,0.0,0.0,0.0,0.0,0.0,0.0,0.0,0.0,0.0,-5.5823,-5.4939,-5.4194,-5.3518,-5.3518,-5.3518,-5.3518,-5.3518,-5.3518,-5.3518,-5.345,-5.301,-5.23,-5.2266,-5.1454,0.0,0.0,0.0,0.0,-4.9018,-4.9018,-4.9018,-4.9018,-4.8984,-4.8917,-4.8917,-4.8443,-4.7736,0.0,0.0,0.0,0.0,0.0,0.0,0.0,0.0,0.0,0.0,-2.0744,-2.1569,-2.1263,-2.1751,-2.2228,0.0,0.0,0.0,0.0,0.0,0.0,0.0,-2.3247,-2.3319,-2.3494,-2.4647,-2.6216,-2.8213,-3.0011,-3.1474,-3.2596,-3.1734,-3.0659,-2.939,-2.7203,-2.571,-2.4852,-2.5281,-2.5459,-2.5495,-2.5648,-2.5933,0.0,0.0,0.0,0.0,-2.7759,-2.7986,0.0,0.0,0.0,0.0,0.0,0.0,0.0,0.0,-2.7233,-2.7266,-2.8705,0.0,-3.0726,-2.9932,-2.9351,-2.8802,0.0,-2.7606,-2.7146,-2.6775,-2.6725,-2.7198,-2.8697,-2.8693,-2.9659,-3.3343,-3.4278,-3.5325,0.0,0.0,0.0,0.0,0.0,0.0,0.0,0.0,0.0,0.0,0.0,-5.7666,-5.587,-5.4497,-5.3687,-5.3518,-5.3518,-5.3518,-5.3518,-5.3518,-5.3518,-5.3484,-5.2875,-5.2469,-5.2266,-5.1725,-5.098,0.0,0.0,0.0,-4.9018,-4.9018,-4.9018,-4.9018,-4.9018,-4.868,-4.8173,-4.8173,-4.7361,-4.6244,0.0,0.0,0.0,0.0,0.0,0.0,0.0,0.0,0.0,0.0,-2.0369,-2.1083,-2.1074,-2.1635,-2.2037,0.0,0.0,0.0,0.0,0.0,0.0,-2.3342,-2.3354,-2.3401,-2.3505,-2.4682,-2.6443,-2.8748,-3.0441,-3.2061,-3.353,-3.2302,-3.1021,-2.9591,-2.7014,-2.542,-2.473,-2.5654,-2.5757,-2.5371,-2.5804,0.0,0.0,0.0,0.0,0.0,-2.7341,-2.7446,0.0,-2.7522,-2.7522,-2.7552,0.0,0.0,0.0,0.0,-2.6809,-2.6691,-2.6691,-2.7589,-2.8355,-2.7657,-2.7742,-2.7896,-2.7487,-2.7097,-2.6842,-2.6708,-2.7046,-2.7674,-2.8782,-2.9523,-3.0733,0.0,-3.4619,0.0,0.0,0.0,0.0,0.0,0.0,0.0,0.0,0.0,0.0,0.0,0.0,-5.6544,-5.5304,-5.4125,-5.3518,-5.3518,-5.3518,-5.3518,-5.3518,-5.3518,-5.3315,-5.2942,-5.2503,-5.1961,-5.1285,-5.0879,-5.0304,0.0,0.0,0.0,-4.9018,-4.9018,-4.9018,-4.8984,-4.8646,-4.8274,-4.7838,-4.753,-4.6684,-4.5703,0.0,0.0,0.0,0.0,0.0,0.0,0.0,0.0,0.0,0.0,0.0,0.0,0.0,0.0,0.0,0.0,0.0,0.0,0.0,0.0,-2.3762,-2.3684,-2.3756,-2.3874,-2.404,-2.4694,-2.6491,-2.9433,-3.0593,-3.2247,-3.4283,-3.3014,-3.1279,-2.9118,-2.7065,-2.553,-2.4544,-2.5849,-2.5846,-2.511,-2.5712,0.0,0.0,0.0,0.0,0.0,0.0,0.0,0.0,-2.7291,-2.74,-2.7597,-2.7353,0.0,0.0,0.0,0.0,0.0,-2.7046,-2.8351,-2.9348,-2.7994,-2.8318,-2.8693,-2.7877,-2.7233,-2.6809,-2.6927,-2.7606,-2.8339,-2.8972,-3.0715,0.0,0.0,0.0,0.0,0.0,0.0,0.0,0.0,0.0,0.0,0.0,0.0,0.0,0.0,0.0,-5.5396,-5.4499,-5.3721,-5.3315,-5.3315,-5.3213,-5.3145,-5.3145,-5.3281,-5.2976,-5.23,-5.2063,-5.1319,-5.0101,-4.9965,-4.9593,-4.9018,0.0,0.0,-4.8849,-4.8951,-4.8883,-4.8612,-4.8075,-4.7736,-4.7496,-4.6853,-4.6177,-4.5534,0.0,0.0,0.0,0.0,0.0,0.0,0.0,0.0,0.0,0.0,0.0,0.0,0.0,0.0,0.0,0.0,0.0,0.0,0.0,-2.3196,-2.3435,-2.4384,-2.4901,-2.56,-2.6443,-2.6586,-2.7616,-2.9587,-3.1765,-3.3388,-3.4491,-3.494,-3.3039,-2.9183,-2.8891,-2.7242,-2.4857,-2.6449,-2.6397,-2.5313,-2.5925,0.0,0.0,0.0,0.0,0.0,0.0,0.0,0.0,-2.7213,-2.7228,-2.7322,-2.7552,0.0,0.0,0.0,0.0,0.0,-2.8664,-3.0768,-3.1839,-2.8049,-2.7825,-2.8301,-2.7477,-2.7186,-2.7305,-2.7991,-2.8265,-2.9144,-3.1731,-3.2658,-3.4017,0.0,0.0,0.0,0.0,0.0,0.0,0.0,0.0,0.0,0.0,0.0,0.0,0.0,0.0,-5.5189,-5.372,-5.2909,-5.2469,-5.2469,-5.1894,-5.1523,-5.1523,-5.2164,-5.2435,-5.2266,-5.1014,-5.0304,-5.0067,-4.9458,-4.912,-4.9018,0.0,-4.8646,-4.8108,-4.8748,-4.8274,-4.7192,-4.7699,-4.7158,-4.6041,-4.5906,-4.5399,-4.4784,0.0,0.0,0.0,0.0,0.0,0.0,0.0,0.0,0.0,0.0,0.0,0.0,0.0,0.0,0.0,0.0,0.0,0.0,0.0,-2.4226,-2.5036,-2.5725,-2.6898,-2.7392,-2.7014,-2.7835,-2.9168,-3.0901,-3.2829,-3.429,-3.5168,-3.414,-3.1864,-2.8691,-2.813,-2.6641,-2.4642,-2.6041,-2.6037,-2.5115,0.0,0.0,0.0,0.0,0.0,0.0,0.0,0.0,0.0,0.0,-2.6856,-2.7213,-2.7291,0.0,0.0,0.0,0.0,0.0,-2.8066,-2.971,-3.1052,-2.9368,-3.0307,-3.1393,-3.0215,-2.9635,-2.9621,-3.05,-3.0746,-3.137,0.0,0.0,-3.7469,-4.1699,0.0,0.0,0.0,0.0,0.0,0.0,0.0,0.0,0.0,0.0,0.0,0.0,0.0,0.0,-5.2908,-5.2503,-5.2131,-5.1725,-5.1386,-5.1185,-5.1185,-5.115,-5.1116,-5.1082,-5.0405,-4.9898,-4.9492,-4.9154,-4.8781,-4.8409,0.0,-4.8003,-4.7327,-4.7665,-4.7394,-4.6786,-4.6752,-4.6312,-4.5669,-4.5263,-4.4621,-4.4012,0.0,0.0,0.0,0.0,0.0,0.0,0.0,0.0,0.0,0.0,0.0,0.0,0.0,0.0,0.0,0.0,0.0,0.0,0.0,-2.4986,-2.603,-2.6654,-2.8081,-2.8691,-2.8392,-2.939,-3.0778,-3.2556,-3.3908,-3.5083,-3.6001,-3.3589,-3.1275,-2.9088,-2.795,-2.6459,-2.4906,-2.5999,-2.5947,-2.5152,0.0,0.0,0.0,0.0,0.0,0.0,0.0,0.0,0.0,0.0,0.0,0.0,0.0,0.0,0.0,-2.7152,-2.7669,-2.8183,-2.7772,-2.8902,-3.0352,-3.0765,-3.2139,-3.3339,-3.323,-3.2482,-3.2284,-3.3878,-3.4212,-3.4381,0.0,-3.7485,0.0,-4.566,0.0,0.0,0.0,0.0,0.0,0.0,0.0,0.0,0.0,0.0,0.0,0.0,0.0,0.0,-5.2334,-5.1961,-5.1522,-5.098,-5.0777,-5.0678,-5.0678,-5.0135,-4.9932,-5.0101,-4.9898,-4.956,-4.9018,-4.9018,-4.8612,-4.7906,-4.7906,-4.7394,-4.6549,-4.6718,-4.6583,-4.6244,-4.5838,-4.5602,-4.5365,-4.4587,-4.4045,-4.3741,0.0,0.0,0.0,0.0,0.0,0.0,0.0,0.0,0.0,0.0,0.0,0.0,0.0,0.0,0.0,0.0,0.0,0.0,-2.537,-2.4417,-2.4683,-2.6619,-2.7163,-2.8999,-3.2307,-3.1836,-3.2409,-3.4112,-3.4986,-3.5912,-3.6801,-3.5152,-3.3382,-3.1503,-3.0157,-2.8421,-2.6465,-2.7265,-2.6939,-2.5956,-2.6286,0.0,0.0,0.0,0.0,0.0,0.0,0.0,0.0,0.0,0.0,0.0,0.0,0.0,-2.7069,-2.7388,-2.7635,-2.8083,-2.9278,-3.056,-3.1607,-3.1678,-3.0941,-3.1132,-3.4967,-3.4741,-3.4706,-3.8288,-3.8482,-3.8047,0.0,-4.048,-4.3723,0.0,0.0,0.0,0.0,0.0,0.0,0.0,0.0,0.0,0.0,0.0,0.0,0.0,0.0,0.0,-5.23,-5.098,-5.0236,-5.0168,-4.9526,-4.9154,-4.9154,-4.912,-4.9424,-5.0067,-4.939,-4.9052,-4.9018,-4.9018,-4.8612,-4.7906,-4.7906,-4.709,-4.5838,-4.6515,-4.5974,-4.4818,-4.5466,-4.5263,-4.4581,-4.3775,-4.391,-4.4445,0.0,0.0,0.0,0.0,0.0,0.0,0.0,0.0,0.0,0.0,0.0,-2.2286,-2.1422,0.0,0.0,0.0,0.0,0.0,-2.5537,-2.5757,-2.6268,-2.7274,-2.7996,-2.9473,-3.1898,-3.2921,-3.4227,-3.5797,-3.6604,-3.6623,-3.5802,-3.3753,-3.2163,-3.0927,-2.9017,-2.7681,-2.6868,-2.7069,-2.688,-2.6446,-2.6713,-2.6841,0.0,0.0,0.0,0.0,0.0,0.0,0.0,0.0,-2.5874,-2.6048,-2.6671,-2.6646,-2.653,-2.7296,-2.8077,-2.863,-2.841,-3.0318,-3.238,-3.2414,-3.2651,-3.3788,-3.7126,-3.7829,-3.8601,-4.1544,-4.2322,-4.2338,0.0,0.0,-4.6102,0.0,0.0,0.0,0.0,0.0,0.0,0.0,0.0,0.0,0.0,0.0,0.0,0.0,0.0,0.0,0.0,-5.0405,-4.9898,-4.9424,-4.8714,-4.8342,-4.8342,-4.7868,-4.8003,-4.8748,-4.8917,-4.9018,-4.8984,-4.8545,-4.7902,-4.7192,-4.6752,-4.5974,-4.5026,-4.5326,-4.479,-4.3876,-4.4181,-4.4418,-4.4513,-4.3707,-4.3301,-4.3166,0.0,0.0,0.0,0.0,0.0,0.0,0.0,0.0,-2.3349,0.0,0.0,0.0,0.0,-2.1735,0.0,0.0,0.0,0.0,-2.5959,-2.6555,-2.7095,-2.7612,-2.8356,-2.9364,-3.0635,-3.2896,-3.467,-3.584,-3.6756,-3.6506,-3.5116,-3.3097,-3.1804,-3.1077,-2.9062,-2.8263,-2.8358,-2.7685,-2.7409,-2.7379,-2.7234,-2.7069,0.0,0.0,0.0,0.0,0.0,0.0,0.0,0.0,-2.57,-2.5931,-2.6505,-2.6548,-2.6538,-2.7337,-2.8001,-2.8356,-2.7697,-2.926,-3.1317,-3.2132,-3.3223,-3.5284,-3.9749,-4.0699,-4.1546,-4.4658,-4.4811,-4.4507,-4.4974,0.0,0.0,0.0,0.0,0.0,0.0,0.0,0.0,0.0,0.0,0.0,0.0,0.0,0.0,0.0,0.0,0.0,0.0,-4.9661,-4.9187,-4.868,-4.7936,-4.7564,-4.7564,-4.7056,-4.7056,-4.7564,-4.8071,-4.8443,-4.8646,-4.8108,-4.7394,-4.6413,-4.594,-4.5263,-4.4615,-4.4615,-4.4113,-4.3375,-4.3139,-4.3403,-4.3802,-4.2997,-4.2692,-4.2692,0.0,0.0,0.0,0.0,0.0,0.0,0.0,0.0,-2.3544,-2.3427,-2.3416,0.0,0.0,0.0,0.0,0.0,0.0,0.0,-2.6889,-2.6449,-2.653,-2.7461,-2.7996,-2.8491,-2.8961,-3.1643,-3.3367,-3.4015,-3.5076,-3.5411,-3.5029,-3.3703,-3.2879,-3.25,-3.0997,-3.0698,-3.1264,-2.9527,-2.8833,-2.8809,-2.7809,-2.7294,-2.7053,0.0,0.0,0.0,0.0,0.0,0.0,0.0,-2.6012,-2.6522,-2.6674,-2.694,-2.726,-2.7612,-2.7369,-2.7087,-2.7419,-2.7531,-2.8167,-3.0751,-3.2075,-3.4751,-4.278,-4.3202,-4.3178,-4.767,-4.5792,-4.4134,-4.6748,-4.655,0.0,0.0,0.0,0.0,0.0,0.0,0.0,0.0,0.0,0.0,0.0,0.0,0.0,0.0,0.0,0.0,0.0,-4.868,-4.7872,-4.7872,-4.7158,-4.6786,-4.6786,-4.6786,-4.6786,-4.6786,-4.6786,-4.7192,-4.7872,-4.7872,-4.706,-4.5703,-4.5703,-4.5263,-4.4581,-4.4581,-4.4079,-4.3308,-4.2591,-4.2286,-4.2185,-4.1474,-4.2091,-4.3274,0.0,0.0,0.0,0.0,0.0,0.0,0.0,0.0,-2.3519,-2.328,-2.3088,0.0,0.0,0.0,0.0,0.0,0.0,0.0,-2.5926,-2.6539,-2.7068,-2.7496,-2.7745,-2.7953,-2.8062,-2.949,-3.141,-3.3842,-3.473,-3.4288,-3.2565,-3.2153,-3.1325,-3.0148,-3.0785,-3.0289,-2.8995,-2.9026,-2.8759,-2.8272,-2.7806,-2.7567,-2.7491,0.0,0.0,0.0,0.0,0.0,0.0,0.0,0.0,0.0,-2.6866,-2.7117,-2.726,-2.7612,-2.8081,-2.8527,-2.8499,-2.9763,-3.1397,-3.2749,-3.4996,-3.8029,-4.2351,-4.2976,-4.4107,-4.9184,-4.81,-4.6772,-4.8357,0.0,0.0,0.0,0.0,0.0,0.0,0.0,0.0,0.0,0.0,0.0,0.0,0.0,0.0,0.0,0.0,0.0,0.0,-4.7361,-4.7124,-4.7124,-4.6413,-4.6041,-4.6041,-4.55,-4.55,-4.6041,-4.6041,-4.6413,-4.7124,-4.6583,-4.6109,-4.5669,-4.5128,-4.4485,-4.3673,-4.2625,-4.2354,-4.2557,-4.1813,-4.1847,-4.2185,-4.1474,-4.1474,-4.1914,0.0,0.0,0.0,0.0,0.0,0.0,-2.1874,-2.26,-2.2985,-2.2496,-2.2667,-2.263,0.0,0.0,0.0,0.0,0.0,0.0,-2.5698,-2.6602,-2.7335,-2.782,-2.7772,-2.7841,-2.8157,-2.9308,-3.0517,-3.1851,-3.2809,-3.2474,-3.0997,-3.1685,-3.1282,-3.0019,-3.1889,-3.1607,-2.9753,-2.9878,-2.9374,-2.845,-2.8002,-2.776,-2.7672,0.0,0.0,0.0,0.0,0.0,0.0,0.0,0.0,0.0,-2.7043,-2.7291,-2.743,-2.7567,-2.7977,-2.8492,-2.8897,-3.0315,-3.2204,-3.4346,-3.6574,-3.9117,-4.2313,-4.4011,-4.5868,0.0,-4.8605,-4.7828,-4.9588,-5.0042,0.0,0.0,0.0,0.0,0.0,0.0,0.0,0.0,0.0,0.0,0.0,0.0,0.0,0.0,0.0,0.0,0.0,-4.6244,-4.6041,-4.6346,-4.506,-4.4485,-4.479,-4.435,-4.4181,-4.435,-4.4959,-4.5162,-4.5026,-4.55,-4.5365,-4.4756,-4.4012,-4.3403,-4.2861,-4.1711,-4.1474,-4.1779,-4.1035,-4.1035,-4.1365,-4.0933,-4.1136,-4.1644,0.0,0.0,-2.1129,-2.1955,0.0,0.0,-2.1677,-2.2118,-2.224,-2.1518,-2.2172,-2.2646,0.0,0.0,0.0,0.0,0.0,0.0,0.0,-2.6607,-2.7414,-2.842,-2.813,-2.8263,-2.9,-3.0369,-3.0404,-2.9,-3.0056,-3.0402,-3.0125,-3.1914,-3.2209,-3.1282,-3.3582,-3.3705,-3.2125,-3.1317,-3.0219,-2.8945,-2.8251,-2.7896,-2.7716,-2.7517,0.0,0.0,0.0,0.0,0.0,0.0,0.0,0.0,-2.7228,-2.7481,-2.7762,-2.7557,-2.7423,-2.7613,-2.9059,-2.9962,-3.1495,-3.5653,-3.7416,-3.9094,-4.2749,-4.5647,-4.7771,-4.8552,0.0,-4.7942,-5.0457,0.0,0.0,0.0,0.0,0.0,0.0,0.0,0.0,0.0,0.0,0.0,0.0,0.0,0.0,0.0,0.0,0.0,0.0,-4.5196,-4.4756,-4.5365,-4.3369,-4.2625,-4.3274,-4.3274,-4.2963,-4.232,-4.3735,-4.3667,-4.2354,-4.4519,-4.4688,-4.324,-4.2523,-4.2185,-4.2117,-4.1407,-4.1102,-4.1035,-4.0383,-4.0113,-4.0113,-4.0113,-4.0959,-4.2016,0.0,0.0,-2.222,-2.2131,0.0,0.0,-2.202,-2.2243,-2.2449,-2.2275,-2.2236,-2.2354,-2.2626,-2.2439,0.0,-2.2497,0.0,0.0,0.0,-2.6298,-2.7453,-2.8956,-2.9375,-2.9667,-2.9843,-3.0159,-3.0159,-2.9843,-3.0078,-2.9849,-2.9242,-3.1444,-3.2039,-3.1282,-3.2985,-3.2581,-3.0545,-2.9737,-2.8951,-2.823,-2.8017,-2.7946,-2.7925,-2.7824,-2.7692,0.0,0.0,0.0,0.0,0.0,0.0,0.0,-2.7597,-2.7971,-2.8289,-2.7802,-2.7879,-2.8625,-3.0785,-3.1757,-3.3102,-3.7291,-4.0211,-4.2584,-4.4458,-4.577,-4.6879,-4.7802,-4.8217,-4.9095,0.0,0.0,0.0,0.0,0.0,0.0,0.0,0.0,0.0,0.0,0.0,0.0,0.0,0.0,0.0,0.0,0.0,0.0,-4.4215,-4.3842,-4.347,-4.3031,-4.2557,-4.2388,-4.2523,-4.2523,-4.2455,0.0,-4.2625,-4.2625,-4.232,-4.3403,-4.3403,-4.2489,-4.1745,-4.1441,-4.1373,-4.0629,-4.035,-4.0316,-4.018,-4.0113,-4.0113,-4.0113,-4.0316,-4.0654,0.0,0.0,0.0,0.0,0.0,0.0,0.0,0.0,-2.2534,-2.2186,-2.2366,-2.2651,-2.2875,-2.2988,0.0,0.0,0.0,0.0,0.0,-2.5997,-2.7061,-2.8733,-2.9833,-3.0211,-2.9811,-2.9927,-2.9766,-2.9365,-2.9589,-2.9839,-3.0238,-3.1833,-3.2522,-3.2539,-3.36,-3.2809,-3.058,-2.9808,-2.8901,-2.7961,-2.7903,-2.7917,-2.7996,-2.8326,-2.8358,-2.8263,-2.8263,0.0,0.0,0.0,0.0,0.0,0.0,0.0,-2.8091,-2.7722,-2.779,-2.843,-3.0609,-3.2143,-3.4273,-3.9014,0.0,-4.4525,-4.4768,-4.5334,-4.598,-4.6498,-4.7517,0.0,0.0,0.0,0.0,0.0,0.0,0.0,0.0,0.0,0.0,0.0,0.0,0.0,0.0,0.0,0.0,0.0,0.0,-4.4113,-4.2929,-4.2557,-4.232,-4.2286,-4.161,-4.1407,-4.1779,-4.1779,-4.1576,-4.1264,-4.1948,-4.2117,-4.1779,-4.2185,-4.2151,-4.1745,-4.0967,-4.0663,-4.0629,-4.0282,-4.0113,-4.0113,-4.0113,-4.0113,-4.0113,-4.0113,-4.0316,-4.0629,0.0,0.0,0.0,0.0,0.0,0.0,0.0,0.0,0.0,-2.2271,-2.287,-2.3334,-2.3282,-2.3824,-2.4183,0.0,0.0,0.0,0.0,0.0,0.0,-2.8063,-2.9782,-3.0317,-2.9524,-2.9642,-2.9482,-2.8979,-2.9077,-3.0254,-3.2438,-3.266,-3.3339,-3.4301,-3.45,-3.3371,-3.1317,-3.0334,-2.9117,-2.7924,-2.8015,-2.8085,-2.817,-2.8916,-2.9136,-2.9059,-2.9059,-2.8938,-2.8712,-2.8062,0.0,0.0,0.0,0.0,-2.7587,-2.7589,-2.7461,-2.7732,-2.9903,-3.2388,-3.5599,-4.0528,-4.3462,0.0,-4.4686,-4.486,-4.5196,-4.5492,-4.6529,0.0,0.0,0.0,0.0,0.0,0.0,0.0,0.0,0.0,0.0,0.0,0.0,0.0,0.0,0.0,0.0,0.0,0.0,-4.2895,-4.2151,-4.1542,-4.1407,-4.188,-4.0756,-4.0392,-4.1001,-4.1001,-4.0696,-4.0113,-4.1365,-4.1576,-4.1001,-4.1001,-4.1001,-4.0967,-4.0383,-4.0113,-4.0113,-4.0113,-4.0113,-4.0113,-4.0113,-4.0113,-4.0113,-4.0113,-4.0493,-4.0933,0.0,0.0,0.0,0.0,0.0,0.0,0.0,0.0,0.0,0.0,-2.4306,-2.4304,-2.4013,-2.4307,-2.4513,-2.4513,-2.4835,-2.5207,-2.5634,0.0,0.0,-2.6995,-2.9351,-3.0334,-2.9506,-2.954,-2.9834,-3.0421,-2.932,-3.1193,-3.5785,-3.3936,-3.409,-3.5919,-3.4604,-3.3351,-3.209,-2.9948,-2.8624,-2.7959,-2.8519,-2.88,-2.8916,-2.9664,-2.9817,-2.9687,-2.9687,-2.9171,-2.8467,-2.8492,-2.8068,0.0,0.0,0.0,-2.7207,-2.7775,-2.7181,-2.7081,-3.0278,-3.4154,-3.8,0.0,-4.2452,-4.3448,0.0,0.0,-4.483,0.0,0.0,0.0,0.0,0.0,0.0,0.0,0.0,0.0,0.0,0.0,0.0,0.0,0.0,0.0,0.0,0.0,0.0,0.0,-4.2489,-4.2117,-4.1407,-4.1271,-4.0933,-4.0417,-4.0214,-4.0146,-4.0248,-4.0248,-4.0214,-4.0113,-4.0316,-4.035,-4.0248,-4.0248,-4.0248,-4.0248,-4.0146,-4.0113,-4.0113,-4.0113,-4.0113,-4.0113,-4.0113,-4.0113,-4.0113,-4.0113,-4.018,-4.0248,0.0,0.0,0.0,0.0,0.0,0.0,0.0,0.0,0.0,0.0,0.0,-2.492,-2.4987,-2.4945,-2.5032,-2.5462,-2.5235,-2.5218,-2.5517,-2.7082,-2.7765,-2.7229,-2.8723,-2.9665,-2.9824,-2.9539,-2.9557,-2.9848,-2.9083,-3.0983,-3.5314,-3.4617,-3.602,-3.9009,-3.6219,-3.4252,-3.2844,-3.0053,-2.8453,-2.783,-2.8102,-2.8708,-2.9419,-2.9803,-3.0333,-3.0819,-3.0387,-2.973,-2.9041,-2.9091,-2.8196,-2.717,-2.7582,0.0,0.0,0.0,-2.7128,-2.7081,-3.0363,-3.3949,-3.727,0.0,-4.153,-4.3067,-4.4022,0.0,-4.4198,0.0,0.0,0.0,0.0,0.0,0.0,0.0,0.0,0.0,0.0,0.0,0.0,0.0,0.0,0.0,0.0,0.0,0.0,0.0,-4.1677,-4.1339,-4.0595,-4.0561,-4.0451,-4.0113,-4.0113,-4.0113,-4.0113,-4.0113,-4.0113,-4.0113,-4.0113,-4.0113,-4.0113,-4.0113,-4.0113,-4.0113,-4.0113,-4.0113,-4.0113,-4.0113,-4.0113,-4.0113,-4.0113,-4.0113,-4.0113,-4.0113,-4.0113,-4.0113,0.0,0.0,0.0,0.0,0.0,0.0,0.0,0.0,0.0,0.0,0.0,-2.5868,-2.5832,0.0,0.0,0.0,-2.5527,-2.5381,-2.5715,-2.6769,-2.7419,-2.7411,-2.8423,-2.9106,-2.9439,-2.9288,-2.9106,-2.8833,-2.8592,-3.0507,-3.4415,-3.4709,-3.7233,-4.1355,-3.8199,-3.5533,-3.3247,-3.076,-2.9117,-2.8161,-2.8161,-2.8765,-2.9711,-3.0369,-3.1044,-3.1567,-3.1019,-3.0296,-2.9591,-2.9265,-2.8323,-2.7351,-2.7724,-2.7328,0.0,0.0,0.0,-2.7401,-2.992,0.0,-3.5186,-3.7307,-3.9935,-4.2005,0.0,0.0,0.0,0.0,0.0,0.0,0.0,0.0,0.0,0.0,0.0,0.0,0.0,0.0,0.0,0.0,0.0,0.0,0.0,0.0,0.0,0.0,-4.0933,-4.0663,-4.0146,-4.0113,-4.0113,-4.0113,-4.0113,-4.0113,-4.0113,-4.0113,-4.0113,-4.0113,-4.0113,-4.0113,-4.0079,-3.991,-3.9842,-3.9842,-4.0011,-4.0113,-4.0113,-4.0113,-4.0113,-4.0113,-4.0113,-4.0113,-4.0113,-4.0113,-4.0113,-4.0113,0.0,0.0,0.0,0.0,0.0,0.0,0.0,0.0,0.0,0.0,0.0,-2.7571,-2.63,-2.6422,-2.6341,-2.5675,-2.561,-2.5888,-2.6587,-2.7809,-2.8053,-2.6989,-2.8666,0.0,-2.7672,-2.8547,-2.8637,-2.7875,-2.7859,-3.0087,-3.4412,-3.4047,-3.6713,-4.1697,-4.0172,-3.7161,-3.3151,-3.2282,-3.0959,-2.9403,-2.9403,-2.9437,-2.973,-3.1903,-3.2238,-3.15,-3.1466,-3.0874,-2.9875,-2.8612,-2.8352,-2.8489,-2.7832,-2.7717,-2.7931,0.0,0.0,0.0,-2.8726,-3.0087,0.0,-3.4631,-3.7114,-3.9177,0.0,0.0,0.0,0.0,0.0,0.0,0.0,0.0,0.0,0.0,0.0,0.0,0.0,0.0,0.0,0.0,0.0,0.0,0.0,0.0,0.0,0.0,-4.018,-4.0146,-4.0113,-4.0113,-4.0113,-4.0113,-4.0113,-4.0113,-4.0113,-4.0113,-4.0113,-4.0113,-4.0113,-4.0113,-4.0079,-3.9377,-3.9039,-3.9073,-3.9808,-4.0113,-4.0113,-4.0113,-4.0113,-4.0113,-4.0113,-4.0113,-4.0113,-4.0113,-4.0113,-4.0113,0.0,0.0,0.0,0.0,0.0,0.0,0.0,0.0,0.0,0.0,0.0,0.0,0.0,-2.7563,-2.7429,-2.7624,-2.6847,-2.6426,-2.6685,-2.7118,-2.7457,-2.7611,-2.8708,-2.9171,-2.8925,-2.88,-2.8676,-2.8552,-2.7571,-2.8898,-3.2363,-3.2863,-3.4616,-3.733,-3.763,-3.6901,-3.5272,-3.2508,-3.0872,-3.0195,-3.0213,-3.0726,-3.1557,-3.2398,-3.2997,-3.3358,-3.2883,-3.1893,-3.0804,-3.0813,-2.9379,-2.7727,-2.8351,-2.7708,-2.6814,-2.755,-2.812,-2.8495,-2.8234,0.0,0.0,-3.2326,-3.4748,-3.6879,-3.7525,0.0,0.0,0.0,0.0,0.0,0.0,0.0,0.0,0.0,0.0,0.0,0.0,0.0,0.0,0.0,0.0,0.0,0.0,0.0,0.0,0.0,0.0,-4.0113,-4.0113,-4.0113,-4.0113,-4.0113,-4.0113,-4.0113,-4.0113,-4.0113,-4.0113,-4.0079,-3.9639,-3.9402,-3.9368,-3.8633,-3.8294,-3.8294,-3.8565,-3.8937,-3.9436,-3.991,-4.0113,-4.0113,-4.0113,-4.0113,-4.0113,-4.0113,-4.0113,-4.0113,0.0,0.0,0.0,0.0,0.0,-2.8559,-2.863,-2.8606,-2.8498,-2.8269,0.0,0.0,0.0,0.0,-2.7818,-2.8077,-2.7235,-2.6782,-2.7008,-2.7147,-2.7627,-2.8608,-2.9023,-2.9353,-2.951,-2.9123,-2.8643,-2.8106,-2.7382,-2.8059,-3.0074,-3.1011,-3.2539,-3.4472,-3.4815,-3.5232,-3.5544,-3.3241,-3.1869,-3.1292,-3.1218,-3.1816,-3.2843,-3.3775,-3.4354,-3.4601,-3.4385,-3.3439,-3.2273,-3.2022,-3.0624,-2.9032,-2.9371,-2.8361,-2.7083,-2.7391,-2.8031,-2.8463,-2.7758,-2.8283,0.0,0.0,-3.2315,-3.4006,-3.4658,0.0,0.0,0.0,0.0,0.0,0.0,0.0,0.0,0.0,0.0,0.0,0.0,0.0,0.0,0.0,0.0,0.0,0.0,0.0,0.0,0.0,0.0,0.0,-4.0113,-4.0113,-4.0011,-3.974,-3.9977,-3.9876,-3.9368,-3.9605,-3.9605,-3.9368,-3.887,-3.8633,-3.8599,-3.7855,-3.7516,-3.7516,-3.7516,-3.7956,-3.87,-3.9436,-3.9556,-3.9378,-3.991,-3.9927,-3.9714,-3.9978,-4.0113,-4.0113,0.0,0.0,-2.9114,-2.9114,-2.8881,-2.8763,-2.8928,-2.9036,-2.9152,-2.9298,0.0,0.0,0.0,0.0,0.0,-2.6782,-2.6782,-2.7041,-2.7656,-2.803,-2.8712,-2.9848,-2.9683,-2.9426,-2.9127,-2.9329,-2.8467,-2.6449,-2.7188,-2.7631,-2.7772,-2.8586,-3.0666,-3.3624,-3.2149,-3.23,-3.37,-3.448,-3.3967,-3.2647,-3.2442,-3.2656,-3.3406,-3.6161,-3.6293,-3.5108,-3.5904,-3.5513,-3.4235,-3.2104,0.0,-3.2552,-3.0728,-2.9694,-2.8979,-2.8338,-2.8148,-2.799,0.0,0.0,0.0,0.0,0.0,0.0,-3.159,0.0,0.0,0.0,0.0,0.0,0.0,0.0,0.0,0.0,0.0,0.0,0.0,0.0,0.0,0.0,0.0,0.0,0.0,0.0,0.0,0.0,-4.0079,-4.0045,-4.002,-4.002,-3.9681,-3.8971,-3.9673,-3.9368,-3.7922,-3.8599,-3.8599,-3.7922,-3.7889,-3.7889,-3.7855,-3.7077,-3.6761,-3.6761,-3.6761,-3.7178,-3.7889,-3.8633,-3.8505,-3.7972,-3.9463,-3.9577,-3.9016,-3.9825,-4.0113,-4.0113,0.0,-2.9114,-2.9114,-2.9114,-2.9169,-2.9286,-2.9505,-2.9546,-2.9642,0.0,0.0,0.0,-2.9297,-2.9729,-2.9318,-2.7591,-2.8422,-2.8649,-2.7753,-2.8285,-2.9027,-2.9848,-2.9351,-2.9296,-2.9889,-2.8398,-2.766,-2.7784,-2.7065,-2.6737,-2.6823,-2.7703,-2.9197,-3.1118,-3.1254,-3.1831,-3.27,-3.25,-3.316,-3.422,-3.3969,-3.47,-3.6096,-3.7251,-3.743,-3.717,-3.7939,-3.7316,-3.6152,0.0,-3.433,-3.1862,-2.9992,-2.9641,-2.9859,-2.9664,-2.9403,-2.9044,-2.8361,0.0,0.0,0.0,0.0,0.0,-3.0043,-3.108,0.0,0.0,0.0,0.0,0.0,0.0,0.0,0.0,0.0,0.0,0.0,0.0,0.0,0.0,0.0,0.0,0.0,0.0,0.0,0.0,-3.9276,-3.8832,-3.7777,-3.7719,-3.7853,-3.8169,-3.8396,-3.8328,-3.7922,-3.8091,-3.8091,-3.7889,-3.7347,-3.71,-3.71,-3.6299,-3.5926,-3.5926,-3.5926,-3.6039,-3.6343,-3.7652,-3.8376,-3.8698,-3.9134,-3.948,-3.9765,-4.0003,-4.0113,-4.0113,-2.9114,-2.9114,-2.9114,-2.9114,-2.9469,-2.9717,-2.9675,-2.9887,-3.0046,0.0,0.0,0.0,-2.9426,-2.9793,-2.9534,-2.8271,-2.8422,-2.8454,-2.8174,-2.8146,-2.8512,-2.9394,-2.8888,-2.8737,-2.9142,-2.761,-2.6899,-2.7041,-2.6462,-2.6024,-2.576,-2.6754,-2.809,-2.9668,-3.0093,-3.0871,-3.1853,-3.1837,-3.2841,-3.4527,-3.553,-3.6639,-3.7831,-3.934,-3.9685,-3.9525,-4.0263,-3.9942,-3.9005,-3.8531,-3.6081,0.0,0.0,-3.1396,-3.1112,-3.1112,-3.0729,-3.0151,-2.9459,-2.8671,-2.8147,-2.8604,0.0,0.0,-2.9294,-2.9701,-3.0041,0.0,0.0,0.0,0.0,0.0,0.0,0.0,0.0,0.0,0.0,0.0,0.0,0.0,0.0,0.0,0.0,-3.8338,-3.8531,-3.8531,-3.8531,-3.8026,-3.6868,-3.681,-3.6862,-3.6974,-3.7576,-3.7465,-3.653,-3.7128,-3.7128,-3.653,-3.6095,-3.5884,-3.586,-3.511,-3.4934,-3.5168,-3.5168,-3.5345,-3.5713,-3.6926,-3.7483,-3.7673,-3.8612,-3.9002,-3.9209,-3.9876,-4.0113,-4.0113,0.0,-2.9209,-2.924,-2.9335,-2.9927,-3.0307,-2.9858,-3.0256,-3.0532,0.0,-2.9599,-2.9167,-2.9167,-2.9167,-2.9081,-2.894,-2.785,-2.7624,-2.8746,-2.7913,-2.7806,-2.8757,-2.8308,-2.7934,-2.77,-2.6976,-2.6205,-2.5458,-2.5728,-2.5553,-2.5052,-2.5927,-2.7293,-2.8973,-2.8991,-2.9788,-3.1123,-3.1955,-3.2924,-3.4123,-3.6808,-3.8285,-3.9135,-4.1663,-4.2211,-4.1716,-4.2484,-4.2592,-4.1948,-3.9749,-3.7461,0.0,0.0,0.0,0.0,0.0,-3.2055,-3.1331,-3.0716,-2.977,-2.9145,-2.9738,-2.8693,0.0,-2.9228,-2.894,-2.8646,0.0,0.0,0.0,0.0,0.0,0.0,0.0,0.0,0.0,0.0,0.0,0.0,0.0,0.0,0.0,-3.6619,-3.7136,-3.7537,-3.7537,-3.7422,-3.7111,-3.6576,-3.6408,-3.608,-3.5506,-3.6743,-3.6467,-3.452,-3.579,-3.579,-3.4496,-3.4496,-3.4496,-3.4471,-3.3846,-3.3953,-3.4496,-3.4496,-3.4833,-3.5431,-3.6152,-3.6156,-3.5938,-3.8068,-3.8515,-3.8108,-3.9558,-4.0113,-4.0087,-2.9793,-3.0014,-3.0148,-3.0717,-3.1381,-3.1874,-3.1772,-3.1532,-3.1526,-3.2015,-3.166,-3.138,-3.138,-3.138,-3.0927,-2.9783,-2.9923,-2.9707,-2.8876,-2.8597,-2.8564,-2.879,-2.7627,-2.7187,-2.7668,-2.6438,-2.6018,-2.6419,-2.5805,-2.5821,-2.647,-2.6209,-2.7023,-2.8699,-2.8884,-2.9484,-3.0412,-3.1752,-3.3093,-3.4571,-3.6965,-3.9142,-4.1091,-4.203,-4.2264,-4.223,-4.301,-4.2848,-4.1948,-3.9749,-3.8676,-3.7841,0.0,0.0,0.0,-3.3804,0.0,0.0,0.0,0.0,0.0,0.0,0.0,0.0,-3.0264,-2.9635,-2.9116,0.0,0.0,0.0,0.0,0.0,0.0,0.0,0.0,0.0,0.0,0.0,0.0,0.0,0.0,0.0,-3.5131,-3.5225,-3.5325,-3.5325,-3.4255,-3.4059,-3.5052,-3.4043,-3.3609,-3.3995,-3.4277,-3.4212,-3.3802,-3.4083,-3.4083,-3.3802,-3.3802,-3.3802,-3.377,-3.3675,-3.3675,-3.3802,-3.3802,-3.3866,-3.3976,-3.4106,-3.509,-3.6657,-3.8325,-3.8868,-3.8799,-3.974,-4.0113,-4.0003,-3.0061,-3.0464,-3.0812,-3.116,-3.1792,-3.219,-3.1892,-3.1978,-3.2254,-3.2624,-3.2885,-3.2935,-3.2579,-3.2546,-3.1963,-3.0506,-3.0409,-3.0085,-2.9394,-2.9005,-2.8811,-2.8811,-2.8109,-2.7721,-2.7721,-2.6685,-2.6172,-2.6193,-2.5891,-2.5739,-2.5667,-2.6328,-2.727,-2.842,-2.9011,-2.9787,-3.0751,-3.2205,-3.3491,-3.4709,-3.7381,-3.9621,-4.1554,-4.2915,-4.3464,-4.3498,-4.3876,-4.3504,-4.2692,-4.1576,-4.046,0.0,-3.7488,-3.6864,-3.6558,0.0,-3.4963,-3.4404,0.0,0.0,0.0,-3.253,0.0,0.0,0.0,-3.0014,-2.969,0.0,0.0,0.0,0.0,0.0,0.0,0.0,0.0,0.0,0.0,0.0,0.0,0.0,0.0,0.0,-3.2683,-3.2944,-3.3162,-3.3162,-3.2494,-3.2418,-3.3103,-3.2788,-3.2734,-3.3077,-3.3443,-3.3443,-3.3103,-3.3744,-3.3777,-3.3103,-3.3443,-3.3417,-3.3108,-3.2734,-3.273,-3.3077,-3.3077,-3.3455,-3.4089,-3.4435,-3.5183,-3.6194,-3.6974,-3.7741,-3.8442,-3.9209,-3.9773,-3.9978,-3.0362,-3.0844,-3.123,-3.1381,-3.2013,-3.2285,-3.1656,-3.2137,-3.267,-3.2948,-3.3921,-3.437,-3.3843,-3.386,-3.3518,-3.2639,-3.1401,-3.0847,-3.1193,-2.987,-2.9069,-2.9069,-2.8767,-2.8325,-2.7782,-2.719,-2.6535,-2.5801,-2.6062,-2.5759,-2.4885,-2.6419,-2.7547,-2.8306,-2.9297,-3.0262,-3.1252,-3.2895,-3.4134,-3.5204,-3.8058,-3.9851,-4.1035,-4.3295,-4.4175,-4.4209,-4.4513,-4.4181,-4.3572,-4.3105,-4.1888,-4.0324,-3.9189,-3.8614,0.0,0.0,0.0,0.0,0.0,0.0,0.0,0.0,0.0,-3.2613,0.0,0.0,0.0,0.0,0.0,0.0,0.0,0.0,0.0,0.0,0.0,0.0,0.0,0.0,0.0,0.0,0.0,0.0,0.0,-3.0905,-3.1195,-3.1195,-3.1332,-3.1393,-3.1393,-3.2013,-3.2382,-3.2382,-3.2891,-3.2917,-3.2382,-3.3437,-3.3437,-3.2382,-3.2917,-3.2891,-3.2355,-3.1768,-3.1824,-3.2382,-3.2505,-3.3183,-3.4168,-3.4795,-3.5177,-3.5347,-3.5829,-3.676,-3.7908,-3.8635,-3.9394,-3.9952,-3.097,-3.1135,-3.1413,-3.207,-3.274,-3.2961,-3.2317,-3.233,-3.2736,-3.3655,-3.5214,-3.6235,-3.6306,-3.6561,-3.7194,-3.8347,-3.537,-3.4183,-3.5901,-3.2249,-3.0041,-3.0053,-2.8603,-2.792,-2.8056,-2.7757,-2.7106,-2.612,-2.6461,-2.6561,-2.6433,-2.647,-2.7196,-2.8522,-2.9681,-3.0472,-3.1086,-3.3394,-3.5204,-3.6761,-3.9063,-3.9706,0.0,-4.1711,-4.2557,-4.2726,-4.4107,-4.4547,-4.4147,0.0,-4.1711,-4.1628,0.0,-3.903,-3.9485,-3.7626,0.0,0.0,0.0,0.0,0.0,0.0,-3.491,0.0,0.0,0.0,-3.2361,-3.0876,0.0,0.0,0.0,0.0,0.0,0.0,0.0,0.0,0.0,0.0,0.0,0.0,0.0,0.0,0.0,-2.978,-2.9833,-2.9833,-3.0325,-3.0603,-3.0603,-3.1264,-3.1596,-3.1596,-3.1682,-3.171,-3.1655,-3.1796,-3.1796,-3.1655,-3.171,-3.1682,-3.1596,-3.1539,-3.1568,-3.1685,-3.2255,-3.2586,-3.2736,-3.2854,-3.3577,-3.4811,-3.677,-3.7639,-3.7908,-3.8635,-3.9394,-3.9876,-3.1026,-3.1198,-3.1444,-3.2165,-3.2171,-3.2139,-3.2291,-3.4186,-3.5678,-3.5739,-3.7209,-3.839,-3.8756,-3.8816,-3.8923,-3.9088,-3.789,-3.6879,-3.6415,-3.3703,-3.2085,-3.2118,-3.0477,-2.9589,-2.9729,-2.8587,-2.771,-2.707,-2.723,-2.6877,-2.6077,-2.7142,-2.7833,-2.8359,-2.9935,-3.1209,-3.2286,-3.4317,-3.5791,-3.6931,0.0,-3.887,0.0,-4.2422,-4.3633,-4.3735,-4.4378,-4.4615,-4.4378,0.0,-4.2388,0.0,0.0,0.0,0.0,0.0,0.0,0.0,0.0,0.0,0.0,0.0,0.0,0.0,-3.3486,0.0,-3.2878,0.0,0.0,0.0,0.0,0.0,0.0,0.0,-2.8943,0.0,0.0,0.0,0.0,0.0,0.0,0.0,0.0,0.0,0.0,0.0,-2.9026,-2.9564,-2.9953,-3.0582,-3.1092,-3.1481,-3.1511,-3.1511,-3.1511,-3.1938,-3.1938,-3.1511,-3.1938,-3.191,-3.1511,-3.1511,-3.1511,-3.154,-3.2198,-3.2736,-3.3125,-3.3484,-3.4203,-3.5164,-3.6105,-3.6995,-3.7851,-3.8133,-3.9049,-3.9927,-3.0854,-3.0987,-3.1209,-3.188,-3.1571,-3.1444,-3.2196,-3.4659,-3.6482,-3.6657,-3.7975,-3.9224,-4.0296,-4.0987,-4.1399,-4.1526,-4.1278,-4.0408,-3.8753,-3.629,-3.4655,-3.4004,-3.2462,-3.1551,-3.1401,-2.9698,-2.8537,-2.7998,-2.7891,-2.7156,-2.5914,-2.7509,-2.8263,-2.8334,-3.0257,-3.1931,-3.3461,-3.561,-3.6975,-3.7811,-3.8937,-3.9749,-4.0493,-4.3024,-4.4107,-4.4254,-4.4259,-4.427,-4.4073,-4.3071,-4.2534,0.0,-4.1186,0.0,0.0,0.0,0.0,0.0,-3.6975,0.0,0.0,0.0,0.0,0.0,0.0,0.0,0.0,0.0,0.0,0.0,0.0,0.0,0.0,0.0,0.0,-2.8286,0.0,0.0,0.0,0.0,0.0,0.0,0.0,0.0,0.0,0.0,0.0,-2.8816,-2.9295,-3.0073,-3.0731,-3.1212,-3.1391,-3.1511,-3.1511,-3.2216,-3.2216,-3.1511,-3.2244,-3.2216,-3.1511,-3.1511,-3.1511,-3.154,-3.2198,-3.2886,-3.3544,-3.4054,-3.4711,-3.5489,-3.531,-3.6137,-3.7469,-3.7469,-3.8442,-3.9662,-3.0561,-3.0434,-3.0609,-3.1128,-3.1198,-3.1444,-3.2196,-3.2386,-3.3229,-3.5363,-3.6557,-3.806,-4.043,-4.3145,-4.5751,-4.7983,-4.6544,-4.5385,-4.5022,-4.0929,-3.755,-3.5358,-3.4084,-3.3162,-3.2641,-3.1117,-2.984,-2.8764,-2.8367,-2.7619,-2.6572,-2.731,-2.8002,-2.8779,-3.0728,-3.2452,-3.407,-3.7451,-3.9334,-4.018,-4.2354,-4.324,-4.3172,0.0,-4.2828,-4.3428,-4.3356,0.0,0.0,-4.158,-4.1576,0.0,0.0,0.0,0.0,0.0,0.0,0.0,0.0,0.0,0.0,-3.6843,0.0,0.0,0.0,0.0,-3.3623,0.0,0.0,0.0,0.0,0.0,-3.0101,-2.9232,-2.8636,0.0,0.0,0.0,0.0,0.0,0.0,0.0,0.0,0.0,0.0,0.0,0.0,0.0,-2.8637,-2.9834,-3.0522,-3.0522,-3.1152,-3.1511,-3.1511,-3.2216,-3.2216,-3.1511,-3.2244,-3.2216,-3.1511,-3.1511,-3.1511,-3.154,-3.2198,-3.2886,-3.3484,-3.3514,-3.4322,-3.5429,-3.4771,-3.5429,-3.663,-3.663,-3.7613,-3.8827,-3.1254,-3.1118,-3.0926,-3.0583,-2.9852,-2.9998,-3.2114,-3.4033,-3.6617,-4.0587,-4.2351,-4.472,-4.8592,-5.0691,-5.1732,-5.143,-5.0584,-4.9224,-4.7173,-4.3155,0.0,-3.9696,0.0,-3.4994,0.0,-3.2951,-3.1405,-3.0098,-2.9806,-2.9415,-2.8951,-2.8529,-2.8855,-2.988,-3.0887,-3.2546,0.0,0.0,0.0,0.0,0.0,-4.2388,-4.1982,0.0,-4.2152,-4.2009,-4.2422,-4.1939,0.0,-4.1522,-4.1268,-4.0805,-4.0707,-4.0247,-3.9648,-3.914,-3.8757,0.0,0.0,0.0,-3.8448,-3.6382,0.0,0.0,0.0,0.0,0.0,0.0,0.0,0.0,0.0,0.0,-3.0101,-2.9232,-2.8591,-2.7664,0.0,0.0,0.0,0.0,0.0,0.0,0.0,0.0,0.0,0.0,-2.7535,0.0,0.0,-2.9415,-3.0073,-3.0492,-3.1152,-3.1511,-3.1511,-3.1739,-3.1739,-3.1511,-3.1739,-3.1739,-3.1511,-3.1511,-3.1511,-3.154,-3.2198,-3.2886,-3.3514,-3.3994,-3.4681,-3.5489,-3.525,-3.5473,-3.6006,-3.7025,-3.7703,-3.8189,-3.171,-3.1561,-3.13,-3.0654,-2.9664,-2.9842,-3.2399,-3.5591,-3.9082,-4.2906,-4.5669,-4.8725,-5.2534,-5.4298,-5.4783,0.0,-5.382,-5.2198,-4.8142,-4.5963,0.0,-4.1742,-3.9358,-3.7793,0.0,0.0,0.0,-3.1683,-3.0773,-3.0229,-2.9959,-2.9062,-2.9204,-3.018,-3.0893,-3.2636,-3.5124,-3.7084,-3.9186,0.0,0.0,-4.161,0.0,0.0,-4.1133,-4.1181,0.0,-4.0346,-3.9659,-4.0515,-4.0288,-3.9677,-4.0105,-3.9649,-3.8904,-3.8638,-3.8531,-3.8414,-3.8158,-3.864,0.0,-3.6848,-3.688,0.0,-3.4659,0.0,0.0,0.0,0.0,0.0,0.0,0.0,-3.0449,-2.9784,-2.8982,-2.7873,0.0,-2.5428,0.0,0.0,0.0,0.0,0.0,0.0,0.0,-2.6909,-2.7182,-2.772,0.0,0.0,-2.9864,-3.0492,-3.1152,-3.1511,-3.1511,-3.1768,-3.1768,-3.1511,-3.1768,-3.1739,-3.1511,-3.1511,-3.1511,-3.154,-3.2198,-3.2886,-3.3544,-3.4234,-3.4891,-3.5519,-3.5519,-3.5519,-3.5619,-3.66,-3.7324,-3.7966,-3.1951,-3.1684,-3.1628,-3.1338,-3.0805,-3.1082,-3.3082,-3.6961,-4.0466,-4.2744,-4.6684,-5.0185,-5.2575,-5.4362,-5.5381,-5.5456,-5.6282,-5.4363,-4.8612,-4.939,0.0,0.0,-4.1937,-4.1399,-3.9938,0.0,0.0,0.0,-3.1379,-3.016,-2.9708,-2.9019,-2.9077,-2.9862,-3.0833,-3.2644,-3.5224,-3.7552,-3.9556,-4.117,-4.1204,-4.1204,-4.1024,-3.9448,-3.977,-4.0848,-3.922,-3.8615,-3.8551,-3.8613,-3.8614,-3.862,-3.8798,-3.8843,-3.8713,-3.8014,-3.8752,-3.9617,-3.8948,-3.8459,-3.8153,-3.8028,0.0,0.0,0.0,0.0,-3.4593,0.0,0.0,0.0,0.0,0.0,0.0,-3.076,-2.9744,-2.8356,0.0,0.0,0.0,0.0,0.0,0.0,0.0,0.0,-2.6731,-2.6866,-2.6909,-2.7448,0.0,0.0,-2.9891,-3.0492,-3.1152,-3.1511,-3.1511,-3.2188,-3.2188,-3.1511,-3.2216,-3.2191,-3.154,-3.154,-3.157,-3.163,-3.2258,-3.2946,-3.3604,-3.4264,-3.4891,-3.5519,-3.5519,-3.5519,-3.5489,-3.5522,-3.6508,-3.808,-3.2542,-3.2235,-3.2283,-3.2682,-3.2895,-3.3372,-3.4406,-3.8539,-4.3454,-4.8696,-5.2259,-5.5913,-6.0179,-6.0565,-6.003,-5.8954,-5.7608,0.0,0.0,0.0,0.0,-4.7868,-4.5848,-4.4215,-4.3043,-4.0414,-3.7695,-3.4836,0.0,-3.2473,-3.1533,-3.0289,-3.0433,-3.1697,-3.1677,-3.3162,-3.5817,-3.6995,-3.8631,-4.0451,-4.0967,-4.1204,-4.0972,0.0,-3.8685,-3.9339,-3.8278,-3.7209,-3.6479,-3.7382,-3.7447,-3.7219,-3.7779,-3.8017,-3.8046,-3.7854,-3.7984,-3.8154,-3.7935,-3.7769,-3.743,-3.6653,-3.6439,-3.6072,0.0,0.0,0.0,0.0,0.0,0.0,0.0,0.0,0.0,-3.0539,-2.9217,-2.8,0.0,0.0,0.0,0.0,0.0,0.0,0.0,0.0,-2.6433,-2.6451,-2.7242,-2.7961,0.0,0.0,0.0,-3.0492,-3.1152,-3.1511,-3.1511,-3.1682,-3.1682,-3.1511,-3.1682,-3.1953,-3.2228,-3.2228,-3.2527,-3.3006,-3.3155,-3.3604,-3.4264,-3.4444,-3.4891,-3.5519,-3.5519,-3.5519,-3.5554,-3.6102,-3.7293,-3.8663,-3.3283,-3.3469,-3.3736,-3.3746,0.0,0.0,-3.7894,-4.0402,0.0,-5.0426,-5.4283,0.0,-6.0279,-6.1366,-6.1434,-6.0216,-5.8355,0.0,-5.3754,0.0,0.0,-4.9695,-4.8037,-4.6591,-4.5332,-4.236,0.0,-3.6043,0.0,-3.3343,-3.1851,-3.0791,-3.0944,-3.2132,-3.1894,-3.3106,-3.5448,-3.7062,-3.8405,-3.9522,-4.04,-4.0696,0.0,-3.8553,-3.8046,-3.828,-3.7094,-3.6181,-3.5609,-3.6327,-3.6386,-3.6194,-3.656,-3.6722,-3.6814,-3.6814,-3.697,-3.7109,-3.7109,-3.7053,-3.687,-3.6318,-3.623,-3.6084,-3.5092,-3.5185,-3.5305,0.0,0.0,0.0,0.0,0.0,0.0,0.0,0.0,0.0,0.0,0.0,0.0,0.0,0.0,0.0,0.0,0.0,-2.6296,-2.6296,-2.717,0.0,0.0,0.0,0.0,-3.108,-3.1628,-3.2079,-3.2348,-3.2348,-3.2348,-3.2348,-3.2348,-3.2557,-3.2946,-3.2946,-3.3155,-3.3514,-3.3814,-3.4174,-3.4533,-3.4833,-3.516,-3.5519,-3.5519,-3.5519,-3.5587,-3.6322,-3.7142,-3.793,-3.3899,-3.4793,-3.5308,0.0,0.0,0.0,0.0,-4.3202,0.0,-5.076,0.0,-5.7273,-5.7374,-5.9539,-6.0723,-6.0013,0.0,-5.6224,-5.2976,-5.3822,-5.301,-4.9729,-4.9492,-4.8714,-4.7124,-4.3378,-4.0011,0.0,-3.5318,-3.3453,-3.1481,-3.0883,-3.1086,-3.184,-3.1914,-3.3023,0.0,-3.7553,-3.8656,-3.8875,-3.9741,-4.0113,-3.9927,-3.839,-3.7793,-3.7589,-3.6068,-3.5519,-3.5519,-3.5519,-3.5519,-3.5519,-3.5519,-3.5519,-3.5519,-3.5519,-3.5908,-3.6357,-3.6357,-3.6357,-3.6357,-3.6357,-3.5938,-3.5519,-3.5519,-3.5519,-3.5519,-3.5519,-3.4751,-3.4363,0.0,0.0,0.0,0.0,0.0,0.0,0.0,0.0,0.0,0.0,0.0,0.0,0.0,0.0,-2.6472,-2.645,-2.7134,0.0,0.0,0.0,0.0,-3.1915,-3.2345,-3.2826,-3.3484,0.0,-3.3484,-3.3484,-3.3484,-3.3544,-3.3634,-3.3634,-3.3664,-3.3784,-3.4352,-3.4653,-3.4683,-3.525,-3.5519,-3.5519,-3.5519,-3.5519,-3.5587,-3.6228,-3.6477,-3.66,-3.3771,-3.4659,-3.5011,0.0,0.0,-4.1428,-4.5236,-4.9591,-5.3213,-5.5442,-5.7946,-5.9776,-6.0452,-5.9877,-5.937,-5.9201,-5.7306,0.0,0.0,0.0,0.0,-5.2739,-5.2097,-5.0744,-4.8646,-4.6118,-4.256,-3.7794,-3.63,-3.414,-3.1511,-3.1391,-3.1587,-3.2146,-3.247,-3.4116,-3.6738,-3.8037,0.0,-3.9834,-4.002,-4.0113,-3.9927,-3.839,-3.7793,-3.7589,-3.6068,-3.5519,-3.5519,-3.5519,-3.5519,-3.5519,-3.5519,-3.5519,-3.5519,-3.5519,-3.5579,-3.5669,-3.5669,-3.5669,-3.5669,-3.5669,-3.5579,-3.5519,-3.5519,-3.5519,-3.5519,-3.5519,-3.5342,-3.5018,-3.4302,0.0,0.0,0.0,0.0,0.0,0.0,0.0,0.0,0.0,0.0,0.0,0.0,0.0,0.0,0.0,0.0,0.0,0.0,0.0,0.0,0.0,-3.2437,0.0,0.0,0.0,-3.3484,-3.3484,-3.3484,-3.3784,-3.4324,-3.4324,-3.4622,-3.516,-3.528,-3.531,-3.534,-3.5459,-3.5519,-3.5519,-3.5519,-3.5519,-3.5519,-3.5651,-3.5686,-3.591,-3.5929,0.0,0.0,0.0,0.0,0.0,0.0,-5.3009,-5.5716,-5.5649,-5.6596,-5.7374,-5.778,-5.8524,-5.8863,-5.8457,-5.6765,-5.5547,-5.5141,-5.4126,-5.3518,-5.3518,-5.2739,-5.1454,-4.9593,-4.7022,-4.3471,-3.891,-3.6819,-3.4459,-3.1853,-3.1596,-3.1739,-3.2247,-3.3437,-3.482,0.0,0.0,0.0,-3.9396,-3.9893,-4.0113,-3.9927,-3.839,-3.7793,-3.7589,-3.6068,-3.5519,-3.5519,-3.5519,-3.5519,-3.5519,-3.5519,-3.5519,-3.5519,-3.5519,-3.5519,-3.5519,-3.5519,-3.5519,-3.5519,-3.5519,-3.5519,-3.5519,-3.5519,-3.5519,-3.5519,-3.5519,-3.5519,-3.5222,-3.436,-3.4182,0.0,0.0,0.0,0.0,0.0,0.0,0.0,0.0,0.0,0.0,0.0,0.0,0.0,0.0,0.0,0.0,0.0,0.0,0.0,0.0,0.0,0.0,0.0,0.0,0.0,-3.4532,-3.4532,-3.4711,-3.5011,-3.5011,-3.519,-3.5519,-3.5519,-3.5519,-3.5519,-3.5519,-3.5519,-3.5519,-3.5519,-3.5519,-3.5519,-3.5519,-3.5519,-3.5587,-3.8689,-3.9023,0.0,0.0,-4.5699,-4.926,-5.1229,-5.4526,-5.6393,-5.5209,-5.5074,-5.5074,-5.5074,-5.7273,-5.849,-5.7712,-5.6461,-5.5412,-5.4634,-5.3923,-5.3518,-5.3518,-5.2909,-5.1792,-5.0135,-4.753,-4.4188,-4.009,-3.7376,-3.4845,-3.2486,-3.1913,-3.2085,-3.285,0.0,0.0,0.0,0.0,-3.8715,-3.8992,-3.98,-3.9978,-3.9688,-3.8302,-3.7706,-3.7383,-3.6005,-3.5519,-3.5519,-3.5519,-3.5519,-3.5519,-3.5519,-3.5519,-3.5519,-3.5519,-3.5519,-3.5519,-3.5519,-3.5519,-3.5519,-3.5519,-3.5519,-3.5519,-3.5519,-3.5519,-3.5519,-3.5519,-3.5519,-3.534,-3.4801,-3.4871,0.0,0.0,0.0,0.0,0.0,0.0,0.0,0.0,0.0,0.0,0.0,0.0,0.0,0.0,0.0,-2.9577,-2.9785,-3.0573,-3.1583,0.0,0.0,-3.4083,-3.528,0.0,-3.5519,-3.5519,-3.5519,-3.5519,-3.5519,-3.5519,-3.5519,-3.5519,-3.5519,-3.5519,-3.5519,-3.5519,-3.5519,-3.5519,-3.5519,-3.5519,-3.5519,-3.5519,-3.5519,-3.5519,0.0,0.0,0.0,0.0,0.0,-5.1262,-5.0794,-5.4189,-5.6765,-5.6596,-5.6596,-5.6596,-5.6596,-5.7442,-5.7712,-5.6968,-5.619,-5.5412,-5.4634,-5.3923,-5.3518,-5.3518,-5.345,-5.2367,-5.0135,-4.8511,-4.5551,0.0,-3.8228,-3.5681,0.0,-3.2578,-3.308,0.0,0.0,0.0,0.0,-3.8531,-3.9118,-3.9986,-4.0054,-3.9662,-3.8908,-3.8104,-3.7352,-3.6631,-3.5782,-3.5519,-3.5519,-3.5519,-3.5519,-3.5519,-3.5519,-3.5519,-3.5519,-3.5519,-3.5519,-3.5519,-3.5519,-3.5519,-3.5519,-3.5519,-3.5519,-3.5519,-3.5519,-3.5519,-3.5519,-3.5519,-3.5519,-3.5489,-3.5429,-3.5432,-3.5432,0.0,0.0,0.0,0.0,0.0,0.0,0.0,0.0,0.0,0.0,-3.0948,0.0,0.0,-3.0224,-3.0521,-3.1237,-3.1389,-3.1779,-3.2527,0.0,-3.3844,-3.4593,-3.519,-3.5519,-3.5519,-3.5519,-3.5519,-3.5519,-3.5519,-3.5519,-3.5519,-3.5519,-3.5519,-3.5519,-3.5519,-3.5519,-3.5519,-3.5519,-3.5519,-3.5519,-3.5519,-3.5519,-3.5519,0.0,0.0,0.0,0.0,0.0,0.0,0.0,-5.4395,-5.531,-5.4871,-5.5615,-5.6156,-5.6156,-5.6393,-5.6461,-5.619,-5.548,-5.4905,-5.46,-5.3923,-5.3518,-5.3518,-5.3518,-5.2841,-5.1454,-4.956,-4.6776,0.0,0.0,0.0,0.0,0.0,0.0,0.0,0.0,-3.7241,-3.8519,-3.9109,-3.9364,-3.9317,-3.9317,-3.8888,-3.8161,-3.7381,-3.6873,-3.6508,-3.575,-3.5519,-3.5519,-3.5519,-3.5519,-3.5519,-3.5519,-3.5519,-3.5519,-3.5519,-3.5519,-3.5519,-3.5519,-3.5519,-3.5519,-3.5519,-3.5519,-3.5519,-3.5519,-3.5519,-3.5519,-3.5519,-3.5519,-3.5519,-3.5519,-3.5519,-3.5519,0.0,0.0,0.0,0.0,0.0,0.0,0.0,0.0,0.0,0.0,0.0,0.0,0.0,0.0,0.0,-3.037,-3.1062,0.0,-3.1899,0.0,-3.3814,-3.4503,-3.516,-3.5519,-3.5519,-3.5519,-3.5519,-3.5519,-3.5519,-3.5519,-3.5519,-3.5519,-3.5519,-3.5519,-3.5519,-3.5519,-3.5519,-3.5519,-3.5519,-3.5519,-3.5519,-3.5519,-3.5519,-4.8161,0.0,-4.9293,0.0,-5.1967,-5.2673,-5.4329,-5.46,-5.4329,-5.3585,-5.4431,-5.5141,-5.5344,-5.5581,-5.5615,-5.5412,-5.4627,-5.4155,-5.4296,-5.3516,-5.3179,-5.3518,-5.3518,0.0,-5.2334,-5.0574,-4.806,-4.4886,-4.1102,0.0,0.0,0.0,0.0,0.0,-3.7528,-3.8213,-3.8868,-3.9585,-3.948,-3.8818,-3.8818,-3.8253,-3.7381,-3.6813,-3.6477,-3.6196,-3.5716,-3.5519,-3.5519,-3.5519,-3.5519,-3.5519,-3.5519,-3.5519,-3.5519,-3.5519,-3.5519,-3.5519,-3.5519,-3.5519,-3.5519,-3.5519,-3.5519,-3.5519,-3.5519,-3.5519,-3.5519,-3.5519,-3.5519,-3.5519,-3.5519,-3.5519,-3.5519,-3.5519,0.0,0.0,0.0,0.0,0.0,0.0,-3.2736,-3.1897,-3.1134,0.0,0.0,0.0,0.0,0.0,0.0,0.0,0.0,0.0,0.0,0.0,0.0,-3.516,-3.5519,-3.5519,-3.5519,-3.5519,-3.5519,-3.5519,-3.5519,-3.5519,-3.5519,-3.5519,-3.5519,-3.5519,-3.5519,-3.5519,-3.5519,-3.5519,-3.5519,-3.5519,-3.5519,-3.5519,-5.1016,-5.2368,-5.3687,-5.4431,-5.5175,-5.5377,-5.4702,-5.46,-5.4329,-5.3585,-5.3518,-5.3788,-5.4532,-5.5277,-5.5412,-5.4668,-5.3623,-5.3147,-5.3484,-5.2522,-5.2383,0.0,0.0,-5.3112,-5.2334,-5.1589,-4.9618,-4.6453,0.0,0.0,-3.7529,0.0,-3.5492,-3.7294,-3.753,-3.8404,-3.9778,-3.981,-3.9395,-3.8818,-3.8818,-3.7924,-3.66,-3.66,-3.6134,-3.5489,-3.5519,-3.5519,-3.5519,-3.5519,-3.5519,-3.5519,-3.5519,-3.5519,-3.5519,-3.5519,-3.5519,-3.5519,-3.5519,-3.5519,-3.5519,-3.5519,-3.5519,-3.5519,-3.5519,-3.5519,-3.5519,-3.5519,-3.5519,-3.5519,-3.5519,-3.5519,-3.5519,-3.5519,0.0,0.0,0.0,0.0,0.0,0.0,-3.2318,-3.1511,-3.1481,0.0,0.0,0.0,0.0,0.0,0.0,0.0,0.0,-3.2497,-3.3784,0.0,-3.4503,-3.516,-3.5519,-3.5519,-3.5519,-3.5519,-3.5519,-3.5519,-3.5519,-3.5519,-3.5519,-3.5519,-3.5519,-3.5519,-3.5519,-3.5519,-3.5519,-3.5519,-3.5519,-3.5519,-3.5519,-3.5519,-5.2739,-5.3585,-5.416,-5.389,-5.4465,-5.4702,-5.3957,-5.3856,-5.3788,-5.3551,-5.3923,-5.416,-5.389,-5.3439,-5.2964,0.0,-5.1696,-5.1797,0.0,-5.2398,-5.2383,-5.345,-5.3518,-5.3382,-5.3112,-5.2367,-5.039,-4.7243,0.0,0.0,0.0,-3.8288,-3.8554,-3.9594,-3.966,-3.9691,-3.9652,-3.9652,-3.9201,-3.8488,-3.803,-3.7319,-3.6483,-3.5997,-3.5686,-3.5519,-3.5519,-3.5789,-3.6118,-3.5639,-3.5789,-3.6088,-3.5639,-3.5519,-3.5519,-3.5519,-3.5519,-3.5519,-3.5519,-3.5519,-3.5519,-3.5519,-3.5519,-3.5519,-3.5519,-3.5519,-3.5326,-3.461,-3.4476,-3.4279,-3.3636,-3.4041,-3.4476,-3.4476,-3.5067,0.0,0.0,0.0,0.0,0.0,-3.3395,-3.2856,0.0,-3.2856,0.0,0.0,0.0,0.0,0.0,0.0,0.0,0.0,-3.3784,0.0,-3.4503,-3.516,-3.5519,-3.5519,-3.5519,-3.5519,-3.5519,-3.5519,-3.5519,-3.5519,-3.5519,-3.5519,-3.5519,-3.5519,-3.5519,-3.5519,-3.5519,-3.5519,-3.5519,-3.5519,-3.5519,-3.5519,-5.3518,-5.3856,-5.4025,-5.3585,-5.389,-5.4025,-5.3585,-5.3518,-5.3585,-5.389,-5.4059,-5.3853,-5.2848,-5.1904,0.0,-5.162,-5.0537,-5.0402,-5.1922,-5.1232,-5.1377,-5.2835,-5.2904,-5.3076,-5.3518,-5.301,0.0,-4.8311,-4.5126,-4.2319,-3.9921,-3.9921,-4.0166,-4.058,-4.058,-4.0341,-3.9856,-3.9646,-3.9092,-3.8362,-3.7943,-3.7404,-3.6776,-3.6387,-3.6207,-3.6207,-3.6207,-3.6477,-3.6746,-3.6088,-3.6148,-3.6357,-3.5699,-3.5519,-3.5519,-3.5519,-3.5519,-3.5519,-3.5519,-3.5519,-3.5519,-3.5519,-3.5519,-3.5519,-3.5519,-3.5198,-3.4773,-3.4143,-3.3705,-3.3325,-3.27,-3.3052,-3.3602,-3.3945,-3.4339,-3.4712,-3.5098,0.0,0.0,0.0,0.0,0.0,0.0,-3.3484,-3.3335,0.0,0.0,0.0,0.0,0.0,0.0,-3.3245,-3.4292,0.0,-3.4861,-3.528,-3.5519,-3.5519,-3.5519,-3.5519,-3.5519,-3.5519,-3.5519,-3.5519,-3.5519,-3.5519,-3.5519,-3.5519,-3.5519,-3.5519,-3.5519,-3.5519,-3.5519,-3.5519,-3.5669,-3.5848,-5.3518,-5.3518,-5.3518,0.0,-5.3518,0.0,-5.3518,-5.3518,-5.3754,-5.4431,-5.3889,-5.2961,-5.1682,-5.0813,-5.0729,-5.1631,0.0,0.0,0.0,-4.9336,-4.9702,-5.174,-5.1813,-5.2277,-5.328,-5.328,-5.1947,-4.9245,-4.4726,-4.1901,-4.0606,-4.0606,-4.0576,-4.0546,-4.0546,-4.0487,-4.0367,-3.9738,-3.908,-3.8452,-3.8422,-3.8033,-3.7464,-3.7434,-3.7404,-3.7404,-3.7404,-3.7434,-3.7375,-3.6776,-3.6537,-3.6447,-3.5789,-3.5549,-3.5519,-3.5519,-3.5519,-3.5519,-3.5519,-3.5519,-3.5519,-3.5519,-3.5519,-3.5519,-3.5519,-3.4739,-3.3979,-3.391,-3.3157,-3.2486,-3.2415,-3.2451,-3.2806,-3.3682,-3.3427,-3.3416,-3.4317,0.0,0.0,0.0,0.0,0.0,0.0,-3.3634,-3.3604,0.0,0.0,0.0,0.0,0.0,-3.3185,-3.4533,-3.516,-3.5519,-3.5519,-3.5519,-3.5519,-3.5519,-3.5519,-3.5519,-3.5519,-3.5519,-3.5519,-3.5519,-3.5519,-3.5519,-3.5519,-3.5519,-3.5519,-3.5519,-3.5519,-3.5519,-3.5519,-3.5549,-3.5968,-3.6417,0.0,0.0,-5.3518,-5.3518,-5.3518,-5.3518,-5.3518,-5.3518,-5.3551,-5.3754,-5.3369,-5.2795,-5.1893,-5.0746,-4.99,-4.9567,-4.8377,-4.8115,-4.9094,-4.8932,-4.9376,-5.0703,-5.0741,-5.0855,-5.115,-5.115,-4.9941,-4.748,-4.5029,-4.3449,-4.2602,-4.2602,-4.2372,-4.1931,-4.1931,-4.1354,-4.0397,-4.0217,-3.9798,-3.914,-3.8601,-3.8302,-3.8093,-3.7584,-3.7404,-3.7404,-3.7404,-3.7734,-3.8063,-3.7404,-3.7195,-3.7075,-3.6447,-3.5908,-3.5519,-3.5519,-3.5519,-3.5519,-3.5519,-3.5519,-3.5519,-3.5519,-3.5519,-3.5519,-3.5519,-3.4739,-3.3808,-3.3052,-3.2164,-3.1315,-3.0608,-3.1044,-3.1667,-3.209,-3.2676,-3.3238,-3.366,-3.3604,0.0,0.0,-3.4264,-3.4442,-3.4981,-3.504,-3.4801,0.0,0.0,0.0,0.0,-3.3694,-3.3873,-3.522,-3.5429,-3.5519,-3.5519,-3.5519,-3.5519,-3.5519,-3.5519,-3.5519,-3.5519,-3.5519,-3.5519,-3.5519,-3.5519,-3.5519,-3.5519,-3.5519,-3.5519,-3.5519,-3.5519,-3.5519,-3.5579,-3.6058,-3.6357,-3.6537,-5.2662,-5.3144,-5.3518,-5.3518,-5.3518,-5.3518,-5.3518,-5.3518,-5.3619,-5.3957,-5.3544,-5.284,-5.1829,-5.0753,-4.9581,-4.8198,-4.7624,-4.7538,-4.8072,-4.8115,-4.8584,-4.9615,-4.9655,-4.9891,-5.0397,-5.0397,-4.9385,-4.73,-4.5607,-4.4436,-4.3738,-4.3439,-4.3,-4.2381,-4.2081,-4.1392,-4.0367,-4.0068,-3.9738,-3.9379,-3.902,-3.8871,-3.8811,-3.8452,-3.8332,-3.8332,-3.8332,-3.8542,-3.8751,-3.8093,-3.7853,-3.7734,-3.7105,-3.6656,-3.6387,-3.6387,-3.5968,-3.5519,-3.5519,-3.5519,-3.5519,-3.5519,-3.5519,-3.5519,-3.5519,-3.4739,-3.3842,-3.3359,-3.2128,-3.1044,-3.0507,-3.0533,-3.0865,-3.1897,-3.1997,-3.243,-3.3777,-3.3694,0.0,-3.4444,-3.4773,-3.51,-3.5459,-3.5519,-3.534,-3.4981,-3.4622,0.0,-3.4921,-3.4622,-3.4741,-3.5489,-3.5519,-3.5519,-3.5519,-3.5519,-3.5519,-3.5519,-3.5519,-3.5519,-3.5519,-3.5519,-3.5519,-3.5519,-3.5519,-3.5519,-3.5519,-3.5519,-3.5519,-3.5519,-3.5519,-3.5699,-3.5968,-3.6028,-3.6596,-3.7285,-5.1667,-5.2522,-5.328,-5.328,-5.3382,-5.3518,-5.3518,-5.3518,-5.3721,-5.4329,-5.372,-5.2755,-5.1469,-5.0632,-4.9407,-4.7452,-4.7309,-4.7309,-4.7309,-4.7309,-4.7679,-4.8512,-4.8553,-4.9004,-4.9891,-4.9931,-4.9182,-4.7577,-4.6029,-4.4975,-4.4317,-4.3589,-4.3,-4.2381,-4.1893,-4.1265,-4.0516,-4.0068,-3.9798,-3.9709,-3.9709,-3.9709,-3.9709,-3.9619,-3.9619,-3.9709,-3.9619,-3.9619,-3.9619,-3.8931,-3.8631,-3.8422,-3.7764,-3.7494,-3.7404,-3.7404,-3.6656,-3.5789,-3.5789,-3.5729,-3.5639,-3.5639,-3.5579,-3.5519,-3.5519,-3.4739,-3.3945,-3.3808,-3.2415,-3.1156,-3.1007,-3.0343,-3.0355,-3.2162,-3.1495,-3.1578,-3.4012,0.0,-3.3844,-3.4444,-3.507,-3.5519,-3.5519,-3.5519,-3.5519,-3.5519,-3.5519,-3.5519,-3.5519,-3.5519,-3.5519,-3.5519,-3.5519,-3.5519,-3.5519,-3.5519,-3.5519,-3.5519,-3.5519,-3.5519,-3.5519,-3.5519,-3.5519,-3.5519,-3.5519,-3.5519,-3.5519,-3.5519,-3.5519,-3.5519,-3.5519,-3.5848,-3.6297,-3.5938,-3.6776,-3.7883,-5.0474,-5.1451,-5.217,-5.217,-5.2904,-5.3518,-5.3518,-5.3518,-5.3551,-5.3653,-5.2764,-5.1736,-5.0711,-4.9678,-4.8553,-4.7409,-4.7309,-4.7309,-4.7309,-4.7309,-4.7396,-4.7538,-4.7538,-4.7624,-4.7764,-4.7764,-4.7377,-4.6545,-4.5687,-4.4975,-4.4317,-4.3589,-4.3,-4.241,-4.2821,-4.2372,-4.1265,-4.1752,-4.1632,-4.1085,-4.1085,-4.1085,-4.1025,-4.0457,-4.0606,-4.0995,-4.0457,-4.0606,-4.0965,-4.0307,-3.9709,-3.914,-3.8452,-3.7853,-3.7404,-3.7404,-3.7255,-3.7105,-3.7105,-3.6716,-3.6327,-3.6327,-3.5908,-3.5519,-3.5519,-3.4739,-3.3774,-3.2982,-3.1947,-3.097,-3.0177,-2.9895,-3.0252,-3.1545,-3.1578,-3.1977,-3.3446,0.0,-3.4384,-3.4503,-3.507,-3.5519,-3.5519,-3.5519,-3.5519,-3.5519,-3.5519,-3.5519,-3.5519,-3.5519,-3.5519,-3.5519,-3.5519,-3.5519,-3.5519,-3.5519,-3.5519,-3.5519,-3.5519,-3.5519,-3.5519,-3.5519,-3.5519,-3.5519,-3.5519,-3.5519,-3.5519,-3.5519,-3.5519,-3.5519,-3.5519,-3.5579,-3.5759,-3.6746,-3.6956,-3.6896,-4.9456,-5.0397,-5.108,-5.108,-5.1521,-5.1846,-5.1846,-5.2608,-5.3096,-5.2694,-5.3031,-5.26,-5.0615,-4.997,-4.9044,-4.7409,-4.7309,-4.7309,-4.7309,-4.7309,-4.7309,-4.7309,-4.7309,-4.7309,-4.7309,-4.7309,-4.716,-4.686,-4.6172,-4.5514,-4.4825,-4.4167,-4.3329,-4.241,-4.2671,-4.2282,-4.1414,-4.1752,-4.1692,-4.1422,-4.1422,-4.1422,-4.1392,-4.1055,-4.1115,-4.1354,-4.1025,-4.1115,-4.1324,-4.1025,-4.0726,-4.0367,-3.9679,-3.926,-3.896,-3.8601,-3.7973,-3.7404,-3.7404,-3.7195,-3.6896,-3.6567,-3.6267,-3.5938,-3.5579,-3.5133,-3.4543,-3.3567,-3.3017,-3.2415,-3.1489,-3.1304,-3.1639,-3.2723,-3.2619,0.0,0.0,-3.4532,-3.4653,-3.4981,-3.531,-3.5519,-3.5519,-3.5519,-3.5519,-3.5519,-3.5519,-3.5519,-3.5519,-3.5519,-3.5519,-3.5519,-3.5519,-3.5519,-3.5519,-3.5519,-3.5519,-3.5519,-3.5519,-3.5519,-3.5519,-3.5519,-3.5519,-3.5519,-3.5519,-3.5519,-3.5519,-3.5519,-3.5519,-3.5519,-3.5519,-3.5938,-3.6567,-3.6806,-3.7404,-3.8003,-4.8429,-4.9296,-5.0009,-5.0009,-5.0242,-5.0397,-5.0397,-5.1534,-5.2323,-5.2181,-5.3228,-5.3116,-5.0916,-5.0493,-4.9567,-4.7495,-4.7309,-4.7309,-4.7309,-4.7309,-4.7309,-4.7309,-4.7309,-4.7309,-4.7309,-4.7309,-4.7309,-4.7309,-4.6651,-4.5963,-4.5274,-4.4616,-4.3629,-4.241,-4.256,-4.2261,-4.1662,-4.1773,-4.1833,-4.1833,-4.1833,-4.1833,-4.1833,-4.1722,-4.1713,-4.1803,-4.1654,-4.1713,-4.1803,-4.1692,-4.1662,-4.1542,-4.0846,-4.0636,-4.0516,-4.0038,-3.902,-3.8063,-3.7913,-3.7764,-3.7524,-3.7045,-3.6806,-3.6567,-3.6058,-3.5848,-3.5436,-3.4414,-3.4128,-3.3705,-3.277,-3.2593,-3.2912,-3.3842,0.0,0.0,0.0,-3.504,-3.4921,-3.5429,-3.5519,-3.5579,-3.5729,-3.5729,-3.5789,-3.5938,-3.5938,-3.5938,-3.5938,-3.5938,-3.5938,-3.5938,-3.5818,-3.5818,-3.5938,-3.5938,-3.5878,-3.5729,-3.5878,-3.5878,-3.5729,-3.5878,-3.5938,-3.5938,-3.5789,-3.5818,-3.5938,-3.5789,-3.5818,-3.5938,-3.5789,-3.6417,-3.7345,-3.6866,-3.7644,-3.8751,-4.7409,-4.821,-4.8891,-4.8891,-4.9734,-5.0397,-5.0397,-5.0538,-5.1145,-5.27,-5.2455,-5.1925,-5.1488,-5.082,-4.9567,-4.7495,-4.7309,-4.7309,-4.7309,-4.7309,-4.7309,-4.7309,-4.7309,-4.7309,-4.7309,-4.7309,-4.7309,-4.7309,-4.6651,-4.5963,-4.5274,-4.4616,-4.3629,-4.241,-4.3,-4.291,-4.2381,-4.294,-4.314,-4.314,-4.314,-4.314,-4.308,-4.256,-4.2671,-4.308,-4.256,-4.2671,-4.305,-4.253,-4.2321,-4.2201,-4.1542,-4.1362,-4.1332,-4.1302,-4.0726,-4.0038,-3.9439,-3.8811,-3.8302,-3.8272,-3.7793,-3.7315,-3.7285,-3.6836,-3.6153,-3.5114,-3.4445,-3.3705,-3.277,-3.2593,-3.2912,-3.3842,0.0,0.0,-3.5359,-3.5459,-3.5459,-3.5489,-3.5519,-3.5759,-3.6357,-3.6417,-3.6656,-3.7225,-3.7255,-3.7255,-3.7255,-3.7255,-3.7255,-3.7255,-3.6716,-3.6686,-3.7255,-3.7255,-3.6985,-3.6417,-3.6985,-3.6956,-3.6447,-3.7015,-3.7255,-3.7225,-3.6656,-3.6746,-3.7225,-3.6656,-3.6746,-3.7195,-3.6626,-3.6836,-3.7404,-3.7375,-3.7434,-3.7614,-4.7309,-4.7624,-4.7861,-4.7861,-4.8198,-4.8613,-4.9013,-5.004,-5.1213,-5.2501,-5.3384,-5.3417,-5.2251,-5.1492,-5.0205,-4.8126,-4.7549,-4.7309,-4.7309,-4.7309,-4.7309,-4.7309,-4.7309,-4.7309,-4.7309,-4.7309,-4.7309,-4.7309,-4.704,-4.6591,-4.5933,-4.5244,-4.4646,-4.4167,-4.4018,-4.3808,-4.3599,-4.3838,-4.3678,-4.329,-4.329,-4.329,-4.326,-4.306,-4.312,-4.326,-4.306,-4.312,-4.326,-4.306,-4.297,-4.2851,-4.2231,-4.2021,-4.1961,-4.1542,-4.1205,-4.0935,-4.0696,-3.9858,-3.8931,-3.8482,-3.8212,-3.7913,-3.7494,-3.7225,-3.6777,-3.5816,-3.5886,-3.5697,-3.4361,-3.4583,-3.501,-3.4931,0.0,-3.5067,-3.5424,-3.5519,-3.5639,-3.6058,-3.6118,-3.6357,-3.6985,-3.7075,-3.7165,-3.7375,-3.7404,-3.7404,-3.7404,-3.7417,-3.7567,-3.8012,-3.7803,-3.7588,-3.7404,-3.7015,-3.6896,-3.7045,-3.6896,-3.6926,-3.7075,-3.7315,-3.7404,-3.7404,-3.7165,-3.7195,-3.7375,-3.7165,-3.7195,-3.7345,-3.6716,-3.7105,-3.7973,-3.7554,-3.7943,-3.8631,-4.7309,-4.7309,-4.7369,-4.7578,-4.7608,-4.7848,-4.8506,-4.9647,-5.096,-5.2603,-5.3661,-5.3915,-5.295,-5.2044,-5.0655,-4.8487,-4.7698,-4.7309,-4.7309,-4.7309,-4.7309,-4.7309,-4.7309,-4.7309,-4.7309,-4.7309,-4.7309,-4.7309,-4.7309,-4.698,-4.6279,-4.5843,-4.5514,-4.5274,-4.4825,-4.4616,-4.4616,-4.4616,-4.4377,-4.3958,-4.3958,-4.3958,-4.3958,-4.3958,-4.3958,-4.3958,-4.3958,-4.3958,-4.3888,-4.3678,-4.3589,-4.3499,-4.288,-4.2671,-4.2581,-4.2132,-4.1833,-4.1722,-4.1722,-4.0876,-3.9858,-3.92,-3.902,-3.8841,-3.8182,-3.7883,-3.7531,-3.6875,-3.7109,-3.7049,-3.5961,-3.631,-3.6626,-3.6178,-3.6118,-3.6118,-3.6118,-3.6118,-3.6267,-3.6716,-3.6776,-3.7015,-3.7644,-3.7704,-3.7793,-3.8033,-3.8033,-3.8033,-3.8033,-3.8047,-3.8262,-3.8702,-3.8702,-3.8487,-3.8033,-3.7614,-3.7494,-3.7704,-3.7494,-3.7524,-3.7704,-3.7704,-3.7704,-3.7704,-3.7494,-3.7524,-3.7704,-3.7704,-3.7853,-3.7973,-3.7345,-3.7764,-3.8631,-3.7973,-3.8452,-3.9313,-4.7309,-4.7309,-4.7519,-4.8177,-4.8297,-4.8506,-4.9209,-4.9329,-5.0327,-5.3223,-5.2965,-5.2805,-5.351,-5.2325,-5.0655,-4.8487,-4.7698,-4.7309,-4.7309,-4.7309,-4.7309,-4.7309,-4.7309,-4.7309,-4.7309,-4.7309,-4.7309,-4.7309,-4.7309,-4.698,-4.6279,-4.6279,-4.5963,-4.5304,-4.5304,-4.5304,-4.5304,-4.5304,-4.5304,-4.5304,-4.5304,-4.5304,-4.5304,-4.5304,-4.5304,-4.5304,-4.5304,-4.5304,-4.5185,-4.4556,-4.4317,-4.4197,-4.3529,-4.3319,-4.329,-4.329,-4.288,-4.241,-4.241,-4.1931,-4.1235,-4.0576,-4.0397,-4.0247,-3.9589,-3.8901,-3.8422,-3.8422,-3.7883,-3.7434,-3.7434,-3.7434,-3.7404,-3.7404,-3.7404,-3.7404,-3.7404,-3.7404,-3.7404,-3.7434,-3.7434,-3.7674,-3.8332,-3.8392,-3.8691,-3.9379,-3.9373,-3.9439,-3.9373,-3.9403,-3.9403,-3.9373,-3.9403,-3.9403,-3.9403,-3.9373,-3.908,-3.8392,-3.908,-3.905,-3.8392,-3.8392,-3.8392,-3.8362,-3.7704,-3.7793,-3.8392,-3.8392,-3.8811,-3.9313,-3.8661,-3.8811,-3.9313,-3.8631,-3.8811,-3.9373,-4.7309,-4.7309,-4.7519,-4.8177,-4.8297,-4.8656,-4.9763,-4.9942,-5.0668,-5.2847,-5.2926,-5.2864,-5.3083,-5.23,-5.1203,-4.9779,-4.8626,-4.7788,-4.7339,-4.7309,-4.7309,-4.7309,-4.7309,-4.7309,-4.7309,-4.7309,-4.7309,-4.7309,-4.7309,-4.7219,-4.701,-4.6488,-4.6441,-4.6681,-4.6232,-4.6022,-4.6022,-4.6022,-4.5753,-4.5304,-4.5304,-4.5304,-4.5304,-4.5304,-4.5304,-4.5304,-4.5304,-4.5304,-4.5274,-4.5065,-4.5005,-4.4975,-4.4766,-4.4706,-4.4616,-4.4167,-4.3868,-4.3629,-4.318,-4.291,-4.2491,-4.1354,-4.1085,-4.1025,-4.0846,-4.0636,-4.0524,-4.0524,-3.9978,-3.9379,-3.8901,-3.8422,-3.7943,-3.7494,-3.7404,-3.7404,-3.7404,-3.7404,-3.7584,-3.8033,-3.8093,-3.8362,-3.905,-3.911,-3.92,-3.9373,-3.9858,-3.9918,-3.9439,-4.0297,-4.0357,-3.9439,-4.0308,-4.0576,-4.0127,-3.917,-3.8841,-3.911,-3.8841,-3.8841,-3.911,-3.911,-3.911,-3.911,-3.8901,-3.8931,-3.911,-3.911,-3.923,-3.9313,-3.8661,-3.8811,-3.9313,-3.8631,-3.8811,-3.9373,-4.7309,-4.7309,-4.7608,-4.8506,-4.8686,-4.9105,-5.0375,-5.0584,-5.1136,-5.2692,-5.29,-5.2807,-5.2529,-5.1921,-5.0949,-4.9584,-4.8745,-4.8117,-4.7728,-4.7698,-4.7578,-4.7309,-4.7309,-4.7309,-4.7309,-4.7309,-4.7309,-4.7309,-4.7309,-4.7309,-4.7309,-4.689,-4.692,-4.7279,-4.689,-4.6711,-4.6711,-4.6711,-4.6471,-4.6082,-4.6082,-4.6082,-4.6082,-4.6082,-4.6082,-4.6082,-4.6082,-4.6082,-4.6052,-4.5783,-4.5514,-4.5304,-4.5304,-4.5304,-4.5214,-4.4825,-4.4526,-4.4227,-4.3838,-4.3499,-4.311,-4.2342,-4.1953,-4.1752,-4.1482,-4.1422,-4.1422,-4.1422,-4.1055,-4.0666,-4.0277,-3.9858,-3.9439,-3.905,-3.899,-3.899,-3.899,-3.899,-3.914,-3.9529,-3.9349,-3.9439,-4.0127,-3.9948,-3.9918,-4.0187,-4.0576,-4.0606,-4.0217,-4.0958,-4.1018,-4.0217,-4.0972,-4.1211,-4.0786,-3.9978,-3.9649,-3.9798,-3.911,-3.902,-3.9373,-3.914,-3.902,-3.902,-3.902,-3.902,-3.902,-3.932,-3.9373,-3.9379,-3.896,-3.905,-3.9343,-3.896,-3.905,-3.9373,-4.7309,-4.7309,-4.7698,-4.9,-4.9209,-4.9629,-5.084,-5.105,-5.1437,-5.2527,-5.263,-5.2414,-5.184,-5.1191,-5.0217,-4.8595,-4.8446,-4.8416,-4.8297,-4.8297,-4.7997,-4.7339,-4.7309,-4.7309,-4.7309,-4.7309,-4.7309,-4.7309,-4.7309,-4.7309,-4.7309,-4.7309,-4.7309,-4.7309,-4.7309,-4.7309,-4.7309,-4.7309,-4.7309,-4.7309,-4.7309,-4.7309,-4.7309,-4.7309,-4.7309,-4.7309,-4.7309,-4.7309,-4.7219,-4.6621,-4.5992,-4.5484,-4.5484,-4.5484,-4.5454,-4.5394,-4.4975,-4.4496,-4.4436,-4.3888,-4.3379,-4.3379,-4.294,-4.2321,-4.1722,-4.1564,-4.1564,-4.1564,-4.1504,-4.1512,-4.1512,-4.1452,-4.1422,-4.1422,-4.1422,-4.1422,-4.1422,-4.1422,-4.1422,-4.1422,-4.0846,-4.0726,-4.1324,-4.0846,-4.0726,-4.1324,-4.1482,-4.1482,-4.1422,-4.1504,-4.1504,-4.1422,-4.1504,-4.1534,-4.1512,-4.1512,-4.1145,-4.0487,-3.9888,-3.9589,-3.9559,-3.8871,-3.8571,-3.8571,-3.8512,-3.8482,-3.8542,-3.917,-3.9373,-3.9373,-3.9373,-3.9469,-3.9499,-3.9499,-3.9559,-3.9619,-4.7309,-4.7309,-4.7549,-4.8356,-4.8506,-4.8775,-4.9583,-4.9703,-4.9944,-5.0683,-5.0788,-5.0728,-5.0577,-5.0427,-5.0216,-4.9823,-4.9777,-4.9374,-4.8356,-4.8297,-4.7997,-4.7339,-4.7309,-4.7309,-4.7309,-4.7309,-4.7309,-4.7309,-4.7309,-4.7309,-4.7309,-4.7309,-4.7309,-4.7309,-4.7309,-4.7309,-4.7309,-4.7309,-4.7309,-4.7309,-4.7309,-4.7309,-4.7309,-4.7309,-4.7309,-4.7309,-4.7309,-4.7309,-4.7279,-4.713,-4.701,-4.686,-4.686,-4.686,-4.677,-4.6262,-4.5992,-4.5783,-4.5214,-4.4616,-4.4067,-4.4067,-4.3599,-4.309,-4.2901,-4.2871,-4.2871,-4.2871,-4.2491,-4.2201,-4.2201,-4.1752,-4.1422,-4.1422,-4.1422,-4.1422,-4.1422,-4.1422,-4.1422,-4.1422,-4.1265,-4.1235,-4.1422,-4.1302,-4.1235,-4.1422,-4.1901,-4.1961,-4.1452,-4.2372,-4.2432,-4.1414,-4.2372,-4.2671,-4.2201,-4.2201,-4.1871,-4.1175,-4.1025,-4.0965,-4.0935,-4.0277,-3.9978,-3.9948,-3.9409,-3.92,-3.92,-3.9313,-3.9373,-3.9373,-3.9373,-3.9738,-4.0187,-4.0187,-4.0516,-4.1025,-4.7309,-4.7309,-4.7608,-4.8566,-4.8506,-4.8626,-4.9583,-4.9464,-4.9419,-4.9733,-4.9763,-4.9643,-4.9344,-4.9314,-4.9434,-4.9733,-5.0016,-4.9823,-4.8805,-4.879,-4.8327,-4.7339,-4.7309,-4.7309,-4.7309,-4.7309,-4.7309,-4.7309,-4.7309,-4.7309,-4.7309,-4.7309,-4.7309,-4.7309,-4.7309,-4.7309,-4.7309,-4.7309,-4.7309,-4.7309,-4.7309,-4.7309,-4.7309,-4.7309,-4.7309,-4.7309,-4.7309,-4.7309,-4.7309,-4.7309,-4.7309,-4.7309,-4.7309,-4.7309,-4.7249,-4.689,-4.6561,-4.619,-4.5873,-4.5304,-4.4796,-4.4796,-4.4526,-4.4107,-4.3439,-4.329,-4.3379,-4.3708,-4.3539,-4.3299,-4.3299,-4.3,-4.2671,-4.2372,-4.2312,-4.2312,-4.2312,-4.2312,-4.2312,-4.2312,-4.2043,-4.1901,-4.1901,-4.2132,-4.2312,-4.2312,-4.2641,-4.2671,-4.2342,-4.2931,-4.2991,-4.2342,-4.2931,-4.314,-4.2821,-4.2821,-4.2641,-4.2312,-4.1683,-4.1422,-4.1422,-4.1025,-4.0696,-4.0367,-4.0038,-3.9709,-3.9403,-3.9768,-3.9888,-3.9918,-4.0217,-4.0367,-4.0427,-4.0756,-4.1085,-4.1512,-4.7309,-4.7309,-4.7638,-4.8745,-4.8476,-4.8476,-4.9538,-4.9284,-4.903,-4.912,-4.9149,-4.894,-4.8356,-4.8386,-4.8686,-4.9269,-4.9972,-5.0122,-4.9464,-4.9389,-4.876,-4.7519,-4.7489,-4.7489,-4.7489,-4.7489,-4.7429,-4.7309,-4.7309,-4.7309,-4.7309,-4.7309,-4.7309,-4.7309,-4.7309,-4.7309,-4.7309,-4.7309,-4.7309,-4.7309,-4.7309,-4.7309,-4.7309,-4.7309,-4.7309,-4.7309,-4.7309,-4.7309,-4.7309,-4.7309,-4.7309,-4.7309,-4.7309,-4.7309,-4.7309,-4.7309,-4.692,-4.6459,-4.6459,-4.5992,-4.5454,-4.5454,-4.5394,-4.5005,-4.3888,-4.3618,-4.3798,-4.4377,-4.4496,-4.4496,-4.4496,-4.4496,-4.4257,-4.3559,-4.3469,-4.3409,-4.3319,-4.3379,-4.3469,-4.3469,-4.312,-4.292,-4.292,-4.3359,-4.3618,-4.3618,-4.3529,-4.3469,-4.3469,-4.3349,-4.329,-4.329,-4.329,-4.329,-4.329,-4.329,-4.329,-4.329,-4.2222,-4.1713,-4.1713,-4.1632,-4.1302,-4.0726,-4.0606,-4.0247,-3.9798,-4.0337,-4.0576,-4.0636,-4.1175,-4.1115,-4.0816,-4.1474,-4.1713,-4.1773,-4.7309,-4.7309,-4.7369,-4.7549,-4.7489,-4.7489,-4.7668,-4.7638,-4.7788,-4.8356,-4.8416,-4.8386,-4.8297,-4.885,-4.9209,-4.9299,-5.0391,-5.0764,-5.0106,-4.9583,-4.897,-4.8177,-4.8147,-4.8147,-4.8147,-4.8147,-4.7878,-4.7309,-4.7309,-4.7309,-4.7309,-4.7309,-4.7309,-4.7309,-4.7309,-4.7309,-4.7309,-4.7309,-4.7309,-4.7309,-4.7309,-4.7309,-4.7309,-4.7309,-4.7309,-4.7309,-4.7309,-4.7309,-4.7309,-4.7309,-4.7309,-4.7309,-4.7309,-4.7309,-4.7309,-4.7309,-4.7249,-4.716,-4.716,-4.6681,-4.613,-4.613,-4.5753,-4.5244,-4.5065,-4.5035,-4.5065,-4.5155,-4.5155,-4.5155,-4.5155,-4.5155,-4.4945,-4.4287,-4.4167,-4.3947,-4.3379,-4.3798,-4.4167,-4.4167,-4.4616,-4.4885,-4.4885,-4.4975,-4.5035,-4.5035,-4.4496,-4.4167,-4.4167,-4.3618,-4.329,-4.329,-4.329,-4.329,-4.329,-4.329,-4.329,-4.329,-4.311,-4.3021,-4.3021,-4.2491,-4.2231,-4.2111,-4.1542,-4.1205,-4.1115,-4.1205,-4.1235,-4.1265,-4.1354,-4.1722,-4.2201,-4.2821,-4.3021,-4.305,-4.6255,-4.5689,-4.5321,-4.5666,-4.6011,-4.6372,-4.6724,-4.7051,-4.7399,-4.7698,-4.7728,-4.7878,-4.8237,-4.891,-4.9299,-4.9299,-5.0122,-5.0495,-5.0226,-4.9643,-4.903,-4.8327,-4.7938,-4.7728,-4.7728,-4.7728,-4.7608,-4.7309,-4.7309,-4.7309,-4.7309,-4.7309,-4.7309,-4.7309,-4.7309,-4.7309,-4.7309,-4.7309,-4.7309,-4.7309,-4.7309,-4.7309,-4.7309,-4.7309,-4.7309,-4.7309,-4.7309,-4.7309,-4.7309,-4.7309,-4.7309,-4.7309,-4.7309,-4.7309,-4.7309,-4.7309,-4.7309,-4.7309,-4.7309,-4.71,-4.686,-4.686,-4.6651,-4.6411,-4.6411,-4.6411,-4.6322,-4.5933,-4.5873,-4.5873,-4.5873,-4.5873,-4.5633,-4.4975,-4.4855,-4.4766,-4.4466,-4.4676,-4.4855,-4.4855,-4.5125,-4.5304,-4.5304,-4.5304,-4.5304,-4.5304,-4.5035,-4.4706,-4.4347,-4.4007,-4.3858,-4.3858,-4.3499,-4.3469,-4.3828,-4.3469,-4.329,-4.329,-4.329,-4.329,-4.329,-4.303,-4.2701,-4.2381,-4.2081,-4.1752,-4.1452,-4.1811,-4.1961,-4.1991,-4.2342,-4.2641,-4.288,-4.2821,-4.303,-4.329]},{"header":{"parameterUnit":"m.s-1","parameterCategory":1,"la1":30.6,"la2":28.766,"lo1":-90.7593,"lo2":-88.6598,"dy":0.0162,"dx":0.0183,"nx":116,"ny":114,"refTime":"2024-05-02T12:00:00:Z","depth":0,"parameterNumber":3,"parameterNumberName":"V-component_of_WINDS"},"data":[0.0,0.0,0.0,0.0,0.0,0.0,0.0,0.0,0.0,0.0,0.0,0.0,0.0,0.0,0.0,0.0,0.0,0.0,0.0,0.0,0.0,0.0,0.0,0.0,0.0,0.0,0.0,0.0,0.0,0.0,0.0,0.0,0.0,0.0,0.0,0.0,0.0,0.0,0.0,0.0,0.0,0.0,0.0,0.0,0.0,0.0,0.0,0.0,0.0,0.0,0.0,0.0,0.0,0.0,0.0,0.0,0.0,0.0,0.0,0.0,0.0,0.0,0.0,0.0,0.0,0.0,0.0,0.0,0.0,0.0,0.0,0.0,0.0,0.0,0.0,0.0,0.0,0.0,0.0,0.0,0.0,0.0,0.0,0.0,0.0,0.0,0.0,0.0,0.0,0.0,0.0,0.0,0.0,0.0,0.0,0.0,0.0,0.0,0.0,0.0,0.0,0.0,0.0,0.0,0.0,0.0,0.0,0.0,0.0,0.0,0.0,0.0,0.0,0.0,0.0,0.0,0.0,0.0,0.0,0.0,0.0,0.0,0.0,0.0,0.0,0.0,0.0,0.0,0.0,0.0,0.0,0.0,0.0,0.0,0.0,0.0,0.0,0.0,0.0,0.0,0.0,0.0,0.0,0.0,0.0,0.0,0.0,0.0,0.0,0.0,0.0,0.0,0.0,0.0,0.0,0.0,0.0,0.0,0.0,0.0,0.0,0.0,0.0,0.0,0.0,0.0,0.0,0.0,0.0,0.0,0.0,0.0,0.0,0.0,0.0,0.0,0.0,0.0,0.0,0.0,0.0,0.0,0.0,0.0,0.0,0.0,0.0,0.0,0.0,0.0,0.0,0.0,0.0,0.0,0.0,0.0,0.0,0.0,0.0,0.0,0.0,0.0,0.0,0.0,0.0,0.0,0.0,0.0,0.0,0.0,0.0,0.0,0.0,0.0,0.0,0.0,0.0,0.0,0.0,0.0,0.0,0.0,0.0,0.0,0.0,0.0,0.0,0.0,0.0,0.0,0.0,0.0,0.0,0.0,0.0,0.0,0.0,0.0,0.0,0.0,0.0,0.0,0.0,0.0,0.0,0.0,0.0,0.0,0.0,0.0,0.0,0.0,0.0,0.0,0.0,0.0,0.0,0.0,0.0,0.0,0.0,0.0,0.0,0.0,0.0,0.0,0.0,0.0,0.0,0.0,0.0,0.0,0.0,0.0,0.0,0.0,0.0,0.0,0.0,0.0,0.0,0.0,0.0,0.0,0.0,0.0,0.0,0.0,0.0,0.0,0.0,0.0,0.0,0.0,0.0,0.0,0.0,0.0,0.0,0.0,0.0,0.0,0.0,0.0,0.0,0.0,0.0,0.0,0.0,0.0,0.0,0.0,0.0,0.0,0.0,0.0,0.0,0.0,0.0,0.0,0.0,0.0,0.0,0.0,0.0,0.0,0.0,0.0,0.0,0.0,0.0,0.0,0.0,0.0,0.0,0.0,0.0,0.0,0.0,0.0,0.0,0.0,0.0,0.0,0.0,0.0,0.0,0.0,0.0,0.0,0.0,0.0,0.0,0.0,0.0,0.0,0.0,0.0,0.0,0.0,0.0,0.0,0.0,0.0,0.0,0.0,0.0,0.0,0.0,0.0,0.0,0.0,0.0,0.0,0.0,0.0,0.0,0.0,0.0,0.0,0.0,0.0,0.0,0.0,0.0,0.0,0.0,0.0,0.0,0.0,0.0,0.0,0.0,0.0,0.0,0.0,0.0,0.0,0.0,0.0,0.0,0.0,0.0,0.0,0.0,0.0,0.0,0.0,0.0,0.0,0.0,0.0,0.0,0.0,0.0,0.0,0.0,0.0,0.0,0.0,0.0,0.0,0.0,0.0,0.0,0.0,0.0,0.0,0.0,0.0,0.0,0.0,0.0,0.0,0.0,0.0,0.0,0.0,0.0,0.0,0.0,0.0,0.0,0.0,0.0,0.0,0.0,0.0,0.0,0.0,0.0,0.0,0.0,0.0,0.0,0.0,0.0,0.0,0.0,0.0,0.0,0.0,0.0,0.0,0.0,0.0,0.0,0.0,0.0,0.0,0.0,0.0,0.0,0.0,0.0,0.0,0.0,0.0,0.0,0.0,0.0,0.0,0.0,0.0,0.0,0.0,0.0,0.0,0.0,0.0,0.0,0.0,0.0,0.0,0.0,0.0,0.0,0.0,0.0,0.0,0.0,0.0,0.0,0.0,0.0,0.0,0.0,0.0,0.0,0.0,0.0,0.0,0.0,0.0,0.0,0.0,0.0,0.0,0.0,0.0,0.0,0.0,0.0,0.0,0.0,0.0,0.0,0.0,0.0,0.0,0.0,0.0,0.0,0.0,0.0,0.0,0.0,0.0,0.0,0.0,0.0,0.0,0.0,0.0,0.0,0.0,0.0,0.0,0.0,0.0,0.0,0.0,0.0,0.0,0.0,0.0,0.0,0.0,0.0,0.0,0.0,0.0,0.0,0.0,0.0,0.0,0.0,0.0,0.0,0.0,0.0,0.0,0.0,0.0,0.0,0.0,0.0,0.0,0.0,0.0,0.0,0.0,0.0,0.0,0.0,0.0,0.0,0.0,0.0,0.0,0.0,0.0,0.0,0.0,0.0,0.0,0.0,0.0,0.0,0.0,0.0,0.0,0.0,0.0,0.0,0.0,0.0,0.0,0.0,0.0,0.0,0.0,0.0,0.0,0.0,0.0,0.0,0.0,0.0,0.0,0.0,0.0,0.0,0.0,0.0,0.0,0.0,0.0,0.0,0.0,0.0,0.0,0.0,0.0,0.0,0.0,0.0,0.0,0.0,0.0,0.0,0.0,0.0,0.0,0.0,0.0,0.0,0.0,0.0,0.0,0.0,0.0,0.0,0.0,0.0,0.0,0.0,0.0,0.0,0.0,0.0,0.0,0.0,0.0,0.0,0.0,0.0,0.0,0.0,0.0,0.0,0.0,0.0,0.0,0.0,0.0,0.0,0.0,0.0,0.0,0.0,0.0,0.0,0.0,0.0,0.0,0.0,0.0,0.0,0.0,0.0,0.0,0.0,0.0,0.0,0.0,0.0,0.0,0.0,0.0,0.0,0.0,0.0,0.0,0.0,0.0,0.0,0.0,0.0,0.0,0.0,0.0,0.0,0.0,0.0,0.0,0.0,0.0,0.0,0.0,0.0,0.0,0.0,0.0,0.0,0.0,0.0,0.0,0.0,0.0,0.0,0.0,0.0,0.0,0.0,0.0,0.0,0.0,0.0,0.0,0.0,0.0,0.0,0.0,0.0,0.0,0.0,0.0,0.0,0.0,0.0,0.0,0.0,0.0,0.0,0.0,0.0,0.0,0.0,0.0,0.0,0.0,0.0,0.0,0.0,0.0,0.0,0.0,0.0,0.0,0.0,0.0,0.0,0.0,0.0,0.0,0.0,0.0,0.0,0.0,0.0,0.0,0.0,0.0,0.0,0.0,0.0,0.0,0.0,0.0,0.0,0.0,0.0,0.0,0.0,0.0,0.0,0.0,0.0,0.0,0.0,0.0,0.0,0.0,0.0,0.0,0.0,0.0,0.0,0.0,0.0,0.0,0.0,0.0,0.0,0.0,0.0,0.0,0.0,0.0,0.0,0.0,0.0,0.0,0.0,0.0,0.0,0.0,0.0,0.0,0.0,0.0,0.0,0.0,0.0,0.0,0.0,0.0,0.0,0.0,0.0,0.0,0.0,0.0,0.0,0.0,0.0,0.0,0.0,0.0,0.0,0.0,0.0,0.0,0.0,0.0,0.0,0.0,0.0,0.0,0.0,0.0,0.0,0.0,0.0,0.0,0.0,0.0,0.0,0.0,0.0,0.0,0.0,0.0,0.0,0.0,0.0,0.0,0.0,0.0,0.0,0.0,0.0,0.0,0.0,0.0,0.0,0.0,0.0,0.0,0.0,0.0,0.0,0.0,0.0,0.0,0.0,0.0,0.0,0.0,0.0,0.0,0.0,0.0,0.0,0.0,0.0,0.0,0.0,0.0,0.0,0.0,0.0,0.0,0.0,0.0,0.0,0.0,0.0,0.0,0.0,0.0,0.0,0.0,0.0,0.0,0.0,0.0,0.0,0.0,0.0,0.0,0.0,0.0,0.0,0.0,0.0,0.0,0.0,0.0,0.0,0.0,0.0,0.0,0.0,0.0,0.0,0.0,0.0,0.0,0.0,0.0,0.0,0.0,0.0,0.0,0.0,0.0,0.0,0.0,0.0,0.0,0.0,0.0,0.0,0.0,0.0,0.0,0.0,0.0,0.0,0.0,0.0,0.0,0.0,0.0,0.0,0.0,0.0,0.0,0.0,0.0,0.0,0.0,0.0,0.0,0.0,0.0,0.0,0.0,0.0,0.0,0.0,0.0,0.0,0.0,0.0,0.0,0.0,0.0,0.0,0.0,0.0,0.0,0.0,0.0,0.0,0.0,0.0,0.0,0.0,0.0,0.0,0.0,0.0,0.0,0.0,0.0,0.0,0.0,0.0,0.0,0.0,0.0,0.0,0.0,0.0,0.0,0.0,0.0,0.0,0.0,0.0,0.0,0.0,0.0,0.0,0.0,0.0,0.0,0.0,0.0,0.0,0.0,0.0,0.0,0.0,0.0,0.0,0.0,0.0,0.0,0.0,0.0,0.0,0.0,0.0,0.0,0.0,0.0,0.0,0.0,0.0,0.0,0.0,0.0,0.0,0.0,0.0,0.0,0.0,0.0,0.0,0.0,0.0,0.0,0.0,0.0,0.0,0.0,0.0,0.0,0.0,0.0,0.0,0.0,0.0,0.0,0.0,0.0,0.0,0.0,0.0,0.0,0.0,0.0,0.0,0.0,0.0,0.0,0.0,0.0,0.0,0.0,0.0,0.0,0.0,0.0,0.0,0.0,0.0,0.0,0.0,0.0,0.0,0.0,0.0,0.0,0.0,0.0,0.0,0.0,0.0,0.0,0.0,0.0,0.0,0.0,0.0,0.0,0.0,0.0,0.0,0.0,0.0,0.0,0.0,0.0,0.0,0.0,0.0,0.0,0.0,0.0,0.0,0.0,0.0,0.0,0.0,0.0,0.0,0.0,0.0,0.0,0.0,0.0,0.0,0.0,0.0,0.0,0.0,0.0,0.0,0.0,0.0,0.0,0.0,0.0,0.0,0.0,0.0,0.0,0.0,0.0,0.0,0.0,0.0,0.0,0.0,0.0,0.0,0.0,0.0,0.0,0.0,0.0,0.0,0.0,0.0,0.0,0.0,0.0,0.0,0.0,0.0,0.0,0.0,0.0,0.0,0.0,0.0,0.0,0.0,0.0,0.0,0.0,0.0,0.0,0.0,0.0,0.0,0.0,0.0,0.0,0.0,0.0,0.0,0.0,0.0,0.0,0.0,0.0,0.0,0.0,0.0,0.0,0.0,0.0,0.0,0.0,0.0,0.0,0.0,0.0,0.0,0.0,0.0,0.0,0.0,0.0,0.0,0.0,0.0,0.0,0.0,0.0,0.0,0.0,0.0,0.0,0.0,0.0,0.0,0.0,0.0,0.0,0.0,0.0,0.0,0.0,0.0,0.0,0.0,0.0,0.0,0.0,0.0,0.0,0.0,0.0,0.0,0.0,0.0,0.0,0.0,0.0,0.0,0.0,0.0,0.0,0.0,0.0,0.0,0.0,0.0,0.0,0.0,0.0,0.0,0.0,0.0,0.0,0.0,0.0,0.0,0.0,0.0,0.0,0.0,0.0,0.0,0.0,0.0,0.0,0.0,0.0,0.0,0.0,0.0,0.0,0.0,0.0,0.0,0.0,0.0,0.0,0.0,0.0,0.0,0.0,0.0,0.0,0.0,0.0,0.0,0.0,0.0,0.0,0.0,0.0,0.0,0.0,0.0,0.0,0.0,0.0,0.0,0.0,0.0,0.0,0.0,0.0,0.0,0.0,0.0,0.0,0.0,0.0,0.0,0.0,0.0,0.0,0.0,0.0,0.0,0.0,0.0,0.0,0.0,0.0,0.0,0.0,0.0,0.0,0.0,0.0,0.0,0.0,0.0,0.0,0.0,0.0,0.0,0.0,0.0,0.0,0.0,0.0,0.0,0.0,1.3047,0.0,0.0,0.0,0.0,0.0,0.0,0.0,0.0,0.0,0.0,0.0,0.0,0.0,0.0,0.0,0.0,0.0,0.0,0.0,0.0,0.0,0.0,0.0,0.0,1.1124,1.1026,1.0939,1.0795,1.0898,1.1389,0.0,0.0,0.0,0.0,0.0,1.1518,1.11,1.1068,1.1393,1.1481,1.1704,1.207,1.2683,1.2839,1.2537,0.0,0.0,0.0,0.0,0.0,0.0,0.0,0.0,0.0,0.0,0.0,0.0,0.0,0.0,0.0,0.0,0.0,0.0,0.0,0.0,0.0,0.0,0.0,0.0,0.0,0.0,0.0,0.0,0.0,0.0,0.0,0.0,0.0,0.0,0.0,0.0,0.0,0.0,0.0,0.0,0.0,0.0,0.0,0.0,0.0,0.0,0.0,0.0,0.0,0.0,0.0,0.0,0.0,0.0,0.0,0.0,0.0,0.0,0.0,0.0,0.0,0.0,0.0,0.0,0.0,0.0,0.0,0.0,0.0,0.0,0.0,1.3591,0.0,0.0,0.0,0.0,0.0,0.0,0.0,0.0,0.0,0.0,0.0,0.0,0.0,0.0,0.0,0.0,0.0,0.0,0.0,0.0,0.0,1.1204,1.138,1.1226,1.1198,1.1497,1.1039,1.0974,1.1573,1.122,0.0,0.0,1.1347,1.1365,1.2053,1.165,1.1463,1.1494,1.1939,1.285,1.412,1.5047,1.4916,1.3871,1.3904,0.0,0.0,0.0,0.0,0.0,0.0,0.0,0.0,0.0,0.0,0.0,0.0,0.0,0.0,0.0,0.0,0.0,0.0,0.0,0.0,0.0,0.0,0.0,0.0,0.0,0.0,0.0,0.0,0.0,0.0,0.0,0.0,0.0,0.0,0.0,0.0,0.0,0.0,0.0,0.0,0.0,0.0,0.0,0.0,0.0,0.0,0.0,0.0,0.0,0.0,0.0,0.0,0.0,0.0,0.0,0.0,0.0,0.0,0.0,0.0,0.0,0.0,0.0,1.3196,1.2964,1.2926,1.3611,1.4398,1.5211,1.553,1.5315,1.4763,1.4917,0.0,0.0,0.0,0.0,0.0,0.0,0.0,0.0,0.0,0.0,0.0,0.0,0.0,0.0,0.0,0.0,0.0,0.0,0.0,1.0871,1.0683,1.0601,1.0771,1.1192,1.1439,1.181,1.2404,1.2265,1.2302,1.2572,1.2383,1.2053,1.1607,1.2351,1.2339,1.1494,1.2941,1.4588,1.6451,1.7078,1.7345,1.7245,1.5004,1.4414,1.5044,0.0,0.0,0.0,0.0,0.0,0.0,0.0,0.0,0.0,0.0,0.0,0.0,0.0,0.0,0.0,0.0,0.0,0.0,0.0,0.0,0.0,0.0,0.0,0.0,0.0,0.0,0.0,0.0,0.0,0.0,0.0,0.0,0.0,0.0,0.0,0.0,0.0,0.0,0.0,0.0,0.0,1.4245,1.4841,0.0,0.0,0.0,0.0,0.0,0.0,0.0,0.0,0.0,0.0,0.0,0.0,0.0,1.4442,1.348,1.3959,1.4388,1.4778,1.5759,1.608,1.5864,1.6776,1.811,1.9702,2.0052,0.0,1.6528,1.7115,0.0,0.0,0.0,0.0,0.0,0.0,0.0,0.0,0.0,0.0,0.0,0.0,0.0,0.0,0.0,0.0,0.0,0.0,0.0,0.0,0.0,1.1552,1.2477,1.3286,1.4496,1.502,1.4449,1.4722,1.4473,1.3584,1.3195,1.3073,1.3182,1.278,1.2776,1.3231,1.534,1.703,1.8282,1.8996,1.938,1.9394,1.7943,1.7149,1.6753,1.5849,0.0,0.0,0.0,0.0,0.0,0.0,0.0,0.0,0.0,0.0,0.0,0.0,0.0,0.0,0.0,0.0,0.0,0.0,0.0,0.0,0.0,0.0,0.0,0.0,0.0,0.0,0.0,0.0,0.0,0.0,0.0,0.0,0.0,0.0,0.0,0.0,0.0,0.0,0.0,1.4056,1.353,1.3476,1.3499,1.3439,0.0,0.0,0.0,0.0,0.0,0.0,0.0,0.0,0.0,1.4701,1.5656,1.5706,1.4616,1.5517,1.5904,1.5743,1.6615,1.7403,1.812,1.8485,1.9931,2.2077,2.224,2.1731,2.069,1.9935,1.8709,1.724,0.0,0.0,0.0,0.0,1.6018,1.6192,0.0,0.0,0.0,0.0,0.0,0.0,0.0,0.0,0.0,0.0,0.0,0.0,1.1528,1.2842,1.4152,1.5394,1.6792,1.7156,1.6081,1.6164,1.5707,1.4427,1.3872,1.3908,1.4535,1.3728,1.4053,1.5675,1.7827,1.9325,2.0137,2.0879,2.123,2.1211,2.0996,2.0137,1.8715,1.7525,1.6741,1.6116,0.0,0.0,0.0,0.0,0.0,0.0,0.0,0.0,0.0,0.0,0.0,0.0,0.0,0.0,0.0,0.0,0.0,0.0,0.0,0.0,0.0,0.0,0.0,0.0,0.0,0.0,0.0,0.0,0.0,0.0,0.0,0.0,0.0,0.0,0.0,0.0,0.0,1.3992,1.3601,1.2923,1.3346,1.3534,0.0,0.0,0.0,0.0,0.0,0.0,1.587,1.6154,1.6435,1.6862,1.7259,1.7046,1.6072,1.7415,1.7825,1.7263,1.8113,1.9052,2.0012,2.0012,2.1263,2.3414,2.3414,2.37,2.4004,2.2193,2.0286,1.842,1.8127,1.7468,1.68,1.7325,1.7663,1.8031,0.0,0.0,0.0,0.0,0.0,0.0,0.0,0.0,0.0,0.0,0.0,1.1363,1.3423,1.4069,1.5059,1.6747,1.6718,1.6567,1.656,1.5464,1.4824,1.4858,1.4405,1.4338,1.4683,1.568,1.6966,1.8594,1.9868,2.1113,2.2363,2.275,2.2964,2.2984,2.3418,2.2656,2.0898,1.8828,1.8012,1.7891,1.5854,0.0,0.0,0.0,0.0,0.0,0.0,0.0,0.0,0.0,0.0,0.0,0.0,0.0,0.0,0.0,0.0,0.0,0.0,0.0,0.0,0.0,0.0,0.0,0.0,0.0,0.0,0.0,0.0,0.0,0.0,0.0,0.0,0.0,0.0,0.0,0.0,0.0,0.0,1.4639,1.5151,0.0,0.0,0.0,0.0,1.6243,1.512,1.5428,1.7846,1.7855,1.823,1.9219,1.9125,1.8698,1.7862,1.9607,2.0306,1.9925,2.1358,2.187,2.1576,2.1576,2.2332,2.3665,2.3665,2.4212,2.491,2.314,2.2146,2.1578,2.0742,1.9847,1.9085,1.9564,1.9468,1.9164,0.0,0.0,0.0,1.4787,1.4811,1.4787,1.4741,1.3401,1.2507,1.2828,1.2464,1.2632,1.3876,1.5958,1.7658,1.8514,1.9561,1.9634,1.8364,1.7733,1.6983,1.6028,1.5537,1.5452,1.5804,1.778,1.8994,1.9333,2.1013,2.2187,2.2867,2.3023,2.3101,2.312,2.3594,2.3457,2.2773,2.1172,1.9904,1.8727,1.6698,1.5427,0.0,0.0,0.0,0.0,0.0,0.0,0.0,0.0,0.0,0.0,0.0,0.0,0.0,0.0,0.0,0.0,0.0,0.0,0.0,0.0,0.0,0.0,0.0,0.0,0.0,0.0,0.0,0.0,0.0,0.0,0.0,0.0,0.0,0.0,0.0,0.0,0.0,1.467,1.5787,0.0,1.5327,1.5166,1.54,1.6001,1.592,1.6905,1.9245,1.9349,1.9628,2.0321,2.0293,1.9716,1.8611,1.9443,2.0045,2.0488,2.1186,2.244,2.4227,2.4227,2.4796,2.5819,2.5819,2.5687,2.543,2.4531,2.375,2.3047,2.2503,2.2058,2.1686,2.1615,2.1649,2.1786,0.0,1.488,0.0,1.488,1.4903,1.488,1.4834,1.3596,1.2845,1.3376,1.3464,1.4017,1.537,1.7861,1.9707,2.0243,2.104,2.0736,1.8871,1.8137,1.7216,1.5977,1.6214,1.6537,1.6906,1.9318,2.05,2.0391,2.1948,2.2828,2.3101,2.3101,2.3101,2.312,2.375,2.3926,2.375,2.3203,2.1916,2.0019,1.8123,1.6906,1.5969,0.0,0.0,0.0,0.0,0.0,0.0,0.0,0.0,0.0,0.0,0.0,0.0,0.0,0.0,0.0,0.0,0.0,0.0,0.0,0.0,0.0,0.0,0.0,0.0,0.0,0.0,0.0,0.0,0.0,0.0,0.0,0.0,0.0,0.0,0.0,1.7084,1.5295,1.6597,1.7198,1.5998,1.641,1.6891,1.7171,1.7977,1.9353,2.1441,2.1705,2.2127,2.2863,2.1872,2.0869,1.9835,2.0544,2.1107,2.1581,2.2781,2.4291,2.6061,2.6061,2.6399,2.7012,2.6875,2.6484,2.5918,2.5488,2.4961,2.4394,2.3809,2.3496,2.3276,2.3047,2.3027,2.3144,1.558,1.5243,1.4971,1.5108,1.5131,1.5085,1.4926,1.3823,1.3423,1.4517,1.4614,1.5547,1.8059,1.9713,2.0977,2.1879,2.0825,1.9498,1.7978,1.6434,1.5318,1.4687,1.637,1.7532,1.8011,2.0208,2.155,2.1934,2.2734,2.3101,2.3101,2.3101,2.312,2.3159,2.4017,2.4219,2.3887,2.4773,2.3906,2.1894,2.0235,1.9014,1.8009,0.0,0.0,0.0,0.0,0.0,0.0,0.0,0.0,0.0,0.0,0.0,0.0,0.0,0.0,0.0,0.0,0.0,0.0,0.0,0.0,0.0,0.0,0.0,0.0,0.0,0.0,0.0,0.0,0.0,0.0,0.0,0.0,0.0,1.6,1.7627,1.8476,1.6781,1.7739,1.8742,1.9165,1.8836,1.8974,2.0033,2.1145,2.2549,2.4269,2.4713,2.5422,2.6435,2.3664,2.1957,2.1529,2.2927,2.3491,2.3255,2.6197,2.7409,2.7051,2.7051,2.7051,2.7012,2.6582,2.6406,2.6348,2.5869,2.5693,2.5596,2.4785,2.4199,2.3848,2.3828,2.3535,2.312,1.5869,1.5869,1.5802,1.5645,1.5623,1.549,1.5108,1.438,1.3908,1.4027,1.5334,1.6991,1.8953,2.0265,2.1451,2.2546,2.0417,1.8607,1.7606,1.5887,1.53,1.6081,1.7455,1.8849,2.0329,2.1471,2.2292,2.275,2.2984,2.3101,2.3101,2.3457,2.3613,2.3652,2.4512,2.4871,2.4793,2.5312,2.5215,2.4446,2.2162,2.0755,1.9788,0.0,0.0,0.0,0.0,0.0,0.0,0.0,0.0,0.0,0.0,0.0,0.0,0.0,0.0,0.0,0.0,0.0,0.0,0.0,0.0,0.0,0.0,0.0,0.0,0.0,0.0,0.0,0.0,0.0,0.0,0.0,1.7647,1.8417,1.6921,1.9161,2.0275,1.8467,1.9097,1.9717,1.9614,1.9708,1.9865,2.0146,2.0474,2.0934,2.1726,2.1444,2.1378,2.1701,2.0727,2.0123,2.004,2.0429,2.1613,2.3618,2.4463,2.5955,2.7949,2.7949,2.7773,2.7461,2.7031,2.666,2.6348,2.5869,2.5693,2.5635,2.5117,2.5019,2.507,2.4473,2.3984,2.3574,1.6281,1.6262,1.611,1.5844,1.5822,1.5645,1.5176,1.4674,1.4313,1.4179,1.6379,1.8248,1.9096,2.109,2.2283,2.2066,2.0442,1.8656,1.6808,1.5627,1.5491,1.6634,1.8235,1.9792,2.1232,2.199,2.2605,2.3101,2.3101,2.3198,2.3418,2.3672,2.3887,2.4082,2.4812,2.5106,2.5165,2.5742,2.6016,2.5879,2.4375,2.3177,2.2097,2.0612,1.9824,1.9434,1.8564,1.8713,1.9104,1.7333,0.0,0.0,0.0,0.0,0.0,0.0,0.0,0.0,0.0,0.0,0.0,0.0,0.0,0.0,0.0,0.0,0.0,0.0,0.0,0.0,0.0,0.0,0.0,0.0,1.8737,1.9567,1.8387,2.013,2.1033,1.9794,2.0107,2.0401,2.0347,2.0494,2.0601,2.0601,2.1204,2.1996,2.2892,2.3202,2.3626,2.413,2.3215,2.2636,2.244,2.2286,2.3039,2.4765,2.5388,2.6608,2.8301,2.8301,2.8164,0.0,2.748,2.7148,2.6875,2.6269,2.6016,0.0,0.0,0.0,0.0,0.0,2.4258,2.3984,1.6795,1.6565,1.6241,1.5998,1.5908,1.5712,1.5266,1.4835,1.4609,1.4699,1.7283,1.9021,1.873,2.1565,2.2789,2.1185,2.0463,1.8897,1.5918,1.5538,1.5928,1.6941,1.8926,2.043,2.1327,2.2168,2.2711,2.3101,2.314,2.3418,2.3789,2.3887,2.4141,2.4512,2.4941,2.5223,2.5321,2.6055,2.6445,2.6543,2.6543,2.5731,2.445,2.3312,2.2403,2.1677,2.1235,2.0566,1.9839,1.9347,0.0,0.0,0.0,0.0,0.0,0.0,0.0,0.0,0.0,0.0,0.0,0.0,0.0,0.0,0.0,0.0,0.0,0.0,0.0,0.0,0.0,0.0,0.0,0.0,2.038,2.1091,2.0028,2.0665,2.1099,2.0773,2.0708,2.0828,2.1082,2.1109,2.1109,2.1109,2.2466,2.3993,2.5619,0.0,0.0,0.0,0.0,2.6565,2.6282,2.5874,2.5734,2.5952,2.7481,2.8237,2.8359,2.8359,2.834,2.8262,2.7851,2.7728,2.765,2.6797,2.6426,2.6348,2.5849,2.5488,2.5125,2.459,2.4453,2.4414,1.6989,1.7052,1.6989,1.6947,1.6603,1.6194,1.5734,1.4962,1.451,1.4674,1.6266,1.7729,1.8597,1.9673,2.066,2.1611,1.9108,1.6967,1.585,1.5747,1.6643,1.8691,1.9881,2.1016,2.2246,2.2711,2.3023,2.3101,2.3496,2.3711,2.3809,2.4492,2.491,2.4961,2.541,2.5801,2.6133,2.6309,2.6797,2.7474,2.7474,2.6649,2.5402,2.4828,2.4509,2.4229,2.3144,2.39,2.4976,2.1869,2.1385,2.175,1.9595,1.7726,0.0,0.0,0.0,0.0,0.0,0.0,0.0,0.0,0.0,0.0,0.0,0.0,0.0,0.0,0.0,0.0,0.0,0.0,0.0,1.7832,1.9082,2.0282,2.0462,2.0902,2.1045,2.0743,2.0882,2.1042,2.1096,2.1109,2.1109,2.1109,2.1425,2.2341,2.3993,2.41,2.4864,2.6464,2.4331,2.3309,2.3485,2.3126,2.3713,2.5158,0.0,0.0,2.8789,2.8789,2.8613,2.8262,2.7851,2.7728,2.7669,2.7109,2.6699,2.6348,2.5849,2.5635,2.5508,2.4707,2.4648,2.4785,1.6607,1.6863,1.7052,1.7178,1.701,1.6667,1.6216,1.554,1.5063,1.4931,1.6383,1.7627,1.8093,1.9073,1.9866,2.0262,1.7571,1.6126,1.683,1.6883,1.7908,2.0156,2.1074,2.1953,2.2769,2.2984,2.3101,2.3101,2.3315,2.3574,2.3809,2.4219,2.4695,2.5125,2.5293,2.5644,2.6094,2.6523,2.6953,2.7383,2.7812,2.7344,2.6348,2.6133,2.6035,2.5898,2.4824,2.5273,2.6025,2.3893,2.3345,2.3268,2.1553,1.9866,1.8375,0.0,0.0,0.0,0.0,0.0,0.0,0.0,0.0,0.0,0.0,0.0,0.0,0.0,0.0,2.0254,1.9445,0.0,2.0204,1.9612,1.9933,2.0388,2.0828,2.1015,2.1056,2.0909,2.1029,2.1109,2.1109,2.1109,2.1109,2.1109,2.1109,2.1853,2.3512,2.4193,2.5298,2.6977,2.6464,2.6273,2.6464,2.6082,2.6338,2.7293,2.805,2.8764,2.9238,2.9238,2.9004,2.8594,2.8379,2.8184,2.7949,2.7519,2.709,2.666,2.623,2.5937,2.5635,2.5187,2.5215,2.5254,1.5846,1.6216,1.6625,1.701,1.6989,1.6795,1.6436,1.5857,1.5405,1.5159,1.6408,1.7265,1.7098,1.826,1.8748,1.7946,1.6493,1.6278,1.7865,1.8235,1.9301,2.1346,2.2185,2.275,2.3081,2.3299,2.343,2.343,2.3608,2.3865,2.4267,2.4173,2.4531,2.5195,2.5195,2.5449,2.5869,2.668,2.7012,2.709,2.7851,2.7715,2.7012,2.6914,2.6894,2.6797,2.5966,2.5635,2.5547,2.5098,2.4434,2.3691,2.3066,2.2016,2.0671,1.8676,1.8193,0.0,0.0,0.0,0.0,0.0,0.0,0.0,0.0,0.0,2.0347,2.1231,2.2123,2.2568,2.2245,2.2116,2.1958,2.1583,2.11,2.0855,2.1149,2.1149,2.1109,2.1109,2.1109,2.1109,2.1109,2.1109,2.1109,2.1109,2.1109,2.1964,2.3931,2.5314,2.6893,2.8842,2.9467,2.9814,2.9853,2.9487,2.9332,2.9353,2.9711,2.9785,2.9744,2.9744,2.9414,2.8906,2.8828,2.8613,2.8262,2.793,2.7539,2.7109,2.6777,2.6367,2.5908,2.5654,2.5615,2.5557,1.4698,1.5152,1.5644,1.6432,1.6238,1.5954,1.5888,1.5025,1.4603,1.5195,1.5098,1.5044,1.5188,1.5485,1.5468,1.5,1.6693,1.7907,1.8225,1.9268,2.0589,2.2308,2.2769,2.3042,2.3101,2.4082,2.4617,2.4617,2.5384,2.582,2.5837,2.561,2.5518,2.5615,2.5615,2.5898,2.6348,2.6816,2.7012,2.7051,2.7539,2.7441,2.6973,2.6602,2.6465,2.6406,2.5849,2.5488,2.5078,2.4629,2.418,2.3848,2.4121,2.3315,2.1958,2.0304,1.9062,1.7916,1.6557,1.6858,1.789,1.9371,1.9564,2.023,0.0,0.0,2.3801,2.5363,2.6412,2.63,2.3825,2.3926,2.3638,2.1527,2.1078,2.1162,2.1521,2.1269,2.1109,2.1109,2.1109,2.1109,2.1109,2.1109,2.1109,2.1109,2.1109,2.2452,2.5558,2.5924,2.7452,3.0528,2.9079,2.8363,2.8592,2.8327,2.8308,2.8519,3.0063,3.0527,3.0137,3.0137,2.9687,2.8906,2.8516,2.834,2.8281,2.8242,2.7969,2.765,2.7591,2.7246,2.6738,2.5566,2.5391,2.5557,1.3145,1.3473,1.3892,1.4582,1.5475,1.6107,1.6107,1.5411,1.5011,1.531,1.5036,1.4991,1.5539,1.5721,1.5536,1.4898,1.582,1.7243,1.916,2.0074,2.1689,2.4195,2.4808,2.5062,2.5062,2.5546,2.5797,2.5797,2.572,2.5706,2.5683,2.5179,2.5098,2.5352,2.5352,2.5586,2.6035,2.6465,2.6797,2.7031,2.7207,2.7187,2.6934,2.6269,2.5547,2.4824,2.4348,2.3984,0.0,2.3368,2.3207,2.3293,2.4153,2.3531,2.2227,2.0581,1.9709,1.9206,1.8905,1.8939,1.9405,2.1062,2.215,2.3217,2.507,2.5557,2.6032,2.7285,2.8184,2.7935,2.51,2.5179,2.4731,0.0,2.151,2.1603,2.1628,2.1296,2.0975,2.0641,2.0601,2.0735,2.1082,2.1109,2.1109,2.1109,2.1109,2.1727,2.3062,2.4947,2.6651,2.7991,2.9127,2.9732,2.9844,2.9732,2.9732,2.9844,3.0587,3.0781,3.0605,3.0605,3.0117,2.9258,2.8594,2.8301,2.8301,2.8301,2.8184,2.8008,2.7806,2.7559,2.7266,2.623,2.5957,2.5996,1.1975,1.2221,1.2579,1.2962,1.4361,1.5542,1.5842,1.5348,1.4944,1.4944,1.4675,1.4743,1.5517,1.5841,1.5724,1.5147,1.559,1.6919,1.9351,2.0539,2.2364,2.5026,2.5842,2.6326,2.6524,2.6789,2.6912,2.6912,2.6235,2.5956,2.5997,2.5062,2.4824,2.5254,2.5254,2.543,2.5713,2.6211,2.6426,2.6484,2.6621,2.6523,2.6211,2.5352,2.4297,2.3223,2.291,2.233,2.1717,2.1491,2.145,2.1652,2.2698,2.2528,2.1636,2.0149,1.9619,1.9546,1.9866,2.0357,2.11,2.251,2.429,2.5762,2.6309,2.7109,2.793,2.8672,2.9414,2.9032,2.594,2.5891,2.5296,2.2103,2.1724,2.1817,2.1762,2.1283,2.0802,2.0233,2.0094,2.0187,2.0695,2.0895,2.1029,2.1096,2.1109,2.1475,2.2389,2.4701,2.6409,2.7331,2.9667,3.0898,3.0898,3.0898,3.0898,3.0898,3.0898,3.0898,3.0879,3.0644,3.0176,2.9531,2.8672,2.8301,2.8301,2.8301,2.8301,2.8262,2.7949,2.7885,2.7806,2.7012,2.6602,2.6269,1.1467,1.184,1.2115,1.2138,1.2779,1.3647,1.4698,1.4272,1.385,1.385,1.3559,1.3623,1.4269,1.4807,1.5121,1.5097,1.6657,1.7835,1.8328,2.0569,2.2502,2.3971,2.5071,2.5887,2.6461,2.7522,2.8044,2.8044,2.7372,2.7253,2.759,2.5875,2.5293,2.5674,2.5674,2.5674,2.5713,2.6211,2.5898,2.5204,2.5605,2.5206,2.4414,2.3555,2.2738,2.1953,2.1934,2.084,1.9321,1.8879,1.854,1.8482,1.9231,1.982,2.0083,1.9137,1.8504,1.8202,1.8318,2.0379,2.2663,2.3637,2.5421,2.7187,2.8027,2.8887,2.9609,3.0059,3.0527,2.9751,2.616,2.5797,2.5012,2.2062,2.1628,2.1722,2.1937,2.1229,2.0575,2.0267,1.9733,1.9506,0.0,2.0361,2.0802,2.1082,2.1109,2.2514,2.568,2.5924,2.7452,3.0645,3.082,3.0898,3.0898,3.0898,3.0898,3.0898,3.0898,3.0898,3.0859,3.0,2.9646,2.9531,2.8672,2.8301,2.8301,2.8301,2.8301,2.8301,2.8281,2.8281,2.8223,2.7793,2.7161,2.6328,1.0263,1.0747,1.1391,1.2115,1.2609,1.3296,1.4374,1.4334,1.4224,1.4315,1.4496,0.0,0.0,0.0,0.0,0.0,1.6041,1.6764,1.8011,1.9691,2.1575,2.3656,2.5324,2.665,2.7545,2.8254,2.8815,2.9248,2.8549,2.7901,2.7275,2.6238,2.545,2.4863,2.4863,2.5019,2.5293,2.5137,2.5254,2.5449,2.4727,2.4434,2.4192,2.2264,2.1005,2.0178,0.0,1.8216,1.7677,1.7408,1.7104,1.699,1.8043,1.8174,1.799,1.8305,1.8508,1.9065,2.1038,2.2915,2.4641,2.609,2.7604,2.8867,2.9434,3.0019,3.041,3.0234,2.9424,2.7938,2.5207,2.426,2.3228,2.1171,2.1294,2.1655,2.1748,2.1269,2.0641,1.976,1.9653,0.0,0.0,0.0,0.0,2.0788,2.0815,2.188,2.4286,2.5436,2.7013,2.9157,3.0333,3.0898,3.0898,3.0898,3.0898,3.0898,3.0898,3.0898,3.0859,2.998,2.9626,2.9531,2.8672,2.8301,2.8301,2.8301,2.8301,2.8301,2.8301,2.8301,2.8242,2.7865,2.7305,2.6738,0.0,1.0176,1.0702,1.138,1.184,0.0,0.0,0.0,0.0,0.0,0.0,0.0,0.0,0.0,0.0,0.0,0.0,1.6569,1.758,1.8909,2.058,2.2614,2.402,2.5352,2.6611,2.6891,2.7276,2.7875,2.7117,2.6387,2.5717,2.4913,2.4222,2.373,2.373,2.3984,2.4421,2.4082,2.3978,2.4017,2.3027,2.2539,2.219,2.0114,1.8939,0.0,1.6907,1.6287,1.6021,1.5851,1.5859,1.5988,1.6385,1.6822,1.7346,1.8191,1.938,2.0991,2.3472,2.5207,2.6679,2.8189,2.9316,3.0117,3.0391,3.0547,3.0469,2.9863,2.8501,2.6683,2.4281,2.2798,2.1603,2.0457,2.0468,2.0802,2.1323,2.1042,2.0521,1.976,1.9653,1.9533,0.0,0.0,0.0,2.0628,2.0869,2.2111,2.4533,2.563,2.7158,2.9439,3.041,3.0898,3.0898,3.0898,3.0898,3.0898,3.0898,3.0898,3.0859,2.998,2.9626,2.9531,2.8672,2.8301,2.8301,2.8301,2.8301,2.8301,2.8301,2.8301,2.8262,2.7988,2.7617,2.7168,0.0,0.0,1.0211,0.0,0.0,0.0,0.0,0.0,0.0,0.0,0.0,0.0,0.0,0.0,0.0,0.0,0.0,0.0,1.6942,1.8187,1.9521,2.0846,2.1316,2.2274,2.3774,2.3673,2.3825,2.4336,2.3499,2.3144,2.3216,2.2125,2.1907,2.2301,2.2301,2.2555,2.2988,2.2862,2.2162,2.1032,2.0533,1.9675,1.8578,1.7217,1.6562,1.6256,1.5726,1.5072,1.4458,1.4345,1.4946,1.5525,1.4544,1.5922,1.8083,1.8896,2.1163,2.3763,2.5511,2.722,2.875,2.9961,3.0586,3.0898,3.084,3.0469,2.9863,2.8945,2.7656,2.5914,0.0,0.0,2.0311,1.9928,1.9343,1.9479,2.0922,2.0655,2.0294,0.0,0.0,0.0,0.0,0.0,0.0,2.0681,0.0,2.3049,2.6438,2.6467,2.7948,3.1385,3.1113,3.0898,3.0898,3.0898,3.0898,3.0898,3.0898,3.0898,3.0859,2.998,2.9626,2.9531,2.8672,2.8301,2.8301,2.8301,2.8301,2.8301,2.8301,2.8301,2.8301,2.8262,2.7988,2.7571,0.0,0.0,0.0,0.0,0.0,0.0,0.0,0.0,0.0,0.0,0.0,0.0,0.0,0.0,0.0,0.0,0.0,0.0,1.5913,1.6403,1.7227,1.8366,1.9755,2.0795,2.1445,2.288,2.3557,2.3513,2.3323,2.2856,2.2042,2.1189,2.0414,1.9736,1.9487,1.9637,2.0053,1.9576,1.9349,1.9254,1.8414,1.788,1.7442,1.6024,1.5426,1.5263,1.4651,1.4309,1.4339,1.5619,1.6614,1.7315,1.738,1.8318,1.978,2.1994,2.4089,2.6109,2.8067,2.9651,3.0781,3.1094,3.1269,3.1094,3.0137,2.957,2.873,2.6863,2.4804,2.2795,0.0,0.0,0.0,1.9273,1.9473,0.0,2.1269,2.1309,0.0,2.0909,0.0,2.0918,2.0481,2.0655,0.0,0.0,2.1256,2.2906,2.6799,2.6615,2.7948,3.1385,3.1113,3.0898,3.0898,3.0898,3.0898,3.0898,3.0898,3.0898,3.0859,2.998,2.9626,2.9531,2.8672,2.8301,2.8301,2.8301,2.8301,2.8301,2.8301,2.8301,2.8262,2.793,2.7559,2.7148,0.0,0.0,0.0,0.0,0.0,0.0,0.0,0.0,0.0,0.0,0.0,0.0,0.0,0.0,0.0,0.0,0.0,0.0,0.0,1.5637,1.6185,1.7156,1.7838,1.8615,1.9562,2.06,2.1175,2.1265,2.1289,2.0795,1.9824,1.9293,1.8758,1.8177,1.7842,1.7907,1.8319,1.7841,1.7531,0.0,0.0,1.5925,1.5486,1.448,1.4176,1.4219,1.4078,1.4777,1.6071,1.7464,1.8286,1.8917,2.0017,2.1124,2.2472,2.4865,2.6795,2.8555,3.0684,3.166,3.207,3.207,3.166,3.0742,2.8936,2.7975,2.6821,2.4335,2.212,2.0434,1.9731,1.8336,1.7881,0.0,0.0,0.0,2.2018,2.2335,2.2207,0.0,2.1643,0.0,2.1283,2.1403,2.1617,0.0,2.1657,2.3207,2.7161,2.6912,2.8209,3.1677,3.1211,3.0898,3.0898,3.0898,3.0898,3.0898,3.0898,3.0898,3.0859,3.0156,2.9746,2.9531,0.0,2.8457,2.8301,2.8301,2.8301,2.8301,2.8301,2.8301,2.8262,2.8027,2.7676,2.7285,0.0,0.0,0.0,0.0,0.0,0.0,0.0,0.0,0.0,0.0,1.2846,1.3066,0.0,0.0,0.0,0.0,0.0,0.0,0.0,0.0,1.5622,1.6387,1.5951,1.6383,1.7832,1.7926,1.8133,1.8558,1.8501,1.8162,1.7527,1.7235,1.7104,1.7109,1.6831,1.6892,1.7135,1.6816,1.6208,1.5419,1.4906,1.4233,1.3541,0.0,1.3224,1.3363,1.3839,1.5674,1.809,1.9253,1.998,2.0764,2.2586,2.4116,2.5666,2.7603,2.929,3.0976,3.2969,3.3242,3.293,3.2832,3.1797,3.0101,2.7511,2.6161,2.4602,2.1584,1.9761,1.8614,1.8467,1.7549,1.7729,2.0514,0.0,2.1852,2.2887,2.3392,2.3286,2.2283,2.2124,2.2111,2.2164,2.2349,2.2549,2.2781,2.2789,2.4232,2.7603,2.7482,2.8825,3.2029,3.1309,3.0898,3.0898,3.0898,3.0898,3.0898,3.0898,3.0898,3.0879,3.041,2.9961,2.9551,2.9101,0.0,2.8301,2.8301,2.8301,2.8301,2.8301,2.8301,2.8281,2.8223,2.7949,2.7519,0.0,0.0,0.0,0.0,0.0,0.0,0.0,0.0,0.0,1.1541,1.2086,1.2629,0.0,0.0,0.0,0.0,0.0,0.0,0.0,0.0,0.0,1.4374,1.5285,1.5743,1.5663,1.7029,1.7576,1.7232,1.7263,1.7228,1.709,1.6786,1.6296,1.5762,1.5782,1.5642,1.5317,1.4664,1.4726,1.518,1.4442,1.4068,1.3914,1.3974,0.0,0.0,1.3887,1.503,1.6735,1.9598,2.1925,2.3917,2.5693,2.7117,2.8517,3.0296,3.1561,3.2578,3.3672,3.3906,3.3691,3.2969,3.1543,2.9556,2.6705,2.4775,0.0,1.9494,1.808,1.737,1.7248,1.7021,1.7857,2.0821,2.1592,2.2234,2.3452,2.368,2.3602,0.0,2.2873,2.2806,2.3073,2.3955,0.0,0.0,0.0,2.7101,2.8048,2.9089,3.0252,3.1581,3.1152,3.0898,3.0898,3.0898,3.0898,3.0898,3.0898,3.0898,3.0879,3.041,2.9961,2.9551,2.9101,0.0,2.8301,2.8301,2.8301,2.8301,2.8301,2.8301,2.8262,2.791,2.75,2.7109,0.0,0.0,0.0,0.0,0.0,0.0,1.0058,1.0439,1.0696,1.0685,1.147,1.2085,1.2197,1.2389,1.2426,0.0,0.0,0.0,0.0,0.0,0.0,1.3875,1.449,1.5024,1.5457,1.6454,1.6971,1.6945,0.0,1.6955,1.6892,1.656,1.6197,1.5845,1.5594,1.5526,1.5468,1.4706,1.4736,1.5274,1.4805,1.4569,1.4433,1.4273,0.0,0.0,1.3925,1.5005,1.6543,1.8752,2.1395,2.4253,2.7117,2.8906,3.0234,3.1738,3.2637,3.3359,3.4453,3.4766,3.4492,3.3398,3.1641,2.9131,2.5134,0.0,0.0,1.7171,1.6121,1.5873,1.5999,1.6386,0.0,2.0015,2.1265,2.2214,2.3083,2.3518,2.3583,2.316,2.2953,2.2979,0.0,2.3721,0.0,0.0,0.0,2.8439,2.9522,3.0609,3.1241,3.1211,3.0996,3.0898,3.0898,3.0898,3.0898,3.0898,3.0898,3.0898,3.0879,3.0664,3.0195,2.9607,2.9355,0.0,2.8301,2.8301,2.8301,2.8301,2.8301,2.8301,2.8262,2.8066,2.7715,2.7344,0.0,0.0,0.0,0.0,0.0,0.0,1.0181,1.0509,1.0678,1.061,1.1515,1.1992,1.1471,1.1429,1.1258,0.0,0.0,0.0,0.0,0.0,0.0,0.0,0.0,0.0,1.5281,0.0,0.0,0.0,1.6708,0.0,0.0,0.0,0.0,0.0,1.6104,1.6104,1.6247,1.5584,1.5507,0.0,0.0,1.5303,0.0,0.0,0.0,0.0,0.0,1.5078,1.6439,1.7814,2.0204,2.31,2.6369,2.8719,3.047,3.1855,3.2672,3.3447,3.4883,3.5234,3.4922,3.3613,3.1465,2.8431,2.3749,2.1435,1.9182,1.5374,1.4555,1.4685,1.4992,1.5795,1.7027,0.0,2.0705,2.1879,2.2402,2.3083,2.3384,0.0,2.2966,0.0,2.3474,0.0,0.0,0.0,0.0,0.0,3.124,3.1899,3.1855,3.1191,3.0976,3.0898,3.0898,3.0898,3.0898,3.0898,3.0898,3.0898,3.0879,3.0781,3.0312,2.957,2.9473,0.0,0.0,2.8301,2.8301,2.8301,2.8301,2.8301,2.8301,2.8301,2.8027,2.7708,0.0,0.0,0.0,0.0,0.0,0.0,1.0574,1.0719,1.1054,1.2055,1.2915,1.3024,1.1959,1.1782,1.1523,0.0,0.0,0.0,0.0,0.0,0.0,0.0,0.0,0.0,0.0,0.0,0.0,1.5362,0.0,0.0,0.0,0.0,0.0,0.0,0.0,0.0,1.6899,1.6631,0.0,0.0,0.0,0.0,0.0,0.0,0.0,0.0,0.0,1.4931,1.5636,1.7612,1.921,2.0675,2.2155,2.5033,2.8169,2.9945,3.1204,3.2478,3.4284,3.4766,3.4453,3.3164,3.0351,2.6917,2.3062,0.0,1.7697,1.475,1.4144,1.4271,1.4599,1.5352,1.6612,1.8618,1.999,2.1103,2.1945,2.2658,2.3111,2.3282,0.0,0.0,2.4062,0.0,0.0,0.0,0.0,0.0,3.3082,3.2555,3.2129,3.2051,3.1289,3.0898,3.0898,3.0898,3.0898,3.0898,3.0898,3.0898,3.0879,3.0449,3.0,2.9607,2.9141,0.0,0.0,2.8301,2.8301,2.8301,2.8301,2.8301,2.8301,2.8301,2.8027,2.7669,0.0,0.0,0.0,0.0,0.0,0.0,1.1031,1.1125,1.1436,1.2511,1.3314,1.3661,1.338,1.2787,1.1844,1.0481,1.0096,0.0,0.0,0.0,0.0,0.0,0.0,0.0,0.0,0.0,1.364,1.416,1.4857,0.0,0.0,0.0,0.0,0.0,0.0,0.0,0.0,1.76,0.0,0.0,0.0,0.0,0.0,0.0,0.0,0.0,0.0,0.0,1.5085,1.6369,1.7769,1.9027,1.9486,2.1309,2.3928,2.7596,2.96,3.1082,3.3311,3.4512,3.4687,3.2871,3.0215,2.7007,2.2974,2.024,1.7673,1.4652,1.4232,1.432,1.4,1.4623,1.551,1.651,1.7458,1.8539,1.9941,2.0103,2.0683,2.2497,2.2427,0.0,0.0,0.0,0.0,0.0,0.0,0.0,3.2941,3.248,3.1934,3.1406,3.1074,3.0898,3.0898,3.0898,3.0898,3.0898,3.0898,3.0898,3.0879,3.041,2.9961,2.9551,2.9101,0.0,0.0,2.8301,2.8301,2.8301,2.8301,2.8301,2.8301,2.8301,2.8184,2.7988,0.0,0.0,0.0,0.0,0.0,1.0433,1.1668,1.1663,1.1872,1.279,1.345,1.393,1.4248,1.3234,1.2022,1.0798,1.0025,0.0,0.0,0.0,0.0,0.0,0.0,0.0,0.0,0.0,1.2597,1.3165,1.3866,1.4517,0.0,0.0,0.0,0.0,0.0,0.0,0.0,0.0,0.0,0.0,0.0,0.0,0.0,0.0,0.0,0.0,0.0,0.0,0.0,0.0,0.0,1.7769,1.7479,1.8281,2.0263,2.4955,2.7549,2.9373,3.1813,3.3535,3.4141,3.209,2.9475,2.6361,2.2495,1.9753,1.7241,1.4695,1.4284,1.4268,1.3744,1.4122,1.4624,1.5,1.5878,1.6969,1.8333,1.8315,1.889,0.0,0.0,0.0,0.0,0.0,0.0,0.0,0.0,0.0,3.2533,3.2324,3.1836,3.1094,3.0957,3.0898,3.0898,3.0898,3.0898,3.0898,3.0898,3.0898,3.0879,3.041,2.9961,2.9551,2.9101,0.0,0.0,2.8301,2.8301,2.8301,2.8301,2.8301,2.8301,2.8301,2.8301,2.8223,0.0,0.0,0.0,0.0,0.0,1.1371,1.2517,1.2363,1.236,1.3113,1.3449,1.376,1.4169,1.2835,1.1999,1.2253,1.106,0.0,0.0,0.0,0.0,0.0,0.0,0.0,1.0995,1.1145,1.1594,1.2321,1.2772,1.3368,1.4034,1.4499,1.5059,1.5632,0.0,0.0,0.0,0.0,0.0,0.0,0.0,0.0,1.5758,0.0,0.0,0.0,0.0,0.0,0.0,0.0,0.0,0.0,0.0,1.6221,1.7681,2.1926,2.4929,2.7409,2.9636,3.1523,3.2402,3.0644,2.7685,2.4469,2.1396,1.8451,1.5987,1.4756,1.4249,1.401,1.401,1.4052,1.423,1.4624,1.6,1.7139,1.7637,1.7995,0.0,0.0,0.0,0.0,0.0,0.0,0.0,0.0,0.0,0.0,3.2085,3.2229,3.1973,3.1523,3.1113,3.0898,3.0898,3.0898,3.0898,3.0898,3.0898,3.0898,3.0879,3.041,2.9961,0.0,0.0,0.0,0.0,2.8301,2.8301,2.8301,2.8301,2.8301,2.8301,2.8301,2.8301,2.8223,0.0,0.0,0.0,0.0,0.0,0.0,1.2947,1.2922,1.2978,1.3377,1.3572,1.3767,1.4033,1.3237,1.2782,1.3096,1.0935,0.0,0.0,0.0,0.0,0.0,0.0,0.0,1.0655,1.1144,1.1651,1.2086,1.284,1.3414,1.3856,1.4098,1.4628,1.5342,1.6126,0.0,0.0,0.0,0.0,0.0,0.0,1.6095,1.5623,0.0,0.0,0.0,0.0,0.0,0.0,0.0,0.0,0.0,0.0,0.0,0.0,1.9065,2.1277,2.3488,2.5429,2.6782,2.7122,2.5214,2.3275,2.1334,1.9431,1.7559,1.5957,1.5031,1.4754,1.4547,1.407,1.4237,1.4769,1.5769,1.6581,1.7489,0.0,0.0,0.0,0.0,0.0,0.0,0.0,0.0,0.0,0.0,0.0,0.0,3.0291,3.1252,3.1523,3.1094,3.0957,3.0898,3.0898,3.0898,3.0898,3.0898,3.0898,3.0898,3.0879,3.041,2.9961,0.0,0.0,0.0,0.0,2.8301,2.8301,2.8301,2.8301,2.8301,2.8301,2.8301,2.8105,2.7865,0.0,0.0,0.0,0.0,0.0,0.0,1.3466,1.3338,1.3323,1.3653,1.3439,1.3506,1.4117,1.3047,1.254,1.3189,1.1137,0.0,0.0,0.0,0.0,0.0,0.0,0.0,1.0496,1.091,1.1499,1.2218,1.2756,1.3332,1.3917,1.4142,1.438,1.4746,1.5552,1.6354,0.0,0.0,0.0,0.0,1.6922,1.6272,1.5796,0.0,0.0,0.0,0.0,0.0,0.0,0.0,0.0,0.0,0.0,0.0,0.0,0.0,1.8379,1.9851,2.2279,2.3647,2.4025,2.2484,2.0999,1.9637,1.8414,1.7006,1.5787,1.5242,1.5049,1.4813,1.4309,1.4403,1.4826,1.5504,1.6543,1.7678,0.0,0.0,0.0,0.0,0.0,0.0,0.0,0.0,0.0,0.0,0.0,0.0,3.0414,3.1118,3.1328,3.0898,3.0898,3.0898,3.0898,3.0898,3.0898,3.0898,3.0898,3.0801,3.0625,3.0332,2.9883,0.0,0.0,0.0,0.0,2.8301,2.8301,2.8301,2.8301,2.8301,2.8301,2.8301,2.8027,2.7669,0.0,0.0,0.0,0.0,0.0,0.0,1.4065,1.3643,1.3512,1.3921,1.3229,1.312,1.4261,1.2479,1.164,1.2723,1.1699,0.0,0.0,0.0,0.0,0.0,0.0,1.0522,1.0496,1.0544,1.1229,1.2598,1.2662,1.3204,1.414,1.4446,1.433,1.3973,1.4894,1.5649,1.6326,1.6908,1.744,1.7743,1.6591,1.6203,0.0,0.0,0.0,0.0,0.0,0.0,0.0,0.0,0.0,0.0,0.0,0.0,0.0,0.0,0.0,0.0,0.0,2.1678,2.2357,2.158,2.0197,1.8821,1.8003,1.6587,0.0,1.54,1.5196,1.4921,1.4632,1.4592,1.4568,1.4443,1.6255,1.7862,0.0,1.9968,0.0,0.0,0.0,0.0,0.0,0.0,0.0,0.0,0.0,0.0,3.1825,3.1639,3.1289,3.0898,3.0898,3.0898,3.0898,3.0898,3.0898,3.0898,3.0859,3.0605,3.0195,3.0176,2.9707,0.0,0.0,0.0,0.0,2.8301,2.8301,2.8301,2.8301,2.8281,2.8242,2.8242,2.7969,2.763,0.0,0.0,0.0,0.0,0.0,0.0,0.0,0.0,0.0,0.0,1.36,1.3543,1.3222,1.2716,1.2512,0.0,0.0,0.0,0.0,0.0,0.0,0.0,1.0964,1.0812,1.0522,1.1006,1.1706,1.2598,1.3362,1.4013,1.447,1.4295,1.4296,1.4414,1.4236,1.4844,1.6024,1.6654,1.7092,1.7318,1.6736,1.6363,0.0,0.0,0.0,0.0,1.4182,1.3992,0.0,0.0,0.0,0.0,0.0,0.0,0.0,0.0,1.5486,1.5742,1.6531,0.0,1.7164,1.6421,1.5936,1.5638,0.0,1.5381,1.5163,1.5342,1.5352,1.531,1.5339,1.5096,1.544,1.6989,1.7987,1.8931,0.0,0.0,0.0,0.0,0.0,0.0,0.0,0.0,0.0,0.0,0.0,2.7815,2.955,3.052,3.0996,3.0898,3.0898,3.0898,3.0898,3.0898,3.0898,3.0879,3.0527,3.0293,3.0176,2.9863,2.9434,0.0,0.0,0.0,2.8301,2.8301,2.8301,2.8301,2.8301,2.8105,2.7812,2.7812,2.7344,2.6699,0.0,0.0,0.0,0.0,0.0,0.0,0.0,0.0,0.0,0.0,1.4562,1.4288,1.3522,1.329,1.3078,0.0,0.0,0.0,0.0,0.0,0.0,1.0854,1.0828,1.0726,1.0496,1.1022,1.1773,1.2837,1.3355,1.3941,1.4579,1.4171,1.3974,1.3996,1.4175,1.4565,1.5192,1.6147,1.6567,1.6516,1.6638,0.0,0.0,0.0,0.0,0.0,1.4309,1.4022,0.0,1.3872,1.3872,1.3812,0.0,0.0,0.0,0.0,1.5284,1.541,1.541,1.5729,1.5961,1.537,1.5378,1.5503,1.5512,1.533,1.5225,1.5381,1.5419,1.5419,1.5344,1.5615,1.6084,0.0,1.8262,0.0,0.0,0.0,0.0,0.0,0.0,0.0,0.0,0.0,0.0,0.0,0.0,2.85,3.0027,3.0623,3.0898,3.0898,3.0898,3.0898,3.0898,3.0898,3.0781,3.0566,3.0312,3.0,2.9609,2.9375,2.9043,0.0,0.0,0.0,2.8301,2.8301,2.8301,2.8281,2.8086,2.7871,2.7689,2.7441,2.6953,2.6387,0.0,0.0,0.0,0.0,0.0,0.0,0.0,0.0,0.0,0.0,0.0,0.0,0.0,0.0,0.0,0.0,0.0,0.0,0.0,0.0,1.1783,1.0669,1.0701,1.0723,1.0735,1.0995,1.176,1.3028,1.3104,1.3605,1.4508,1.4099,1.3682,1.3347,1.4164,1.4371,1.4206,1.5455,1.5838,1.5691,1.642,0.0,0.0,0.0,0.0,0.0,0.0,0.0,0.0,1.4321,1.4112,1.3722,1.4201,0.0,0.0,0.0,0.0,0.0,1.5497,1.6286,1.6902,1.6122,1.6185,1.6316,1.5933,1.5565,1.5284,1.5312,1.5381,1.5427,1.5404,1.6203,0.0,0.0,0.0,0.0,0.0,0.0,0.0,0.0,0.0,0.0,0.0,0.0,0.0,0.0,0.0,2.961,3.1307,3.1016,3.0781,3.0781,3.0723,3.0684,3.0684,3.0762,3.0586,3.0195,3.0059,2.9629,2.8926,2.8848,2.8633,2.8301,0.0,0.0,2.8203,2.8262,2.8223,2.8066,2.7826,2.763,2.7422,2.7051,2.666,2.6289,0.0,0.0,0.0,0.0,0.0,0.0,0.0,0.0,0.0,0.0,0.0,0.0,0.0,0.0,0.0,0.0,0.0,0.0,0.0,1.2204,1.1652,1.1112,1.1578,1.1835,1.1773,1.1837,1.2115,1.2674,1.3442,1.3915,1.4111,1.425,1.3939,1.3299,1.3281,1.3471,1.3814,1.4323,1.4821,1.5361,1.6082,0.0,0.0,0.0,0.0,0.0,0.0,0.0,0.0,1.4469,1.444,1.4261,1.3812,0.0,0.0,0.0,0.0,0.0,1.597,1.7408,1.829,1.5789,1.5226,1.5167,1.4803,1.4684,1.471,1.5001,1.5069,1.5496,1.6872,1.6955,1.7473,0.0,0.0,0.0,0.0,0.0,0.0,0.0,0.0,0.0,0.0,0.0,0.0,0.0,0.0,2.9499,3.0937,3.0547,3.0293,3.0293,2.9961,2.9822,2.9822,3.0117,3.0273,3.0176,2.9453,2.9043,2.8906,2.8555,2.8359,2.8301,0.0,2.8086,2.7845,2.8144,2.7871,2.7246,2.7539,2.7226,2.6582,2.6504,2.6211,2.5791,0.0,0.0,0.0,0.0,0.0,0.0,0.0,0.0,0.0,0.0,0.0,0.0,0.0,0.0,0.0,0.0,0.0,0.0,0.0,1.2847,1.238,1.203,1.2471,1.2519,1.2027,1.2393,1.2758,1.3077,1.3935,1.4291,1.4209,1.4141,1.3608,1.2774,1.2783,1.2743,1.2726,1.3592,1.41,1.4391,0.0,0.0,0.0,0.0,0.0,0.0,0.0,0.0,0.0,0.0,1.504,1.4469,1.4321,0.0,0.0,0.0,0.0,0.0,1.5517,1.6257,1.6816,1.5987,1.6713,1.7491,1.6878,1.6554,1.6419,1.6603,1.6477,1.6636,0.0,0.0,1.9975,2.3233,0.0,0.0,0.0,0.0,0.0,0.0,0.0,0.0,0.0,0.0,0.0,0.0,0.0,0.0,3.047,3.0312,3.0098,2.9863,2.9668,2.9626,2.9626,2.9531,2.9512,2.9492,2.9101,2.8809,2.8574,2.8379,2.8164,2.7949,0.0,2.7715,2.7324,2.7519,2.7363,2.7012,2.6992,2.6738,2.6367,2.6133,2.5762,2.541,0.0,0.0,0.0,0.0,0.0,0.0,0.0,0.0,0.0,0.0,0.0,0.0,0.0,0.0,0.0,0.0,0.0,0.0,0.0,1.3496,1.3013,1.2714,1.2797,1.2774,1.2678,1.3124,1.3463,1.3777,1.4393,1.4622,1.4545,1.4042,1.3396,1.2648,1.2517,1.2303,1.2114,1.3247,1.3688,1.3763,0.0,0.0,0.0,0.0,0.0,0.0,0.0,0.0,0.0,0.0,0.0,0.0,0.0,0.0,0.0,1.4666,1.5023,1.5223,1.5079,1.5286,1.5716,1.6358,1.7678,1.8814,1.8848,1.8424,1.8219,1.873,1.8527,1.8377,0.0,2.0194,0.0,2.5833,0.0,0.0,0.0,0.0,0.0,0.0,0.0,0.0,0.0,0.0,0.0,0.0,0.0,0.0,3.0215,3.0,2.9746,2.9434,2.9316,2.9333,2.9333,2.8945,2.8828,2.8926,2.8809,2.8613,2.8301,2.8301,2.8066,2.7728,2.7728,2.7363,2.6875,2.6973,2.6894,2.6699,2.6465,2.6328,2.6191,2.5742,2.543,2.5254,0.0,0.0,0.0,0.0,0.0,0.0,0.0,0.0,0.0,0.0,0.0,0.0,0.0,0.0,0.0,0.0,0.0,0.0,1.4574,1.3639,1.2986,1.2697,1.1882,1.2459,1.4638,1.4258,1.4218,1.4611,1.4851,1.4967,1.4962,1.4247,1.3827,1.3657,1.253,1.2321,1.2837,1.3335,1.3726,1.4166,1.5407,0.0,0.0,0.0,0.0,0.0,0.0,0.0,0.0,0.0,0.0,0.0,0.0,0.0,1.4736,1.4219,1.5004,1.5888,1.5241,1.5993,1.6938,1.6888,1.6193,1.6249,1.8936,1.8863,1.8844,2.0843,2.0894,2.055,0.0,2.2208,2.4174,0.0,0.0,0.0,0.0,0.0,0.0,0.0,0.0,0.0,0.0,0.0,0.0,0.0,0.0,0.0,3.0195,2.9434,2.9004,2.8965,2.8594,2.8379,2.8379,2.8359,2.8535,2.8906,2.8516,2.832,2.8301,2.8301,2.8066,2.7728,2.7728,2.7187,2.6465,2.6855,2.6543,2.581,2.625,2.6133,2.5674,2.5273,2.5352,2.5596,0.0,0.0,0.0,0.0,0.0,0.0,0.0,0.0,0.0,0.0,0.0,1.5641,1.4415,0.0,0.0,0.0,0.0,0.0,1.4596,1.4204,1.3747,1.3229,1.2981,1.3509,1.4874,1.4314,1.444,1.5241,1.5538,1.5593,1.5428,1.4458,1.3902,1.3608,1.2317,1.1964,1.2351,1.2659,1.2965,1.3402,1.4655,1.5147,0.0,0.0,0.0,0.0,0.0,0.0,0.0,0.0,1.609,1.5039,1.5051,1.4694,1.4255,1.4058,1.5007,1.587,1.471,1.5867,1.7398,1.7417,1.7636,1.8489,2.0845,2.1348,2.1729,2.3028,2.3399,2.3288,0.0,0.0,2.6083,0.0,0.0,0.0,0.0,0.0,0.0,0.0,0.0,0.0,0.0,0.0,0.0,0.0,0.0,0.0,0.0,2.9101,2.8809,2.8535,2.8125,2.791,2.791,2.7637,2.7715,2.8144,2.8242,2.8301,2.8281,2.8027,2.7656,2.7246,2.6992,2.6543,2.5996,2.6103,2.5859,2.5332,2.5508,2.5644,2.5635,2.5234,2.5,2.4922,0.0,0.0,0.0,0.0,0.0,0.0,0.0,0.0,1.7238,0.0,0.0,0.0,0.0,1.3647,0.0,0.0,0.0,0.0,1.4724,1.4456,1.4105,1.3692,1.3411,1.3654,1.453,1.4176,1.4494,1.5537,1.6269,1.6349,1.5726,1.5258,1.4704,1.404,1.2901,1.2583,1.2849,1.291,1.3037,1.328,1.4177,1.4736,0.0,0.0,0.0,0.0,0.0,0.0,0.0,0.0,1.6294,1.5085,1.5341,1.4792,1.4074,1.3891,1.4732,1.5476,1.4303,1.5191,1.6652,1.7446,1.8701,2.0371,2.2949,2.4033,2.4902,2.624,2.6133,2.5567,2.4737,0.0,0.0,0.0,0.0,0.0,0.0,0.0,0.0,0.0,0.0,0.0,0.0,0.0,0.0,0.0,0.0,0.0,0.0,2.8672,2.8398,2.8105,2.7676,2.7461,2.7461,2.7168,2.7168,2.7461,2.7754,2.7969,2.8086,2.7845,2.7363,2.6797,2.6523,2.6133,2.5693,2.5693,2.5469,2.5106,2.4969,2.5059,2.5226,2.4824,2.4648,2.4648,0.0,0.0,0.0,0.0,0.0,0.0,0.0,0.0,1.7303,1.5913,1.572,0.0,0.0,0.0,0.0,0.0,0.0,0.0,1.4982,1.4323,1.3921,1.3992,1.2795,1.2648,1.3775,1.3923,1.4465,1.5412,1.7013,1.7128,1.5918,1.662,1.6348,1.5155,1.4495,1.4396,1.4662,1.4401,1.4219,1.409,1.4169,1.4398,1.4765,0.0,0.0,0.0,0.0,0.0,0.0,0.0,1.6531,1.5545,1.5439,1.4971,1.438,1.3692,1.4172,1.4784,1.416,1.4028,1.4585,1.6958,1.8894,2.1192,2.4886,2.6539,2.804,3.0589,2.9103,2.7112,2.6448,2.6003,0.0,0.0,0.0,0.0,0.0,0.0,0.0,0.0,0.0,0.0,0.0,0.0,0.0,0.0,0.0,0.0,0.0,2.8105,2.7708,2.7708,2.7226,2.7012,2.7012,2.7012,2.7012,2.7012,2.7012,2.7246,2.7708,2.7708,2.7239,2.6387,2.6387,2.6133,2.5674,2.5674,2.5449,2.5067,2.459,2.4414,2.4355,2.3945,2.4362,2.5047,0.0,0.0,0.0,0.0,0.0,0.0,0.0,0.0,1.875,1.7463,1.6736,0.0,0.0,0.0,0.0,0.0,0.0,0.0,1.4781,1.4484,1.4241,1.401,1.342,1.3258,1.3573,1.3752,1.4439,1.5602,1.638,1.6126,1.5013,1.525,1.4899,1.4098,1.4396,1.4164,1.352,1.3728,1.3564,1.3221,1.3562,1.3782,1.3932,0.0,0.0,0.0,0.0,0.0,0.0,0.0,0.0,0.0,1.4701,1.4647,1.438,1.3692,1.4579,1.5489,1.4364,1.5494,1.7404,1.929,2.1762,2.4637,2.8231,2.9193,2.9821,3.1485,3.0643,2.9085,2.7569,0.0,0.0,0.0,0.0,0.0,0.0,0.0,0.0,0.0,0.0,0.0,0.0,0.0,0.0,0.0,0.0,0.0,0.0,2.7344,2.7207,2.7207,2.6797,2.6582,2.6582,2.6269,2.6269,2.6582,2.6582,2.6797,2.7207,2.6894,2.6621,2.6367,2.6055,2.5684,2.5215,2.4609,2.4453,2.457,2.4141,2.416,2.4355,2.3945,2.3945,2.4199,0.0,0.0,0.0,0.0,0.0,0.0,1.9782,2.0083,1.9762,1.8339,1.7749,1.7092,0.0,0.0,0.0,0.0,0.0,0.0,1.5403,1.4936,1.4572,1.4405,1.3809,1.3579,1.3733,1.4136,1.4597,1.5065,1.5869,1.5664,1.4495,1.5411,1.5257,1.4278,1.5168,1.5033,1.4112,1.4211,1.3815,1.3116,1.3244,1.339,1.3571,0.0,0.0,0.0,0.0,0.0,0.0,0.0,0.0,0.0,1.4455,1.4321,1.4052,1.3782,1.4525,1.539,1.5043,1.6289,1.836,2.1254,2.3865,2.6947,3.1668,3.279,3.3097,0.0,3.2862,3.1208,2.9796,2.9183,0.0,0.0,0.0,0.0,0.0,0.0,0.0,0.0,0.0,0.0,0.0,0.0,0.0,0.0,0.0,0.0,0.0,2.6699,2.6582,2.6758,2.6016,2.5684,2.5859,2.5605,2.5508,2.5605,2.5957,2.6074,2.5996,2.6269,2.6191,2.584,2.541,2.5059,2.4746,2.4082,2.3945,2.4121,2.3691,2.3691,2.3822,2.3633,2.375,2.4043,0.0,0.0,1.7966,1.9339,0.0,0.0,2.017,2.0671,2.0424,1.883,1.8729,1.8339,0.0,0.0,0.0,0.0,0.0,0.0,0.0,1.5555,1.5001,1.5111,1.414,1.3785,1.4144,1.4812,1.4829,1.4144,1.5438,1.5449,1.4329,1.6437,1.6633,1.5257,1.6334,1.6439,1.5668,1.5274,1.4495,1.3536,1.3174,1.3194,1.348,1.3795,0.0,0.0,0.0,0.0,0.0,0.0,0.0,0.0,1.444,1.404,1.3653,1.389,1.4237,1.4798,1.5901,1.6608,1.8184,2.2988,2.5835,2.8994,3.5161,3.6799,3.7072,3.734,0.0,3.3414,3.2611,0.0,0.0,0.0,0.0,0.0,0.0,0.0,0.0,0.0,0.0,0.0,0.0,0.0,0.0,0.0,0.0,0.0,0.0,2.6094,2.584,2.6191,2.5039,2.4609,2.5047,2.5047,2.4805,2.4434,2.5187,2.5148,2.4453,2.5703,2.5801,2.5028,2.4551,2.4355,2.4316,2.3906,2.373,2.3691,2.3257,2.3101,2.3101,2.3101,2.3588,2.4258,0.0,0.0,1.8853,1.9494,0.0,0.0,2.1172,2.1108,2.0888,2.0501,1.9846,1.9177,1.861,1.7849,0.0,1.7458,0.0,0.0,0.0,1.5997,1.5493,1.5927,1.4967,1.447,1.4555,1.4709,1.4709,1.4555,1.4874,1.472,1.4183,1.5549,1.5843,1.5257,1.6043,1.5891,1.4898,1.4504,1.3887,1.3126,1.3214,1.318,1.3133,1.3346,1.3619,0.0,0.0,0.0,0.0,0.0,0.0,0.0,1.3722,1.4022,1.4259,1.3748,1.4205,1.514,1.6154,1.7153,1.9305,2.4976,3.037,3.487,3.7139,3.8067,3.8132,3.7096,3.6748,3.5833,0.0,0.0,0.0,0.0,0.0,0.0,0.0,0.0,0.0,0.0,0.0,0.0,0.0,0.0,0.0,0.0,0.0,0.0,2.5527,2.5312,2.5098,2.4844,2.457,2.4473,2.4551,2.4551,2.4512,0.0,2.4609,2.4609,2.4434,2.5059,2.5059,2.4531,2.4102,2.3926,2.3887,2.3457,2.3237,2.3218,2.314,2.3101,2.3101,2.3101,2.3218,2.3413,0.0,0.0,0.0,0.0,0.0,0.0,0.0,0.0,2.0739,2.0598,2.0227,1.9908,1.971,1.8908,0.0,0.0,0.0,0.0,0.0,1.6482,1.5861,1.5682,1.553,1.5393,1.5231,1.5002,1.48,1.4641,1.4272,1.4113,1.4181,1.5013,1.5382,1.5346,1.6207,1.5958,1.4915,1.4538,1.3901,1.315,1.3272,1.3241,1.3166,1.3473,1.3678,1.3785,1.3785,0.0,0.0,0.0,0.0,0.0,0.0,0.0,1.4044,1.3822,1.4121,1.4839,1.6318,1.7589,2.0088,2.6751,0.0,3.6136,3.7316,3.804,3.8241,3.7486,3.7208,0.0,0.0,0.0,0.0,0.0,0.0,0.0,0.0,0.0,0.0,0.0,0.0,0.0,0.0,0.0,0.0,0.0,0.0,2.5469,2.4785,2.457,2.4434,2.4414,2.4023,2.3906,2.4121,2.4121,2.4004,2.3764,2.4219,2.4316,2.4121,2.4355,2.4336,2.4102,2.3652,2.3477,2.3457,2.3198,2.3101,2.3101,2.3101,2.3101,2.3101,2.3101,2.3218,2.3457,0.0,0.0,0.0,0.0,0.0,0.0,0.0,0.0,0.0,2.0274,2.0368,2.0373,2.0195,1.9552,1.9107,0.0,0.0,0.0,0.0,0.0,0.0,1.5197,1.5877,1.612,1.5781,1.5389,1.5103,1.4885,1.3986,1.3868,1.4442,1.4712,1.5106,1.5632,1.6317,1.6141,1.5274,1.4795,1.4083,1.3319,1.34,1.3434,1.3437,1.387,1.4132,1.4291,1.4291,1.4271,1.4198,1.3839,0.0,0.0,0.0,0.0,1.383,1.4171,1.4333,1.4823,1.6875,1.8746,2.1602,2.7789,3.2087,0.0,3.6186,3.7144,3.784,3.7668,3.726,0.0,0.0,0.0,0.0,0.0,0.0,0.0,0.0,0.0,0.0,0.0,0.0,0.0,0.0,0.0,0.0,0.0,0.0,2.4766,2.4336,2.3984,2.3906,2.418,2.3471,2.332,2.3672,2.3672,2.3496,2.3101,2.3822,2.4004,2.3672,2.3672,2.3672,2.3652,2.3257,2.3101,2.3101,2.3101,2.3101,2.3101,2.3101,2.3101,2.3101,2.3101,2.3379,2.3633,0.0,0.0,0.0,0.0,0.0,0.0,0.0,0.0,0.0,0.0,2.0622,2.0259,1.9445,1.8948,1.8682,1.8682,1.8251,1.8272,1.9011,0.0,0.0,1.5351,1.5936,1.6087,1.5647,1.5583,1.5696,1.609,1.4818,1.4629,1.5467,1.4624,1.4956,1.6322,1.5816,1.564,1.5651,1.4607,1.3845,1.3336,1.3794,1.393,1.387,1.4388,1.4785,1.5045,1.5045,1.5024,1.4938,1.4635,1.4263,0.0,0.0,0.0,1.481,1.5317,1.5733,1.6514,1.892,2.2499,2.5812,0.0,3.0421,3.3339,0.0,0.0,3.712,0.0,0.0,0.0,0.0,0.0,0.0,0.0,0.0,0.0,0.0,0.0,0.0,0.0,0.0,0.0,0.0,0.0,0.0,0.0,2.4531,2.4316,2.3906,2.3828,2.3633,2.3276,2.3159,2.312,2.3179,2.3179,2.3159,2.3101,2.3218,2.3237,2.3179,2.3179,2.3179,2.3179,2.312,2.3101,2.3101,2.3101,2.3101,2.3101,2.3101,2.3101,2.3101,2.3101,2.314,2.3179,0.0,0.0,0.0,0.0,0.0,0.0,0.0,0.0,0.0,0.0,0.0,2.0,1.9347,1.8627,1.8313,1.8585,1.8166,1.7988,1.8243,1.7967,1.7265,1.6039,1.65,1.6741,1.6617,1.6164,1.6048,1.6248,1.4939,1.5069,1.6514,1.5503,1.5709,1.7063,1.6697,1.6383,1.5975,1.4658,1.3839,1.3424,1.3668,1.4118,1.4708,1.49,1.5497,1.6172,1.5903,1.5642,1.5441,1.5346,1.5032,1.4714,1.4937,0.0,0.0,0.0,1.5979,1.6514,1.9297,2.2099,2.4727,0.0,2.8676,3.0296,3.1112,0.0,3.3838,0.0,0.0,0.0,0.0,0.0,0.0,0.0,0.0,0.0,0.0,0.0,0.0,0.0,0.0,0.0,0.0,0.0,0.0,0.0,2.4062,2.3867,2.3437,2.3418,2.3296,2.3101,2.3101,2.3101,2.3101,2.3101,2.3101,2.3101,2.3101,2.3101,2.3101,2.3101,2.3101,2.3101,2.3101,2.3101,2.3101,2.3101,2.3101,2.3101,2.3101,2.3101,2.3101,2.3101,2.3101,2.3101,0.0,0.0,0.0,0.0,0.0,0.0,0.0,0.0,0.0,0.0,0.0,1.9804,1.9202,0.0,0.0,0.0,1.7958,1.769,1.755,1.7802,1.7594,1.6797,1.7163,1.7316,1.7212,1.6613,1.63,1.6147,1.5203,1.5586,1.7206,1.6695,1.7017,1.8036,1.7813,1.7235,1.6396,1.5169,1.4438,1.4079,1.4079,1.4617,1.5425,1.5683,1.6333,1.7095,1.6711,1.6407,1.6067,1.5848,1.5699,1.5672,1.5886,1.6178,0.0,0.0,0.0,1.7331,1.9337,0.0,2.2632,2.5164,2.6433,2.7409,0.0,0.0,0.0,0.0,0.0,0.0,0.0,0.0,0.0,0.0,0.0,0.0,0.0,0.0,0.0,0.0,0.0,0.0,0.0,0.0,0.0,0.0,2.3633,2.3477,2.312,2.3101,2.3101,2.3101,2.3101,2.3101,2.3101,2.3101,2.3101,2.3101,2.3101,2.3101,2.3081,2.2984,2.2945,2.2945,2.3042,2.3101,2.3101,2.3101,2.3101,2.3101,2.3101,2.3101,2.3101,2.3101,2.3101,2.3101,0.0,0.0,0.0,0.0,0.0,0.0,0.0,0.0,0.0,0.0,0.0,1.9802,1.8759,1.8245,1.7809,1.74,1.7356,1.7503,1.7933,1.8846,1.8833,1.7611,1.7739,0.0,1.6668,1.6648,1.6492,1.6094,1.6044,1.6464,1.7298,1.8008,1.8807,1.9555,1.8573,1.7725,1.6937,1.6404,1.5988,1.5675,1.5593,1.5611,1.5808,1.6963,1.7413,1.7461,1.7442,1.7379,1.7161,1.5983,1.6205,1.6823,1.6476,1.7194,1.8312,0.0,0.0,0.0,1.9513,2.0009,0.0,2.1535,2.3531,2.5381,0.0,0.0,0.0,0.0,0.0,0.0,0.0,0.0,0.0,0.0,0.0,0.0,0.0,0.0,0.0,0.0,0.0,0.0,0.0,0.0,0.0,0.0,2.314,2.312,2.3101,2.3101,2.3101,2.3101,2.3101,2.3101,2.3101,2.3101,2.3101,2.3101,2.3101,2.3101,2.3081,2.2734,2.2539,2.2559,2.2925,2.3101,2.3101,2.3101,2.3101,2.3101,2.3101,2.3101,2.3101,2.3101,2.3101,2.3101,0.0,0.0,0.0,0.0,0.0,0.0,0.0,0.0,0.0,0.0,0.0,0.0,0.0,1.8723,1.8501,1.8632,1.8108,1.7824,1.7999,1.8334,1.839,1.8016,1.8333,1.8184,1.7466,1.7219,1.6891,1.6484,1.5918,1.635,1.7755,1.7982,1.86,1.9485,1.8813,1.8348,1.8021,1.6564,1.6071,1.6182,1.6149,1.6596,1.7358,1.7774,1.8385,1.9018,1.8747,1.8275,1.774,1.7567,1.7392,1.7326,1.7802,1.8296,1.8776,1.9291,2.0243,2.0989,2.0419,0.0,0.0,2.165,2.2084,2.2655,2.4195,0.0,0.0,0.0,0.0,0.0,0.0,0.0,0.0,0.0,0.0,0.0,0.0,0.0,0.0,0.0,0.0,0.0,0.0,0.0,0.0,0.0,0.0,2.3101,2.3101,2.3101,2.3101,2.3101,2.3101,2.3101,2.3101,2.3101,2.3101,2.3081,2.2828,2.2691,2.2672,2.2305,2.2109,2.2109,2.2266,2.248,2.2711,2.2984,2.3101,2.3101,2.3101,2.3101,2.3101,2.3101,2.3101,2.3101,0.0,0.0,0.0,0.0,0.0,2.1815,2.1721,2.1753,2.1572,2.0966,0.0,0.0,0.0,0.0,1.8763,1.8938,1.837,1.8065,1.8217,1.857,1.8767,1.8846,1.921,1.9062,1.8306,1.7891,1.7253,1.6473,1.6009,1.6322,1.7363,1.7456,1.8083,1.9108,1.856,1.8439,1.8602,1.7442,1.6945,1.6946,1.7082,1.7455,1.8018,1.8674,1.9239,1.9676,1.9504,1.9112,1.8633,1.8442,1.8355,1.8406,1.8892,1.9355,1.9677,1.9718,2.0366,2.0966,2.054,2.0081,0.0,0.0,2.0885,2.0839,2.3432,0.0,0.0,0.0,0.0,0.0,0.0,0.0,0.0,0.0,0.0,0.0,0.0,0.0,0.0,0.0,0.0,0.0,0.0,0.0,0.0,0.0,0.0,0.0,2.3101,2.3101,2.3042,2.2886,2.3023,2.2964,2.2672,2.2808,2.2808,2.2672,2.2441,2.2305,2.2285,2.1855,2.166,2.166,2.166,2.1914,2.2344,2.2711,2.3126,2.3428,2.3217,2.3343,2.3627,2.3256,2.3101,2.3101,0.0,0.0,2.1201,2.1201,2.1517,2.1675,2.1454,2.1242,2.1083,2.0946,0.0,0.0,0.0,0.0,0.0,1.8065,1.8065,1.8239,1.8654,1.9627,2.0151,2.0085,2.0258,1.9942,1.9051,1.8595,1.7616,1.605,1.6336,1.6357,1.6115,1.6504,1.735,1.8543,1.782,1.795,1.8728,1.9014,1.8731,1.805,1.8495,1.8195,1.7715,1.9685,2.0014,1.9411,1.9748,1.9888,1.9766,1.8535,0.0,1.9997,1.967,2.0313,2.1055,2.0542,2.0404,2.0289,0.0,0.0,0.0,0.0,0.0,0.0,2.311,0.0,0.0,0.0,0.0,0.0,0.0,0.0,0.0,0.0,0.0,0.0,0.0,0.0,0.0,0.0,0.0,0.0,0.0,0.0,0.0,0.0,2.3081,2.3062,2.3105,2.3105,2.291,2.25,2.2847,2.2672,2.1894,2.2285,2.2285,2.1894,2.1875,2.1875,2.1855,2.1406,2.1171,2.1171,2.1171,2.1465,2.1875,2.2305,2.3136,2.4075,2.3361,2.378,2.4617,2.3517,2.3101,2.3101,0.0,2.1201,2.1201,2.1201,2.198,2.2472,2.2183,2.2063,2.1934,0.0,0.0,0.0,1.9715,2.0052,1.9822,1.8611,1.9126,1.9278,1.872,1.9258,1.9764,2.0085,1.9844,1.9575,1.9457,1.831,1.7579,1.7235,1.6464,1.6026,1.5958,1.6156,1.6772,1.7741,1.7818,1.8147,1.8595,1.8154,1.8334,1.8919,1.9366,1.9582,1.9803,2.1022,2.1339,2.1244,2.1629,2.1382,2.082,0.0,2.0222,1.9477,1.9153,1.948,1.9998,1.9868,2.0114,2.029,1.9767,0.0,0.0,0.0,0.0,0.0,2.218,2.3208,0.0,0.0,0.0,0.0,0.0,0.0,0.0,0.0,0.0,0.0,0.0,0.0,0.0,0.0,0.0,0.0,0.0,0.0,0.0,0.0,2.2676,2.2817,2.3207,2.3227,2.2857,2.2092,2.2168,2.2129,2.1894,2.1992,2.1992,2.1875,2.1562,2.1366,2.1366,2.0957,2.0742,2.0742,2.0742,2.086,2.1036,2.1738,2.2436,2.2966,2.2765,2.3024,2.3541,2.3212,2.3101,2.3101,2.1201,2.1201,2.1201,2.1201,2.1905,2.2292,2.1758,2.1864,2.178,0.0,0.0,0.0,1.9802,2.0096,1.9921,1.9069,1.9126,1.9147,1.9004,1.9254,1.955,1.978,1.9761,1.9566,1.9243,1.8231,1.7677,1.7603,1.6696,1.6144,1.5902,1.5996,1.6423,1.7129,1.733,1.7779,1.8344,1.8058,1.8345,1.909,2.0256,2.0676,2.0701,2.2088,2.251,2.2476,2.2838,2.2771,2.2519,2.2246,2.1253,0.0,0.0,2.0002,2.0156,2.0156,2.0243,2.0194,1.9684,1.9385,1.939,2.0169,0.0,0.0,2.2074,2.2636,2.3156,0.0,0.0,0.0,0.0,0.0,0.0,0.0,0.0,0.0,0.0,0.0,0.0,0.0,0.0,0.0,0.0,2.3036,2.2246,2.2246,2.2246,2.2567,2.3262,2.3282,2.2978,2.2271,2.2024,2.1904,2.1949,2.1707,2.1707,2.1949,2.1688,2.1508,2.1547,2.1727,2.1565,2.1183,2.1183,2.1343,2.1565,2.1588,2.2411,2.3598,2.3488,2.39,2.4382,2.343,2.3101,2.3101,0.0,2.127,2.1293,2.1362,2.1743,2.1818,2.1102,2.1284,2.123,0.0,1.9965,1.9627,1.9627,1.9627,1.9615,1.9475,1.8785,1.8632,1.9344,1.9454,1.947,1.9397,1.9775,1.956,1.8728,1.8196,1.7801,1.7579,1.711,1.6594,1.6075,1.6005,1.6238,1.677,1.6738,1.7155,1.7969,1.8403,1.8675,1.9012,2.1091,2.1495,2.1083,2.2975,2.3518,2.3362,2.367,2.4036,2.4219,2.2949,2.2066,0.0,0.0,0.0,0.0,0.0,2.0422,2.0104,1.9616,1.9425,1.952,2.0248,1.9905,0.0,2.2226,2.2408,2.2532,0.0,0.0,0.0,0.0,0.0,0.0,0.0,0.0,0.0,0.0,0.0,0.0,0.0,0.0,0.0,2.3724,2.2757,2.2166,2.2166,2.2208,2.2575,2.3358,2.3475,2.3263,2.2784,2.2351,2.2129,2.2151,2.1664,2.1664,2.2188,2.2188,2.2188,2.2226,2.3099,2.301,2.2188,2.2188,2.2459,2.29,2.2046,2.3145,2.5223,2.4721,2.5251,2.6069,2.3887,2.3101,2.3144,2.1795,2.1757,2.1904,2.2317,2.28,2.3052,2.2925,2.2388,2.2126,2.2313,2.1658,2.1166,2.1166,2.1166,2.086,2.0042,2.0183,2.0085,1.9431,1.9425,1.9403,1.9419,1.8767,1.8511,1.8706,1.7875,1.7591,1.7904,1.7487,1.7253,1.719,1.6657,1.6682,1.7159,1.6845,1.698,1.7559,1.8286,1.901,1.9809,2.1288,2.2202,2.2718,2.384,2.4217,2.4198,2.4644,2.4614,2.4219,2.2949,2.2386,2.1958,0.0,0.0,0.0,1.9418,0.0,0.0,0.0,0.0,0.0,0.0,0.0,0.0,2.1339,2.1481,2.1594,0.0,0.0,0.0,0.0,0.0,0.0,0.0,0.0,0.0,0.0,0.0,0.0,0.0,0.0,0.0,2.5877,2.4607,2.3771,2.3771,2.4153,2.4294,2.4034,2.4451,2.4251,2.3364,2.3229,2.3185,2.3231,2.3097,2.3097,2.3231,2.3231,2.3231,2.3209,2.3415,2.3415,2.3231,2.3231,2.3276,2.3461,2.4497,2.5203,2.5489,2.3658,2.3819,2.4957,2.3584,2.3101,2.3212,2.1891,2.2134,2.2386,2.2639,2.3098,2.328,2.2959,2.2705,2.2585,2.2737,2.2496,2.2215,2.1974,2.1953,2.1559,2.0577,2.0511,2.0293,1.978,1.9518,1.9387,1.9387,1.896,1.8698,1.8698,1.7999,1.7988,1.864,1.8256,1.8064,1.8098,1.7968,1.7752,1.7544,1.7475,1.7546,1.7754,1.8594,1.9336,2.0039,2.1582,2.2702,2.357,2.4652,2.5031,2.505,2.5332,2.5117,2.4648,2.4004,2.3359,0.0,2.1318,2.107,2.1054,0.0,1.9831,1.9863,0.0,0.0,0.0,2.018,0.0,0.0,0.0,2.1557,2.167,0.0,0.0,0.0,0.0,0.0,0.0,0.0,0.0,0.0,0.0,0.0,0.0,0.0,0.0,0.0,2.4909,2.3771,2.3059,2.3059,2.399,2.4484,2.4217,2.4707,2.4779,2.4253,2.3745,2.3745,2.4217,2.3246,2.3268,2.4217,2.3745,2.3781,2.4276,2.4779,2.4719,2.4253,2.4253,2.453,2.5052,2.5307,2.6332,2.7585,2.565,2.5218,2.5504,2.4382,2.3604,2.3256,2.2009,2.2409,2.2742,2.28,2.3259,2.3349,2.2685,2.2818,2.2876,2.275,2.2988,2.302,2.2613,2.2518,2.2185,2.1603,2.0784,2.0417,2.0744,1.9911,1.9423,1.9423,1.9312,1.906,1.8607,1.8297,1.8494,1.9179,1.9022,1.8973,1.8966,1.9327,1.9021,1.8164,1.8351,1.8273,1.8135,1.904,1.9707,2.0274,2.1973,2.3008,2.3691,2.4933,2.544,2.546,2.5635,2.5508,2.5156,2.4949,2.4245,2.3281,2.2512,2.2181,0.0,0.0,0.0,0.0,0.0,0.0,0.0,0.0,0.0,2.0927,0.0,0.0,0.0,0.0,0.0,0.0,0.0,0.0,0.0,0.0,0.0,0.0,0.0,0.0,0.0,0.0,0.0,0.0,0.0,2.292,2.2457,2.2457,2.3718,2.4472,2.4472,2.5011,2.53,2.53,2.4505,2.4469,2.53,2.3686,2.3686,2.53,2.4469,2.4505,2.5335,2.6129,2.606,2.53,2.5396,2.5925,2.6695,2.5806,2.7114,2.9463,2.7804,2.6892,2.6359,2.521,2.4082,2.3299,2.2501,2.2673,2.2823,2.3247,2.3787,2.3948,2.3372,2.3221,2.3189,2.3239,2.3585,2.3813,2.3633,2.3236,2.3185,2.3846,2.2048,2.1516,2.3037,2.0843,1.9509,1.9563,1.9066,1.8611,1.8263,1.8503,1.8629,1.8674,1.9535,1.9924,1.9964,2.0174,1.9986,1.9465,1.9275,1.8903,1.8494,1.9426,2.0274,2.1171,2.2496,2.2867,0.0,2.4082,2.457,2.4668,2.5401,2.5654,2.5488,0.0,2.4082,2.3913,0.0,2.2082,2.2625,2.1072,0.0,0.0,0.0,0.0,0.0,0.0,2.108,0.0,0.0,0.0,2.2086,2.1419,0.0,0.0,0.0,0.0,0.0,0.0,0.0,0.0,0.0,0.0,0.0,0.0,0.0,0.0,0.0,2.4549,2.4484,2.4484,2.5054,2.5453,2.5453,2.6002,2.6336,2.6336,2.6233,2.6198,2.6327,2.6094,2.6094,2.6327,2.6198,2.6233,2.6336,2.6465,2.643,2.6352,2.6826,2.7101,2.7226,2.7083,2.7802,2.8824,2.7208,2.6539,2.6359,2.521,2.4082,2.343,2.249,2.2719,2.2846,2.3316,2.3374,2.3351,2.3407,2.4385,2.4982,2.462,2.5098,2.5652,2.6018,2.5147,2.4618,2.4722,2.3619,2.2877,2.281,2.1471,2.0737,2.0758,2.0268,1.9911,1.9771,1.9647,1.9674,1.9894,2.0334,2.067,2.0929,2.1158,2.0831,2.0042,2.0096,1.9787,1.9304,2.0013,2.0664,2.1268,0.0,2.2441,0.0,2.4492,2.5128,2.5187,2.5557,2.5693,2.5557,0.0,2.4473,0.0,0.0,0.0,0.0,0.0,0.0,0.0,0.0,0.0,0.0,0.0,0.0,0.0,2.2375,0.0,2.2229,0.0,0.0,0.0,0.0,0.0,0.0,0.0,2.1368,0.0,0.0,0.0,0.0,0.0,0.0,0.0,0.0,0.0,0.0,0.0,2.4356,2.4808,2.5134,2.5661,2.6147,2.6474,2.6499,2.6499,2.6499,2.5921,2.5921,2.6499,2.5921,2.5955,2.6499,2.6499,2.6499,2.6524,2.7077,2.7469,2.7795,2.8097,2.8699,2.9376,2.8655,2.7626,2.6442,2.5964,2.4638,2.3343,2.2262,2.2411,2.2571,2.3109,2.2937,2.2846,2.3338,2.4665,2.5604,2.5489,2.5917,2.6582,2.7437,2.6681,2.6184,2.6201,2.5419,2.452,2.3632,2.2567,2.1866,2.1507,2.1232,2.0982,2.0784,2.065,2.0733,2.1002,2.1209,2.1456,2.1744,2.2078,2.1687,2.068,2.0941,2.0687,2.0155,2.0819,2.1348,2.1775,2.248,2.2949,2.3379,2.4777,2.5401,2.5615,2.6071,2.6207,2.6156,2.5625,2.5305,0.0,2.3898,0.0,0.0,0.0,0.0,0.0,2.0233,0.0,0.0,0.0,0.0,0.0,0.0,0.0,0.0,0.0,0.0,0.0,0.0,0.0,0.0,0.0,0.0,2.1074,0.0,0.0,0.0,0.0,0.0,0.0,0.0,0.0,0.0,0.0,0.0,2.418,2.4582,2.5234,2.5787,2.6248,2.6399,2.6499,2.6499,2.5511,2.5511,2.6499,2.5476,2.5511,2.6499,2.6499,2.6499,2.6524,2.7077,2.7595,2.8147,2.8512,2.9126,2.9779,2.9628,2.8488,2.6912,2.6912,2.5504,2.3714,2.1799,2.1708,2.1934,2.2616,2.2719,2.2846,2.3338,2.3476,2.3977,2.5224,2.536,2.5793,2.6887,2.7223,2.7762,2.8902,2.7348,2.6468,2.6852,2.4411,2.2451,2.1245,2.1453,2.1229,2.0446,2.1137,2.1531,2.1479,2.2063,2.2316,2.2297,2.2815,2.2525,2.1588,2.1767,2.1531,2.1032,2.2005,2.2652,2.314,2.4453,2.5028,2.4988,0.0,2.4727,2.5326,2.696,0.0,0.0,2.6553,2.6487,0.0,0.0,0.0,0.0,0.0,0.0,0.0,0.0,0.0,0.0,2.3302,0.0,0.0,0.0,0.0,2.3216,0.0,0.0,0.0,0.0,0.0,2.157,2.1238,2.0663,0.0,0.0,0.0,0.0,0.0,0.0,0.0,0.0,0.0,0.0,0.0,0.0,0.0,2.4029,2.5034,2.5611,2.5611,2.6197,2.6499,2.6499,2.5511,2.5511,2.6499,2.5476,2.5511,2.6499,2.6499,2.6499,2.6524,2.7077,2.7595,2.8097,2.8122,2.88,2.9729,2.9176,2.8562,2.8044,2.8044,2.6644,2.4914,2.2037,2.2094,2.2161,2.2169,2.2241,2.2503,2.3119,2.4331,2.5819,2.7635,2.8231,2.918,3.1106,3.114,3.093,3.0826,2.9648,2.8491,2.7511,2.5483,0.0,2.3734,0.0,2.2133,0.0,2.2121,2.2298,2.2629,2.2106,2.2367,2.334,2.249,2.1942,2.1609,2.2082,2.1953,0.0,0.0,0.0,0.0,0.0,2.4473,2.4238,0.0,2.4953,2.587,2.6831,2.7366,0.0,2.8205,2.725,2.5808,2.5375,2.4183,2.2891,2.2598,2.3173,0.0,0.0,0.0,2.6056,2.5063,0.0,0.0,0.0,0.0,0.0,0.0,0.0,0.0,0.0,0.0,2.157,2.1238,2.0725,2.0007,0.0,0.0,0.0,0.0,0.0,0.0,0.0,0.0,0.0,0.0,2.285,0.0,0.0,2.4682,2.5234,2.5586,2.6197,2.6499,2.6499,2.6164,2.6164,2.6499,2.6164,2.6164,2.6499,2.6499,2.6499,2.6524,2.7077,2.7595,2.8122,2.8461,2.9101,2.9779,2.9578,2.9372,2.9028,2.7585,2.6584,2.588,2.2204,2.2616,2.2845,2.2271,2.2101,2.2385,2.3324,2.5037,2.686,2.8737,2.9799,3.1116,3.2986,3.303,3.2754,0.0,3.1544,3.0137,2.7865,2.6872,0.0,2.4649,2.3766,2.333,0.0,0.0,0.0,2.3444,2.2771,2.3039,2.4206,2.3013,2.2257,2.1927,2.2342,2.2169,2.163,2.2393,2.314,0.0,0.0,2.4023,0.0,0.0,2.5206,2.6235,0.0,2.8054,2.8485,2.9234,2.8341,2.6889,2.6671,2.5442,2.4133,2.3968,2.4724,2.5546,2.5436,2.6743,0.0,2.6772,2.6795,0.0,2.553,0.0,0.0,0.0,0.0,0.0,0.0,0.0,2.2021,2.1939,2.125,2.0251,0.0,1.8432,0.0,0.0,0.0,0.0,0.0,0.0,0.0,2.1888,2.2357,2.3055,0.0,0.0,2.5059,2.5586,2.6197,2.6499,2.6499,2.6129,2.6129,2.6499,2.6129,2.6164,2.6499,2.6499,2.6499,2.6524,2.7077,2.7595,2.8147,2.8662,2.9277,2.9804,2.9804,2.9804,2.9624,2.8211,2.718,2.6276,2.2268,2.3179,2.3779,2.2925,2.233,2.2479,2.398,2.5462,2.6975,2.8628,3.01,3.1511,3.2773,3.315,3.3276,3.3075,3.2905,3.1387,2.8066,2.8516,0.0,0.0,2.4703,2.4691,2.3938,0.0,0.0,0.0,2.3915,2.4206,2.4818,2.4242,2.3494,2.2554,2.2556,2.2226,2.1691,2.2675,2.3358,2.3769,2.3789,2.3789,2.3865,2.459,2.5397,2.6464,2.8757,2.9564,2.9648,2.9695,2.9629,2.9235,2.7674,2.7135,2.6981,2.6617,2.7197,2.7869,2.7462,2.7878,2.8361,2.8332,0.0,0.0,0.0,0.0,2.6784,0.0,0.0,0.0,0.0,0.0,0.0,2.3179,2.2059,2.0649,0.0,0.0,0.0,0.0,0.0,0.0,0.0,0.0,2.0604,2.1756,2.1888,2.2526,0.0,0.0,2.5026,2.5586,2.6197,2.6499,2.6499,2.5546,2.5546,2.6499,2.5511,2.5606,2.6524,2.6524,2.6549,2.66,2.7128,2.7645,2.8197,2.8687,2.9277,2.9804,2.9804,2.9804,2.9779,2.974,2.8331,2.611,2.2786,2.3152,2.3617,2.38,2.3302,2.3097,2.3869,2.5569,2.7683,3.0208,3.1946,3.3679,3.5448,3.5409,3.5008,3.4295,3.3344,0.0,0.0,0.0,0.0,2.7637,2.6604,2.5915,2.5671,2.4584,2.4363,2.5021,0.0,2.4084,2.5365,2.4418,2.367,2.3029,2.3387,2.3059,2.2218,2.2838,2.3155,2.3296,2.3652,2.3789,2.3954,0.0,2.6402,2.7037,2.8519,2.9399,2.9871,3.0679,2.9853,2.8495,2.8469,2.7621,2.664,2.6505,2.7534,2.8621,2.8521,2.9508,3.0311,2.922,2.905,2.8821,0.0,0.0,0.0,0.0,0.0,0.0,0.0,0.0,0.0,2.2495,2.1325,2.0343,0.0,0.0,0.0,0.0,0.0,0.0,0.0,0.0,2.0605,2.0899,2.1913,2.2947,0.0,0.0,0.0,2.5586,2.6197,2.6499,2.6499,2.6233,2.6233,2.6499,2.6233,2.6457,2.7102,2.7102,2.7293,2.7695,2.7821,2.8197,2.8687,2.8838,2.9277,2.9804,2.9804,2.9804,2.9702,2.8846,2.7157,2.5168,2.3089,2.3708,2.4342,2.4462,0.0,0.0,2.562,2.6363,0.0,3.0599,3.2295,0.0,3.489,3.543,3.5469,3.4766,3.3691,0.0,3.1035,0.0,0.0,2.8691,2.7734,2.7035,2.6636,2.5139,0.0,2.5414,0.0,2.4616,2.5965,2.5102,2.4285,2.356,2.3816,2.3343,2.2366,2.2879,2.3076,2.3106,2.3384,2.3496,0.0,2.576,2.664,2.7054,2.8722,2.9495,2.988,3.0482,2.9861,2.8919,2.9212,2.8691,2.7931,2.7931,2.8754,2.965,2.965,3.0341,3.0869,3.0005,2.9866,2.9613,2.8481,2.8428,2.859,0.0,0.0,0.0,0.0,0.0,0.0,0.0,0.0,0.0,0.0,0.0,0.0,0.0,0.0,0.0,0.0,0.0,2.0591,2.0591,2.1564,0.0,0.0,0.0,0.0,2.5735,2.648,2.6977,2.7203,2.7203,2.7203,2.7203,2.7203,2.7379,2.7645,2.7645,2.7821,2.8122,2.8373,2.8612,2.8913,2.9164,2.9503,2.9804,2.9804,2.9804,2.9663,2.8505,2.7296,2.6191,2.3298,2.4475,2.5301,0.0,0.0,0.0,0.0,2.7788,0.0,3.0575,0.0,3.3066,3.3125,3.4375,3.5059,3.4648,0.0,3.2461,3.0586,3.1074,3.0605,2.8711,2.8574,2.8125,2.7207,2.5488,2.4941,0.0,2.5018,2.5381,2.6474,2.5971,2.5173,2.4212,2.4049,2.3392,0.0,2.29,2.3112,2.3128,2.3118,2.3101,2.3343,2.5652,2.6524,2.6812,2.9013,2.9804,2.9804,2.9804,2.9804,2.9804,2.9804,2.9804,2.9804,2.9804,3.0131,3.0507,3.0507,3.0507,3.0507,3.0507,3.0156,2.9804,2.9804,2.9804,2.9804,2.9804,2.8774,2.8201,0.0,0.0,0.0,0.0,0.0,0.0,0.0,0.0,0.0,0.0,0.0,0.0,0.0,0.0,2.0682,2.0711,2.1295,0.0,0.0,0.0,0.0,2.6134,2.6901,2.7544,2.8097,0.0,2.8097,2.8097,2.8097,2.8147,2.8222,2.8222,2.8247,2.8348,2.8825,2.9013,2.9038,2.9578,2.9804,2.9804,2.9804,2.9804,2.9663,2.8688,2.8307,2.8148,2.3482,2.4665,2.5379,0.0,0.0,2.7291,2.8958,3.0093,3.1111,3.2252,3.354,3.4512,3.4902,3.457,3.4277,3.418,3.3086,0.0,0.0,0.0,0.0,3.0449,3.0078,2.9297,2.8086,2.6761,2.6017,2.5975,2.5182,2.5378,2.6499,2.6399,2.598,2.5285,2.4803,2.3944,2.2956,2.3081,0.0,2.3114,2.3105,2.3101,2.3343,2.5652,2.6524,2.6812,2.9013,2.9804,2.9804,2.9804,2.9804,2.9804,2.9804,2.9804,2.9804,2.9804,2.9854,2.993,2.993,2.993,2.993,2.993,2.9854,2.9804,2.9804,2.9804,2.9804,2.9804,2.959,2.9124,2.8151,0.0,0.0,0.0,0.0,0.0,0.0,0.0,0.0,0.0,0.0,0.0,0.0,0.0,0.0,0.0,0.0,0.0,0.0,0.0,0.0,0.0,2.7218,0.0,0.0,0.0,2.8097,2.8097,2.8097,2.8348,2.8737,2.8737,2.9051,2.9503,2.9603,2.9628,2.9654,2.9754,2.9804,2.9804,2.9804,2.9804,2.9804,2.9585,2.9482,2.9209,2.51,0.0,0.0,0.0,0.0,0.0,0.0,3.1381,3.2168,3.2129,3.2676,3.3125,3.3359,3.3789,3.3984,3.375,3.2773,3.207,3.1836,3.125,3.0898,3.0898,3.0449,2.9707,2.8633,2.7148,2.6249,2.5999,2.5187,2.5209,2.6025,2.6336,2.6164,2.5535,2.4686,2.3819,0.0,0.0,0.0,2.309,2.309,2.3101,2.3343,2.5652,2.6524,2.6812,2.9013,2.9804,2.9804,2.9804,2.9804,2.9804,2.9804,2.9804,2.9804,2.9804,2.9804,2.9804,2.9804,2.9804,2.9804,2.9804,2.9804,2.9804,2.9804,2.9804,2.9804,2.9804,2.9804,2.949,2.845,2.7742,0.0,0.0,0.0,0.0,0.0,0.0,0.0,0.0,0.0,0.0,0.0,0.0,0.0,0.0,0.0,0.0,0.0,0.0,0.0,0.0,0.0,0.0,0.0,0.0,0.0,2.8976,2.8976,2.9126,2.9377,2.9377,2.9528,2.9804,2.9804,2.9804,2.9804,2.9804,2.9804,2.9804,2.9804,2.9804,2.9804,2.9804,2.9804,2.9663,2.6466,2.6945,0.0,0.0,2.9394,3.0558,3.0934,3.2038,3.2559,3.1875,3.1797,3.1797,3.1797,3.3066,3.3769,3.332,3.2598,3.1992,3.1543,3.1133,3.0898,3.0898,3.0547,2.9902,2.8945,2.7441,2.642,2.5911,2.527,2.5142,2.561,2.6074,2.5924,2.5206,0.0,0.0,0.0,0.0,2.309,2.3083,2.3095,2.3256,2.3671,2.5714,2.6648,2.7098,2.9091,2.9804,2.9804,2.9804,2.9804,2.9804,2.9804,2.9804,2.9804,2.9804,2.9804,2.9804,2.9804,2.9804,2.9804,2.9804,2.9804,2.9804,2.9804,2.9804,2.9804,2.9804,2.9804,2.9654,2.9202,2.8874,0.0,0.0,0.0,0.0,0.0,0.0,0.0,0.0,0.0,0.0,0.0,0.0,0.0,0.0,0.0,2.3369,2.3798,2.4813,2.5862,0.0,0.0,2.8599,2.9603,0.0,2.9804,2.9804,2.9804,2.9804,2.9804,2.9804,2.9804,2.9804,2.9804,2.9804,2.9804,2.9804,2.9804,2.9804,2.9804,2.9804,2.9804,2.9804,2.9804,2.9804,0.0,0.0,0.0,0.0,0.0,3.0954,3.0596,3.184,3.2773,3.2676,3.2676,3.2676,3.2676,3.3164,3.332,3.2891,3.2441,3.1992,3.1543,3.1133,3.0898,3.0898,3.0859,3.0234,2.8945,2.8008,2.7033,0.0,2.5543,2.5451,0.0,2.5683,2.5098,0.0,0.0,0.0,0.0,2.3094,2.31,2.3086,2.3125,2.3714,2.4787,2.6005,2.7075,2.8108,2.9365,2.9804,2.9804,2.9804,2.9804,2.9804,2.9804,2.9804,2.9804,2.9804,2.9804,2.9804,2.9804,2.9804,2.9804,2.9804,2.9804,2.9804,2.9804,2.9804,2.9804,2.9804,2.9804,2.9779,2.9729,2.9665,2.9665,0.0,0.0,0.0,0.0,0.0,0.0,0.0,0.0,0.0,0.0,2.5342,0.0,0.0,2.4312,2.4441,2.6095,2.628,2.6666,2.7233,0.0,2.8398,2.8963,2.9528,2.9804,2.9804,2.9804,2.9804,2.9804,2.9804,2.9804,2.9804,2.9804,2.9804,2.9804,2.9804,2.9804,2.9804,2.9804,2.9804,2.9804,2.9804,2.9804,2.9804,0.0,0.0,0.0,0.0,0.0,0.0,0.0,3.1643,3.1934,3.168,3.2109,3.2422,3.2422,3.2559,3.2598,3.2441,3.2031,3.1699,3.1523,3.1133,3.0898,3.0898,3.0898,3.0508,2.9707,2.8613,2.7416,0.0,0.0,0.0,0.0,0.0,0.0,0.0,0.0,2.4416,2.4598,2.4616,2.5017,2.5594,2.5594,2.5679,2.5922,2.7035,2.7723,2.8267,2.9404,2.9804,2.9804,2.9804,2.9804,2.9804,2.9804,2.9804,2.9804,2.9804,2.9804,2.9804,2.9804,2.9804,2.9804,2.9804,2.9804,2.9804,2.9804,2.9804,2.9804,2.9804,2.9804,2.9804,2.9804,2.9804,2.9804,0.0,0.0,0.0,0.0,0.0,0.0,0.0,0.0,0.0,0.0,0.0,0.0,0.0,0.0,0.0,2.5427,2.6122,0.0,2.6826,0.0,2.8373,2.8888,2.9503,2.9804,2.9804,2.9804,2.9804,2.9804,2.9804,2.9804,2.9804,2.9804,2.9804,2.9804,2.9804,2.9804,2.9804,2.9804,2.9804,2.9804,2.9804,2.9804,2.9804,2.9513,0.0,3.0207,0.0,3.0917,3.1104,3.1446,3.1523,3.1367,3.0937,3.1426,3.1836,3.1953,3.209,3.2109,3.1992,3.2098,3.19,3.1348,3.1445,3.1325,3.0898,3.0898,0.0,3.0215,2.9199,2.8239,2.7305,2.7076,0.0,0.0,0.0,0.0,0.0,2.5254,2.5775,2.6341,2.6325,2.6692,2.7307,2.7307,2.716,2.7035,2.7804,2.8307,2.8727,2.9507,2.9804,2.9804,2.9804,2.9804,2.9804,2.9804,2.9804,2.9804,2.9804,2.9804,2.9804,2.9804,2.9804,2.9804,2.9804,2.9804,2.9804,2.9804,2.9804,2.9804,2.9804,2.9804,2.9804,2.9804,2.9804,2.9804,2.9804,0.0,0.0,0.0,0.0,0.0,0.0,2.7469,2.6646,2.5608,0.0,0.0,0.0,0.0,0.0,0.0,0.0,0.0,0.0,0.0,0.0,0.0,2.9503,2.9804,2.9804,2.9804,2.9804,2.9804,2.9804,2.9804,2.9804,2.9804,2.9804,2.9804,2.9804,2.9804,2.9804,2.9804,2.9804,2.9804,2.9804,2.9804,2.9804,2.9528,3.0311,3.0996,3.1426,3.1855,3.2053,3.1582,3.1523,3.1367,3.0937,3.0898,3.1055,3.1484,3.1914,3.1992,3.1562,3.286,3.2888,3.1035,3.2264,3.2416,0.0,0.0,3.0664,3.0215,2.9785,2.9593,2.9665,0.0,0.0,2.8862,0.0,2.8232,2.7221,2.8345,2.8547,2.8047,2.807,2.7777,2.7307,2.7307,2.7617,2.8084,2.8084,2.8806,2.9779,2.9804,2.9804,2.9804,2.9804,2.9804,2.9804,2.9804,2.9804,2.9804,2.9804,2.9804,2.9804,2.9804,2.9804,2.9804,2.9804,2.9804,2.9804,2.9804,2.9804,2.9804,2.9804,2.9804,2.9804,2.9804,2.9804,2.9804,2.9804,0.0,0.0,0.0,0.0,0.0,0.0,2.7178,2.6499,2.6474,0.0,0.0,0.0,0.0,0.0,0.0,0.0,0.0,2.7268,2.8348,0.0,2.8888,2.9503,2.9804,2.9804,2.9804,2.9804,2.9804,2.9804,2.9804,2.9804,2.9804,2.9804,2.9804,2.9804,2.9804,2.9804,2.9804,2.9804,2.9804,2.9804,2.9804,2.9804,3.0449,3.0937,3.1269,3.1113,3.1445,3.1582,3.1152,3.1094,3.1055,3.0918,3.1133,3.1269,3.1113,3.2109,3.3256,0.0,3.4706,3.4202,0.0,3.2981,3.2416,3.0937,3.0898,3.082,3.0664,3.0234,3.0053,3.0097,0.0,0.0,0.0,3.0049,2.945,2.8373,2.8749,2.9236,2.9812,2.9812,3.0148,3.0615,3.025,2.9951,2.9742,2.9411,2.9482,2.9804,2.9804,3.003,3.0306,2.9905,3.003,3.0281,2.9905,2.9804,2.9804,2.9804,2.9804,2.9804,2.9804,2.9804,2.9804,2.9804,2.9804,2.9804,2.9804,2.9804,2.9972,3.062,3.0771,3.0932,3.1573,3.1193,3.0771,3.0771,3.0216,0.0,0.0,0.0,0.0,0.0,2.8021,2.757,0.0,2.757,0.0,0.0,0.0,0.0,0.0,0.0,0.0,0.0,2.8348,0.0,2.8888,2.9503,2.9804,2.9804,2.9804,2.9804,2.9804,2.9804,2.9804,2.9804,2.9804,2.9804,2.9804,2.9804,2.9804,2.9804,2.9804,2.9804,2.9804,2.9804,2.9804,2.9804,3.0898,3.1094,3.1191,3.0937,3.1113,3.1191,3.0937,3.0898,3.0937,3.1113,3.1211,3.1643,3.2703,3.3466,0.0,3.4818,3.5633,3.5621,3.4367,3.4556,3.3845,3.1825,3.171,3.1498,3.0898,3.0605,0.0,3.1825,3.2188,3.218,3.1826,3.1826,3.1452,3.0788,3.0788,3.1165,3.1845,3.1607,3.1797,3.219,3.1838,3.1386,3.0859,3.0532,3.0382,3.0382,3.0382,3.0608,3.0834,3.0281,3.0331,3.0507,2.9955,2.9804,2.9804,2.9804,2.9804,2.9804,2.9804,2.9804,2.9804,2.9804,2.9804,2.9804,2.9804,3.0062,3.0495,3.1082,3.1499,3.1901,3.2486,3.2128,3.1609,3.1241,3.0514,2.991,2.9516,0.0,0.0,0.0,0.0,0.0,0.0,2.8097,2.7971,0.0,0.0,0.0,0.0,0.0,0.0,2.7896,2.8775,0.0,2.9252,2.9603,2.9804,2.9804,2.9804,2.9804,2.9804,2.9804,2.9804,2.9804,2.9804,2.9804,2.9804,2.9804,2.9804,2.9804,2.9804,2.9804,2.9804,2.9804,2.993,3.008,3.0898,3.0898,3.0898,0.0,3.0898,0.0,3.0898,3.0898,3.1035,3.1426,3.127,3.2296,3.5354,3.558,3.4947,3.3529,0.0,0.0,0.0,3.6757,3.6194,3.336,3.3247,3.2587,3.1228,3.1228,3.2303,3.4482,3.5259,3.5082,3.4073,3.4073,3.4048,3.4022,3.4022,3.3972,3.3872,3.3345,3.2792,3.2265,3.224,3.1913,3.1436,3.1411,3.1386,3.1386,3.1386,3.1411,3.1361,3.0859,3.0658,3.0583,3.003,2.9829,2.9804,2.9804,2.9804,2.9804,2.9804,2.9804,2.9804,2.9804,2.9804,2.9804,2.9804,3.0533,3.1204,3.1278,3.2019,3.27,3.277,3.2735,3.2379,3.1409,3.0765,3.0022,2.8988,0.0,0.0,0.0,0.0,0.0,0.0,2.8222,2.8197,0.0,0.0,0.0,0.0,0.0,2.7846,2.8913,2.9503,2.9804,2.9804,2.9804,2.9804,2.9804,2.9804,2.9804,2.9804,2.9804,2.9804,2.9804,2.9804,2.9804,2.9804,2.9804,2.9804,2.9804,2.9804,2.9804,2.9804,2.9829,3.0181,3.0557,0.0,0.0,3.0898,3.0898,3.0898,3.0898,3.0898,3.0898,3.0918,3.1035,3.2226,3.3231,3.3699,3.5947,3.7177,3.6511,3.8137,3.853,3.7079,3.7293,3.6703,3.4847,3.4792,3.4626,3.4258,3.4258,3.4645,3.5455,3.6383,3.6458,3.5827,3.5827,3.5554,3.5107,3.5107,3.47,3.3897,3.3746,3.3395,3.2842,3.239,3.2139,3.1964,3.1537,3.1386,3.1386,3.1386,3.1662,3.1938,3.1386,3.121,3.111,3.0583,3.0131,2.9804,2.9804,2.9804,2.9804,2.9804,2.9804,2.9804,2.9804,2.9804,2.9804,2.9804,3.0533,3.1389,3.2128,3.3017,3.3876,3.4673,3.4177,3.3224,3.1881,3.094,2.9928,2.8495,2.8197,0.0,0.0,2.8687,2.89,2.9352,2.9402,2.9202,0.0,0.0,0.0,0.0,2.8273,2.8423,2.9553,2.9729,2.9804,2.9804,2.9804,2.9804,2.9804,2.9804,2.9804,2.9804,2.9804,2.9804,2.9804,2.9804,2.9804,2.9804,2.9804,2.9804,2.9804,2.9804,2.9804,2.9854,3.0256,3.0507,3.0658,3.2035,3.1383,3.0898,3.0898,3.0898,3.0898,3.0898,3.0898,3.0957,3.1152,3.1934,3.2938,3.4224,3.5869,3.7277,3.8425,3.9258,3.9362,3.8582,3.853,3.7873,3.6379,3.6325,3.5999,3.5288,3.5288,3.5634,3.6212,3.7097,3.7287,3.6782,3.6531,3.6081,3.5483,3.5232,3.4655,3.3872,3.3621,3.3345,3.3043,3.2742,3.2616,3.2566,3.2265,3.2164,3.2164,3.2164,3.234,3.2516,3.1964,3.1763,3.1662,3.1135,3.0758,3.0532,3.0532,3.0181,2.9804,2.9804,2.9804,2.9804,2.9804,2.9804,2.9804,2.9804,3.0533,3.1352,3.1865,3.3052,3.4177,3.471,3.4739,3.4129,3.2458,3.1307,3.0175,2.8658,2.8273,0.0,2.8838,2.9113,2.9453,2.9754,2.9804,2.9654,2.9352,2.9051,0.0,2.9302,2.9051,2.9151,2.9779,2.9804,2.9804,2.9804,2.9804,2.9804,2.9804,2.9804,2.9804,2.9804,2.9804,2.9804,2.9804,2.9804,2.9804,2.9804,2.9804,2.9804,2.9804,2.9804,2.9955,3.0181,3.0231,3.0708,3.1286,3.3473,3.2264,3.1228,3.1228,3.1054,3.0898,3.0898,3.0898,3.1016,3.1367,3.1328,3.2407,3.5456,3.5701,3.6727,3.9465,3.9697,3.9697,3.9697,3.9697,3.9129,3.7902,3.7849,3.7263,3.5999,3.5945,3.6309,3.7004,3.7691,3.7739,3.7186,3.6656,3.6081,3.5483,3.5152,3.4625,3.3997,3.3621,3.3395,3.3319,3.3319,3.3319,3.3319,3.3244,3.3244,3.3319,3.3244,3.3244,3.3244,3.2667,3.2416,3.224,3.1687,3.1461,3.1386,3.1386,3.0758,3.003,3.003,2.998,2.9905,2.9905,2.9854,2.9804,2.9804,3.0533,3.1241,3.1389,3.277,3.4075,3.4211,3.4905,3.4843,3.28,3.1702,3.0561,2.8985,0.0,2.8398,2.8838,2.9428,2.9804,2.9804,2.9804,2.9804,2.9804,2.9804,2.9804,2.9804,2.9804,2.9804,2.9804,2.9804,2.9804,2.9804,2.9804,2.9804,2.9804,2.9804,2.9804,2.9804,2.9804,2.9804,2.9804,2.9804,2.9804,2.9804,2.9804,2.9804,2.9804,2.9804,3.008,3.0457,3.0156,3.0859,3.1788,3.5178,3.3733,3.2758,3.2758,3.171,3.0898,3.0898,3.0898,3.0918,3.0976,3.2018,3.3438,3.5179,3.6426,3.7849,3.9517,3.9697,3.9697,3.9697,3.9697,3.9594,3.9362,3.9362,3.9258,3.9025,3.9025,3.8881,3.854,3.8166,3.7739,3.7186,3.6656,3.6081,3.5508,3.5931,3.5554,3.4625,3.4956,3.4856,3.4474,3.4474,3.4474,3.4424,3.3947,3.4073,3.4399,3.3947,3.4073,3.4374,3.3822,3.3319,3.2842,3.2265,3.1763,3.1386,3.1386,3.126,3.1135,3.1135,3.0809,3.0482,3.0482,3.0131,2.9804,2.9804,3.0533,3.1426,3.22,3.3227,3.4245,3.51,3.5392,3.4725,3.2311,3.1785,3.088,2.8566,0.0,2.8787,2.8888,2.9428,2.9804,2.9804,2.9804,2.9804,2.9804,2.9804,2.9804,2.9804,2.9804,2.9804,2.9804,2.9804,2.9804,2.9804,2.9804,2.9804,2.9804,2.9804,2.9804,2.9804,2.9804,2.9804,2.9804,2.9804,2.9804,2.9804,2.9804,2.9804,2.9804,2.9804,2.9854,3.0005,3.0834,3.1009,3.0959,3.6595,3.5288,3.4292,3.4292,3.3698,3.3268,3.3268,3.2793,3.2299,3.2133,3.218,3.3028,3.5113,3.589,3.721,3.9517,3.9697,3.9697,3.9697,3.9697,3.9697,3.9697,3.9697,3.9697,3.9697,3.9697,3.9572,3.932,3.8743,3.8191,3.7613,3.7061,3.6358,3.5508,3.5805,3.5479,3.4751,3.4956,3.4906,3.468,3.468,3.468,3.4655,3.4449,3.45,3.47,3.4424,3.45,3.4675,3.4424,3.4173,3.3872,3.3294,3.2943,3.2692,3.239,3.1863,3.1386,3.1386,3.121,3.0959,3.0683,3.0432,3.0156,2.9854,3.0139,3.0696,3.1646,3.2164,3.277,3.3768,3.3939,3.3413,3.1738,3.1226,0.0,0.0,2.8976,2.9013,2.9352,2.9628,2.9804,2.9804,2.9804,2.9804,2.9804,2.9804,2.9804,2.9804,2.9804,2.9804,2.9804,2.9804,2.9804,2.9804,2.9804,2.9804,2.9804,2.9804,2.9804,2.9804,2.9804,2.9804,2.9804,2.9804,2.9804,2.9804,2.9804,2.9804,2.9804,2.9804,3.0156,3.0683,3.0884,3.1386,3.1888,3.8007,3.6811,3.5836,3.5836,3.5508,3.5288,3.5288,3.4597,3.3898,3.3323,3.2458,3.2789,3.5157,3.5356,3.6511,3.9413,3.9697,3.9697,3.9697,3.9697,3.9697,3.9697,3.9697,3.9697,3.9697,3.9697,3.9697,3.9697,3.9145,3.8567,3.799,3.7437,3.6609,3.5508,3.5633,3.5382,3.4881,3.5052,3.5102,3.5102,3.5102,3.5102,3.5102,3.4931,3.5002,3.5077,3.4951,3.5002,3.5077,3.4906,3.4881,3.4781,3.4274,3.4098,3.3997,3.3596,3.2742,3.1938,3.1813,3.1687,3.1486,3.1085,3.0884,3.0683,3.0256,3.008,3.0265,3.1191,3.1272,3.1499,3.2415,3.2593,3.2272,3.1352,0.0,0.0,0.0,2.9402,2.9302,2.9729,2.9804,2.9854,2.998,2.998,3.003,3.0156,3.0156,3.0156,3.0156,3.0156,3.0156,3.0156,3.0055,3.0055,3.0156,3.0156,3.0105,2.998,3.0105,3.0105,2.998,3.0105,3.0156,3.0156,3.003,3.0055,3.0156,3.003,3.0055,3.0156,3.003,3.0557,3.1336,3.0934,3.1587,3.2516,3.9517,3.8348,3.7346,3.7346,3.6217,3.5288,3.5288,3.5223,3.4823,3.3817,3.3257,3.3721,3.5635,3.5502,3.6511,3.9413,3.9697,3.9697,3.9697,3.9697,3.9697,3.9697,3.9697,3.9697,3.9697,3.9697,3.9697,3.9697,3.9145,3.8567,3.799,3.7437,3.6609,3.5508,3.6081,3.6006,3.5483,3.6031,3.6279,3.6279,3.6279,3.6279,3.6229,3.5633,3.5805,3.6229,3.5633,3.5805,3.6204,3.5608,3.5433,3.5332,3.4781,3.463,3.4605,3.458,3.4173,3.3596,3.3093,3.2566,3.2139,3.2114,3.1712,3.1311,3.1286,3.0909,3.0809,3.1756,3.1563,3.1499,3.2415,3.2593,3.2272,3.1352,0.0,0.0,2.9934,2.9754,2.9754,2.9779,2.9804,3.0005,3.0507,3.0557,3.0758,3.1235,3.126,3.126,3.126,3.126,3.126,3.126,3.0809,3.0783,3.126,3.126,3.1035,3.0557,3.1035,3.1009,3.0583,3.106,3.126,3.1235,3.0758,3.0834,3.1235,3.0758,3.0834,3.121,3.0733,3.0909,3.1386,3.1361,3.1411,3.1562,3.9697,3.9258,3.8844,3.8844,3.8425,3.8152,3.8466,3.7965,3.7038,3.5747,3.4917,3.4938,3.6248,3.5972,3.6896,3.9937,3.9898,3.9697,3.9697,3.9697,3.9697,3.9697,3.9697,3.9697,3.9697,3.9697,3.9697,3.9697,3.9471,3.9094,3.8542,3.7965,3.7462,3.7061,3.6935,3.6759,3.6584,3.6784,3.6732,3.6405,3.6405,3.6405,3.638,3.6132,3.6182,3.638,3.6132,3.6182,3.638,3.6132,3.6056,3.5956,3.5357,3.5182,3.5132,3.4781,3.4575,3.4349,3.4148,3.3445,3.2667,3.229,3.2064,3.1813,3.1461,3.1235,3.1341,3.2319,3.1889,3.1513,3.2113,3.1759,3.1111,3.0432,0.0,3.0216,2.9856,2.9804,2.9905,3.0256,3.0306,3.0507,3.1035,3.111,3.1185,3.1361,3.1386,3.1386,3.1386,3.1188,3.1313,3.1755,3.158,3.1471,3.1386,3.106,3.0959,3.1085,3.0959,3.0984,3.111,3.1311,3.1386,3.1386,3.1185,3.121,3.1361,3.1185,3.121,3.1336,3.0809,3.1135,3.1863,3.1512,3.1838,3.2416,3.9697,3.9697,3.9747,3.9923,3.9948,4.0149,4.0701,4.0114,3.9014,3.7176,3.6195,3.6025,3.6818,3.6273,3.7142,4.0237,4.0023,3.9697,3.9697,3.9697,3.9697,3.9697,3.9697,3.9697,3.9697,3.9697,3.9697,3.9697,3.9697,3.9421,3.8919,3.8467,3.8191,3.799,3.7613,3.7437,3.7437,3.7437,3.7236,3.6885,3.6885,3.6885,3.6885,3.6885,3.6885,3.6885,3.6885,3.6885,3.6908,3.6732,3.6656,3.6581,3.5981,3.5805,3.573,3.5353,3.5102,3.4931,3.4931,3.4299,3.3445,3.2893,3.2742,3.2591,3.2039,3.1788,3.1842,3.2481,3.1975,3.1504,3.1746,3.1286,3.0733,3.0357,3.0306,3.0306,3.0306,3.0306,3.0432,3.0809,3.0859,3.106,3.1587,3.1637,3.1712,3.1913,3.1913,3.1913,3.1913,3.1714,3.1822,3.2331,3.2331,3.2223,3.1913,3.1562,3.1461,3.1637,3.1461,3.1486,3.1637,3.1637,3.1637,3.1637,3.1461,3.1486,3.1637,3.1637,3.1763,3.1863,3.1336,3.1687,3.2416,3.1863,3.2265,3.3061,3.9697,3.9697,3.9873,4.0425,4.0526,4.0701,4.12,4.13,4.0392,3.7788,3.7001,3.6889,3.7381,3.6553,3.7142,4.0237,4.0023,3.9697,3.9697,3.9697,3.9697,3.9697,3.9697,3.9697,3.9697,3.9697,3.9697,3.9697,3.9697,3.9421,3.8919,3.8919,3.8567,3.8015,3.8015,3.8015,3.8015,3.8015,3.8015,3.8015,3.8015,3.8015,3.8015,3.8015,3.8015,3.8015,3.8015,3.8015,3.7914,3.7387,3.7186,3.7086,3.6606,3.643,3.6405,3.6405,3.5981,3.5508,3.5508,3.5107,3.46,3.4048,3.3897,3.3771,3.3219,3.2641,3.224,3.224,3.1788,3.1411,3.1411,3.1411,3.1386,3.1386,3.1386,3.1386,3.1386,3.1386,3.1386,3.1411,3.1411,3.1612,3.2164,3.2215,3.2466,3.3043,3.3111,3.3093,3.3111,3.3136,3.3136,3.3111,3.3136,3.3136,3.3136,3.3111,3.2792,3.2215,3.2792,3.2767,3.2215,3.2215,3.2215,3.219,3.1637,3.1712,3.2215,3.2215,3.2566,3.3061,3.2441,3.2566,3.3061,3.2416,3.2566,3.3111,3.9697,3.9697,3.9873,4.0425,4.0526,4.0827,4.1756,4.1907,4.1398,3.9823,3.9522,3.9475,3.9639,3.9055,3.9467,4.1493,4.0802,4.0099,3.9722,3.9697,3.9697,3.9697,3.9697,3.9697,3.9697,3.9697,3.9697,3.9697,3.9697,3.9622,3.9446,3.9095,3.8969,3.917,3.8793,3.8617,3.8617,3.8617,3.8391,3.8015,3.8015,3.8015,3.8015,3.8015,3.8015,3.8015,3.8015,3.8015,3.799,3.7814,3.7764,3.7739,3.7563,3.7513,3.7437,3.7061,3.681,3.6609,3.6232,3.6006,3.5655,3.47,3.4474,3.4424,3.4274,3.4098,3.3928,3.3928,3.3545,3.3043,3.2641,3.224,3.1838,3.1461,3.1386,3.1386,3.1386,3.1386,3.1537,3.1913,3.1964,3.219,3.2767,3.2817,3.2893,3.3111,3.3445,3.3495,3.3093,3.3589,3.3639,3.3093,3.4123,3.435,3.3671,3.2867,3.2591,3.2817,3.2591,3.2591,3.2817,3.2817,3.2817,3.2817,3.2641,3.2667,3.2817,3.2817,3.2918,3.3061,3.2441,3.2566,3.3061,3.2416,3.2566,3.3111,3.9697,3.9697,3.9948,4.0701,4.0852,4.1204,4.2363,4.2539,4.2059,4.0798,4.0592,4.0521,4.0307,3.9751,3.9985,4.1422,4.0902,4.0375,4.0049,4.0023,3.9923,3.9697,3.9697,3.9697,3.9697,3.9697,3.9697,3.9697,3.9697,3.9697,3.9697,3.9346,3.9371,3.9672,3.9346,3.9195,3.9195,3.9195,3.8994,3.8668,3.8668,3.8668,3.8668,3.8668,3.8668,3.8668,3.8668,3.8668,3.8642,3.8417,3.8191,3.8015,3.8015,3.8015,3.7939,3.7613,3.7362,3.7111,3.6784,3.6581,3.6254,3.5529,3.5203,3.4956,3.4731,3.468,3.468,3.468,3.4449,3.4123,3.3796,3.3445,3.3093,3.2767,3.2717,3.2717,3.2717,3.2717,3.2842,3.3169,3.3018,3.3093,3.3671,3.352,3.3495,3.3721,3.4048,3.4073,3.3746,3.414,3.419,3.3746,3.4609,3.481,3.4223,3.3545,3.3269,3.3395,3.2817,3.2742,3.3111,3.2842,3.2742,3.2742,3.2742,3.2742,3.2742,3.2993,3.3111,3.3043,3.2692,3.2767,3.3086,3.2692,3.2767,3.3111,3.9697,3.9697,4.0023,4.1025,4.12,4.1551,4.266,4.2836,4.2308,4.0947,4.0751,4.0583,4.0048,3.9547,3.9588,4.0595,4.0651,4.0626,4.0526,4.0526,4.0275,3.9722,3.9697,3.9697,3.9697,3.9697,3.9697,3.9697,3.9697,3.9697,3.9697,3.9697,3.9697,3.9697,3.9697,3.9697,3.9697,3.9697,3.9697,3.9697,3.9697,3.9697,3.9697,3.9697,3.9697,3.9697,3.9697,3.9697,3.9622,3.912,3.8592,3.8165,3.8165,3.8165,3.814,3.809,3.7739,3.7337,3.7287,3.6908,3.648,3.648,3.6031,3.5433,3.4931,3.4876,3.4876,3.4876,3.4826,3.4756,3.4756,3.4705,3.468,3.468,3.468,3.468,3.468,3.468,3.468,3.468,3.4274,3.4173,3.4675,3.4274,3.4173,3.4675,3.4731,3.4731,3.468,3.4826,3.4826,3.468,3.4826,3.4851,3.4756,3.4756,3.4525,3.3972,3.347,3.3219,3.3194,3.2616,3.2365,3.2365,3.2315,3.229,3.234,3.2867,3.3111,3.3111,3.3111,3.3119,3.3144,3.3144,3.3194,3.3244,3.9697,3.9697,3.9898,4.0576,4.0701,4.0927,4.1605,4.1706,4.1722,4.1872,4.1867,4.1817,4.1693,4.1569,4.1579,4.1806,4.1861,4.143,4.0576,4.0526,4.0275,3.9722,3.9697,3.9697,3.9697,3.9697,3.9697,3.9697,3.9697,3.9697,3.9697,3.9697,3.9697,3.9697,3.9697,3.9697,3.9697,3.9697,3.9697,3.9697,3.9697,3.9697,3.9697,3.9697,3.9697,3.9697,3.9697,3.9697,3.9672,3.9546,3.9446,3.932,3.932,3.932,3.9245,3.8818,3.8592,3.8417,3.7939,3.7437,3.7059,3.7059,3.6584,3.6157,3.6078,3.6053,3.6053,3.6053,3.5655,3.5332,3.5332,3.4956,3.468,3.468,3.468,3.468,3.468,3.468,3.468,3.468,3.4625,3.46,3.468,3.458,3.46,3.468,3.5082,3.5132,3.4705,3.5554,3.5604,3.4751,3.5554,3.5805,3.5332,3.5332,3.5056,3.455,3.4424,3.4374,3.4349,3.3796,3.3545,3.352,3.3068,3.2893,3.2893,3.3061,3.3111,3.3111,3.3111,3.3345,3.3721,3.3721,3.3997,3.4424,3.9697,3.9697,3.9948,4.0752,4.0701,4.0802,4.1605,4.1505,4.1376,4.1731,4.1756,4.1656,4.1404,4.1379,4.148,4.1731,4.2062,4.1806,4.0953,4.0849,4.0551,3.9722,3.9697,3.9697,3.9697,3.9697,3.9697,3.9697,3.9697,3.9697,3.9697,3.9697,3.9697,3.9697,3.9697,3.9697,3.9697,3.9697,3.9697,3.9697,3.9697,3.9697,3.9697,3.9697,3.9697,3.9697,3.9697,3.9697,3.9697,3.9697,3.9697,3.9697,3.9697,3.9697,3.9647,3.9346,3.9069,3.8844,3.8492,3.8015,3.7588,3.7588,3.7362,3.701,3.6531,3.6405,3.648,3.6757,3.6533,3.6332,3.6332,3.6081,3.5805,3.5554,3.5504,3.5504,3.5504,3.5504,3.5504,3.5504,3.5278,3.5082,3.5082,3.5353,3.5504,3.5504,3.578,3.5805,3.5529,3.6103,3.6153,3.5529,3.6103,3.6279,3.5931,3.5931,3.578,3.5504,3.4977,3.468,3.468,3.4424,3.4148,3.3872,3.3596,3.3319,3.3136,3.337,3.347,3.3495,3.3746,3.3872,3.3922,3.4198,3.4474,3.4756,3.9697,3.9697,3.9973,4.0902,4.0676,4.0676,4.1659,4.1354,4.105,4.1125,4.115,4.0974,4.0576,4.0601,4.0852,4.125,4.1932,4.2057,4.1505,4.1351,4.0824,3.9873,3.9848,3.9848,3.9848,3.9848,3.9798,3.9697,3.9697,3.9697,3.9697,3.9697,3.9697,3.9697,3.9697,3.9697,3.9697,3.9697,3.9697,3.9697,3.9697,3.9697,3.9697,3.9697,3.9697,3.9697,3.9697,3.9697,3.9697,3.9697,3.9697,3.9697,3.9697,3.9697,3.9697,3.9697,3.9371,3.907,3.907,3.8592,3.814,3.814,3.809,3.7764,3.6908,3.6681,3.6832,3.7236,3.7337,3.7337,3.7337,3.7337,3.7136,3.6631,3.6556,3.6505,3.643,3.648,3.6556,3.6556,3.6182,3.5934,3.5934,3.6383,3.6681,3.6681,3.6606,3.6556,3.6556,3.6455,3.6405,3.6405,3.6405,3.6405,3.6405,3.6405,3.6405,3.6405,3.5429,3.5002,3.5002,3.4856,3.458,3.4173,3.4073,3.3771,3.3395,3.3847,3.4048,3.4098,3.455,3.45,3.4248,3.4801,3.5002,3.5052,3.9697,3.9697,3.9747,3.9898,3.9848,3.9848,3.9998,3.9973,4.0099,4.0576,4.0626,4.0601,4.0526,4.0899,4.12,4.1275,4.2283,4.269,4.2137,4.1605,4.1,4.0425,4.04,4.04,4.04,4.04,4.0174,3.9697,3.9697,3.9697,3.9697,3.9697,3.9697,3.9697,3.9697,3.9697,3.9697,3.9697,3.9697,3.9697,3.9697,3.9697,3.9697,3.9697,3.9697,3.9697,3.9697,3.9697,3.9697,3.9697,3.9697,3.9697,3.9697,3.9697,3.9697,3.9697,3.9647,3.9572,3.9572,3.917,3.8793,3.8793,3.8391,3.7965,3.7814,3.7789,3.7814,3.7889,3.7889,3.7889,3.7889,3.7889,3.7713,3.7161,3.7061,3.6958,3.648,3.6832,3.7061,3.7061,3.7437,3.7663,3.7663,3.7739,3.7789,3.7789,3.7337,3.7061,3.7061,3.6681,3.6405,3.6405,3.6405,3.6405,3.6405,3.6405,3.6405,3.6405,3.6254,3.6179,3.6179,3.5655,3.5357,3.5257,3.4781,3.4575,3.45,3.4575,3.46,3.4625,3.47,3.4931,3.5332,3.5931,3.6179,3.6204,4.0743,4.1319,4.1895,4.2213,4.1428,4.0847,4.1157,4.0363,3.9772,4.0023,4.0049,4.0174,4.0475,4.0949,4.1275,4.1275,4.2057,4.2464,4.2238,4.1656,4.105,4.0551,4.0224,4.0049,4.0049,4.0049,3.9948,3.9697,3.9697,3.9697,3.9697,3.9697,3.9697,3.9697,3.9697,3.9697,3.9697,3.9697,3.9697,3.9697,3.9697,3.9697,3.9697,3.9697,3.9697,3.9697,3.9697,3.9697,3.9697,3.9697,3.9697,3.9697,3.9697,3.9697,3.9697,3.9697,3.9697,3.9697,3.9697,3.9521,3.932,3.932,3.9145,3.8944,3.8944,3.8944,3.8868,3.8542,3.8492,3.8492,3.8492,3.8492,3.8291,3.7739,3.7638,3.7563,3.7312,3.7487,3.7638,3.7638,3.7864,3.8015,3.8015,3.8015,3.8015,3.8015,3.7789,3.7513,3.7211,3.7008,3.6883,3.6883,3.6581,3.6556,3.6857,3.6556,3.6405,3.6405,3.6405,3.6405,3.6405,3.6107,3.583,3.5483,3.5232,3.4956,3.4705,3.5006,3.5132,3.5157,3.5529,3.578,3.5981,3.5931,3.6107,3.6405]}]]